[[{"header":{"parameterUnit":"m.s-1","parameterCategory":1,"la1":31.0,"la2":29.5877,"lo1":-88.7671,"lo2":-86.6584,"dy":0.0162,"dx":0.0185,"nx":115,"ny":88,"refTime":"2023-05-10T06:00:00:Z","depth":0,"parameterNumber":2,"parameterNumberName":"U-component_of_WINDS"},"data":[0.0,0.0,0.0,0.0,0.0,0.0,0.0,0.0,0.0,0.0,0.0,0.0,0.0,0.0,0.0,0.0,0.0,0.0,0.0,0.0,0.0,0.0,0.0,0.0,0.0,0.0,0.0,0.0,0.0,0.0,0.0,0.0,0.0,0.0,0.0,0.0,0.0,0.0,0.0,0.0,0.0,0.0,0.0,0.0,0.0,0.0,0.0,0.0,0.0,0.0,0.0,0.0,0.0,0.0,0.0,0.0,0.0,0.0,0.0,0.0,0.0,0.0,0.0,0.0,0.0,0.0,0.0,0.0,0.0,0.0,0.0,0.0,0.0,0.0,0.0,0.0,0.0,0.0,0.0,0.0,0.0,0.0,0.0,0.0,0.0,0.0,0.0,0.0,0.0,0.0,0.0,0.0,0.0,0.0,0.0,0.0,0.0,0.0,0.0,0.0,0.0,0.0,0.0,0.0,0.0,0.0,0.0,0.0,0.0,0.0,0.0,0.0,0.0,0.0,0.0,0.0,0.0,0.0,0.0,0.0,0.0,0.0,0.0,0.0,0.0,0.0,0.0,0.0,0.0,0.0,0.0,0.0,0.0,0.0,0.0,0.0,0.0,0.0,0.0,0.0,0.0,0.0,0.0,0.0,0.0,0.0,0.0,0.0,0.0,0.0,0.0,0.0,0.0,0.0,0.0,0.0,0.0,0.0,0.0,0.0,0.0,0.0,0.0,0.0,0.0,0.0,0.0,0.0,0.0,0.0,0.0,0.0,0.0,0.0,0.0,0.0,0.0,0.0,0.0,0.0,0.0,0.0,0.0,0.0,0.0,0.0,0.0,0.0,0.0,0.0,0.0,0.0,0.0,0.0,0.0,0.0,0.0,0.0,0.0,0.0,0.0,0.0,0.0,0.0,0.0,0.0,0.0,0.0,0.0,0.0,0.0,0.0,0.0,0.0,0.0,0.0,0.0,0.0,0.0,0.0,0.0,0.0,0.0,0.0,0.0,0.0,0.0,0.0,0.0,0.0,0.0,0.0,0.0,0.0,0.0,0.0,0.0,0.0,0.0,0.0,0.0,0.0,0.0,0.0,0.0,0.0,0.0,0.0,0.0,0.0,0.0,0.0,0.0,0.0,0.0,0.0,0.0,0.0,0.0,0.0,0.0,0.0,0.0,0.0,0.0,0.0,0.0,0.0,0.0,0.0,0.0,0.0,0.0,0.0,0.0,0.0,0.0,0.0,0.0,0.0,0.0,0.0,0.0,0.0,0.0,0.0,0.0,0.0,0.0,0.0,0.0,0.0,0.0,0.0,0.0,0.0,0.0,0.0,0.0,0.0,0.0,0.0,0.0,0.0,0.0,0.0,0.0,0.0,0.0,0.0,0.0,0.0,0.0,0.0,0.0,0.0,0.0,0.0,0.0,0.0,0.0,0.0,0.0,0.0,0.0,0.0,0.0,0.0,0.0,0.0,0.0,0.0,0.0,0.0,0.0,0.0,0.0,0.0,0.0,0.0,0.0,0.0,0.0,0.0,0.0,0.0,0.0,0.0,0.0,0.0,0.0,0.0,0.0,0.0,0.0,0.0,0.0,0.0,0.0,0.0,0.0,0.0,0.0,0.0,0.0,0.0,0.0,0.0,0.0,0.0,0.0,0.0,0.0,0.0,0.0,0.0,0.0,0.0,0.0,0.0,0.0,0.0,0.0,0.0,0.0,0.0,0.0,0.0,0.0,0.0,0.0,0.0,0.0,0.0,0.0,0.0,0.0,0.0,0.0,0.0,0.0,0.0,0.0,0.0,0.0,0.0,0.0,0.0,0.0,0.0,0.0,0.0,0.0,0.0,0.0,0.0,0.0,0.0,0.0,0.0,0.0,0.0,0.0,0.0,0.0,0.0,0.0,0.0,0.0,0.0,0.0,0.0,0.0,0.0,0.0,0.0,0.0,0.0,0.0,0.0,0.0,0.0,0.0,0.0,0.0,0.0,0.0,0.0,0.0,0.0,0.0,0.0,0.0,0.0,0.0,0.0,0.0,0.0,0.0,0.0,0.0,0.0,0.0,0.0,0.0,0.0,0.0,0.0,0.0,0.0,0.0,0.0,0.0,0.0,0.0,0.0,0.0,0.0,0.0,0.0,0.0,0.0,0.0,0.0,0.0,0.0,0.0,0.0,0.0,0.0,0.0,0.0,0.0,0.0,0.0,0.0,0.0,0.0,0.0,0.0,0.0,0.0,0.0,0.0,0.0,0.0,0.0,0.0,0.0,0.0,0.0,0.0,0.0,0.0,0.0,0.0,0.0,0.0,0.0,0.0,0.0,0.0,0.0,0.0,0.0,0.0,0.0,0.0,0.0,0.0,0.0,0.0,0.0,0.0,0.0,0.0,0.0,0.0,0.0,0.0,0.0,0.0,0.0,0.0,0.0,0.0,0.0,0.0,0.0,0.0,0.0,0.0,0.0,0.0,0.0,0.0,0.0,0.0,0.0,0.0,0.0,0.0,0.0,0.0,0.0,0.0,0.0,0.0,0.0,0.0,0.0,0.0,0.0,0.0,0.0,0.0,0.0,0.0,0.0,0.0,0.0,0.0,0.0,0.0,0.0,0.0,0.0,0.0,0.0,0.0,0.0,0.0,0.0,0.0,0.0,0.0,0.0,0.0,0.0,0.0,0.0,0.0,0.0,0.0,0.0,0.0,0.0,0.0,0.0,0.0,0.0,0.0,0.0,0.0,0.0,0.0,0.0,0.0,0.0,0.0,0.0,0.0,0.0,0.0,0.0,0.0,0.0,0.0,0.0,0.0,0.0,0.0,0.0,0.0,0.0,0.0,0.0,0.0,0.0,0.0,0.0,0.0,0.0,0.0,0.0,0.0,0.0,0.0,0.0,0.0,0.0,0.0,0.0,0.0,0.0,0.0,0.0,0.0,0.0,0.0,0.0,0.0,0.0,0.0,0.0,0.0,0.0,0.0,0.0,0.0,0.0,0.0,0.0,0.0,0.0,0.0,0.0,0.0,0.0,0.0,0.0,0.0,0.0,0.0,0.0,0.0,0.0,0.0,0.0,0.0,0.0,0.0,0.0,0.0,0.0,0.0,0.0,0.0,0.0,0.0,0.0,0.0,0.0,0.0,0.0,0.0,0.0,0.0,0.0,0.0,0.0,0.0,0.0,0.0,0.0,0.0,0.0,0.0,0.0,0.0,0.0,0.0,0.0,0.0,0.0,0.0,0.0,0.0,0.0,0.0,0.0,0.0,0.0,0.0,0.0,0.0,0.0,0.0,0.0,0.0,0.0,0.0,0.0,0.0,0.0,0.0,0.0,0.0,0.0,0.0,0.0,0.0,0.0,0.0,0.0,0.0,0.0,0.0,0.0,0.0,0.0,0.0,0.0,0.0,0.0,0.0,0.0,0.0,0.0,0.0,0.0,0.0,0.0,0.0,0.0,0.0,0.0,0.0,0.0,0.0,0.0,0.0,0.0,0.0,0.0,0.0,0.0,0.0,0.0,0.0,0.0,0.0,0.0,0.0,0.0,0.0,0.0,0.0,0.0,0.0,0.0,0.0,0.0,0.0,0.0,0.0,0.0,0.0,0.0,0.0,0.0,0.0,0.0,0.0,0.0,0.0,0.0,0.0,0.0,0.0,0.0,0.0,0.0,0.0,0.0,0.0,0.0,0.0,0.0,0.0,0.0,0.0,0.0,0.0,0.0,0.0,0.0,0.0,0.0,0.0,0.0,0.0,0.0,0.0,0.0,0.0,0.0,0.0,0.0,0.0,0.0,0.0,0.0,0.0,0.0,0.0,0.0,0.0,0.0,0.0,0.0,0.0,0.0,0.0,0.0,0.0,0.0,0.0,0.0,0.0,0.0,0.0,0.0,0.0,0.0,0.0,0.0,0.0,0.0,0.0,0.0,0.0,0.0,0.0,0.0,0.0,0.0,0.0,0.0,0.0,0.0,0.0,0.0,0.0,0.0,0.0,0.0,0.0,0.0,0.0,0.0,0.0,0.0,0.0,0.0,0.0,0.0,0.0,0.0,0.0,0.0,0.0,0.0,0.0,0.0,0.0,0.0,0.0,0.0,0.0,0.0,0.0,0.0,0.0,0.0,0.0,0.0,0.0,0.0,0.0,0.0,0.0,0.0,0.0,0.0,0.0,0.0,0.0,0.0,0.0,0.0,0.0,0.0,0.0,0.0,0.0,0.0,0.0,0.0,0.0,0.0,0.0,0.0,0.0,0.0,0.0,0.0,0.0,0.0,0.0,0.0,0.0,0.0,0.0,0.0,0.0,-1.8008,0.0,0.0,0.0,0.0,0.0,0.0,0.0,0.0,0.0,0.0,0.0,0.0,0.0,0.0,0.0,0.0,0.0,0.0,0.0,0.0,0.0,0.0,0.0,0.0,0.0,0.0,0.0,0.0,0.0,0.0,0.0,0.0,0.0,0.0,0.0,0.0,0.0,0.0,0.0,0.0,0.0,0.0,0.0,0.0,0.0,0.0,0.0,0.0,0.0,0.0,0.0,0.0,0.0,0.0,0.0,0.0,0.0,0.0,0.0,0.0,0.0,0.0,0.0,0.0,0.0,0.0,0.0,0.0,0.0,0.0,0.0,0.0,0.0,0.0,0.0,0.0,0.0,0.0,0.0,0.0,0.0,0.0,0.0,0.0,0.0,0.0,0.0,0.0,0.0,0.0,0.0,0.0,0.0,0.0,0.0,0.0,0.0,0.0,0.0,0.0,0.0,0.0,0.0,0.0,0.0,0.0,0.0,0.0,0.0,0.0,-1.8008,-1.8008,-1.8008,-1.8008,-1.8008,0.0,0.0,0.0,0.0,0.0,0.0,0.0,0.0,0.0,0.0,0.0,0.0,0.0,0.0,0.0,0.0,0.0,0.0,0.0,0.0,0.0,0.0,0.0,0.0,0.0,0.0,0.0,0.0,0.0,0.0,0.0,0.0,0.0,0.0,0.0,0.0,0.0,0.0,0.0,0.0,0.0,0.0,0.0,0.0,0.0,0.0,0.0,0.0,0.0,0.0,0.0,0.0,0.0,0.0,0.0,0.0,0.0,0.0,0.0,0.0,0.0,0.0,0.0,0.0,0.0,0.0,0.0,0.0,0.0,0.0,0.0,0.0,0.0,0.0,0.0,0.0,0.0,0.0,0.0,0.0,0.0,0.0,0.0,0.0,0.0,0.0,0.0,0.0,0.0,0.0,0.0,0.0,0.0,0.0,0.0,0.0,0.0,0.0,0.0,0.0,0.0,0.0,0.0,0.0,0.0,0.0,0.0,0.0,0.0,0.0,0.0,0.0,-1.8008,-1.8008,-1.8008,0.0,0.0,0.0,0.0,0.0,0.0,0.0,0.0,0.0,0.0,0.0,0.0,0.0,0.0,0.0,0.0,0.0,0.0,0.0,0.0,0.0,0.0,0.0,0.0,0.0,0.0,0.0,0.0,0.0,0.0,0.0,0.0,0.0,0.0,0.0,0.0,0.0,0.0,0.0,0.0,0.0,0.0,0.0,0.0,0.0,0.0,0.0,0.0,0.0,0.0,0.0,0.0,0.0,0.0,0.0,0.0,0.0,0.0,0.0,0.0,0.0,0.0,0.0,0.0,0.0,0.0,0.0,0.0,0.0,0.0,0.0,0.0,0.0,0.0,0.0,0.0,0.0,0.0,0.0,0.0,0.0,0.0,0.0,0.0,0.0,0.0,0.0,0.0,0.0,0.0,0.0,0.0,0.0,0.0,0.0,0.0,0.0,0.0,0.0,0.0,0.0,0.0,0.0,0.0,0.0,0.0,0.0,0.0,0.0,0.0,-1.8364,-1.8018,-1.8008,0.0,-1.8008,0.0,0.0,0.0,0.0,0.0,0.0,0.0,0.0,0.0,0.0,0.0,0.0,0.0,0.0,0.0,0.0,0.0,0.0,0.0,0.0,0.0,0.0,0.0,0.0,0.0,0.0,0.0,0.0,0.0,0.0,0.0,0.0,0.0,0.0,0.0,0.0,0.0,0.0,0.0,0.0,0.0,0.0,0.0,0.0,0.0,0.0,0.0,0.0,0.0,0.0,0.0,0.0,0.0,0.0,0.0,0.0,0.0,0.0,0.0,0.0,0.0,0.0,0.0,0.0,0.0,0.0,0.0,0.0,0.0,0.0,0.0,0.0,0.0,0.0,0.0,0.0,0.0,0.0,0.0,0.0,0.0,0.0,0.0,0.0,0.0,0.0,0.0,0.0,0.0,0.0,0.0,0.0,0.0,0.0,0.0,0.0,0.0,0.0,0.0,0.0,0.0,0.0,0.0,0.0,0.0,0.0,0.0,0.0,0.0,0.0,-1.8537,-1.8344,-1.8127,-1.8008,0.0,0.0,0.0,0.0,0.0,0.0,0.0,0.0,0.0,0.0,0.0,0.0,0.0,0.0,0.0,0.0,0.0,0.0,0.0,0.0,0.0,0.0,0.0,0.0,0.0,0.0,0.0,0.0,0.0,0.0,0.0,0.0,0.0,0.0,0.0,0.0,0.0,0.0,0.0,0.0,0.0,0.0,0.0,0.0,0.0,0.0,0.0,0.0,0.0,0.0,0.0,0.0,0.0,0.0,0.0,0.0,0.0,0.0,0.0,0.0,0.0,0.0,0.0,0.0,0.0,0.0,0.0,0.0,0.0,0.0,0.0,0.0,0.0,0.0,0.0,0.0,0.0,0.0,0.0,0.0,0.0,0.0,0.0,0.0,0.0,0.0,0.0,0.0,0.0,0.0,0.0,0.0,0.0,0.0,0.0,0.0,0.0,0.0,0.0,0.0,0.0,0.0,0.0,0.0,0.0,0.0,0.0,0.0,0.0,0.0,-1.9288,-1.8841,-1.8598,-1.8215,-1.8008,-1.8008,0.0,0.0,0.0,0.0,0.0,0.0,0.0,0.0,0.0,0.0,0.0,0.0,0.0,0.0,0.0,0.0,0.0,0.0,0.0,0.0,0.0,0.0,0.0,0.0,0.0,0.0,0.0,0.0,0.0,0.0,0.0,0.0,0.0,0.0,0.0,0.0,0.0,0.0,0.0,0.0,0.0,0.0,0.0,0.0,0.0,0.0,0.0,0.0,0.0,0.0,0.0,0.0,0.0,0.0,0.0,0.0,0.0,0.0,0.0,0.0,0.0,0.0,0.0,0.0,0.0,0.0,0.0,0.0,0.0,0.0,0.0,0.0,0.0,0.0,0.0,0.0,0.0,0.0,0.0,0.0,0.0,0.0,0.0,0.0,0.0,0.0,0.0,0.0,0.0,0.0,0.0,0.0,0.0,0.0,0.0,0.0,0.0,0.0,0.0,0.0,0.0,0.0,0.0,0.0,0.0,0.0,0.0,0.0,-1.9941,-1.9854,-1.9444,-1.8637,-1.8198,-1.8008,0.0,0.0,0.0,0.0,0.0,0.0,0.0,0.0,0.0,0.0,0.0,0.0,0.0,0.0,0.0,0.0,0.0,0.0,0.0,0.0,0.0,0.0,0.0,0.0,0.0,0.0,0.0,0.0,0.0,0.0,0.0,0.0,0.0,0.0,0.0,0.0,0.0,0.0,0.0,0.0,0.0,0.0,0.0,0.0,0.0,0.0,0.0,0.0,0.0,0.0,0.0,0.0,0.0,0.0,0.0,0.0,0.0,0.0,0.0,0.0,0.0,0.0,0.0,0.0,0.0,0.0,0.0,0.0,0.0,0.0,0.0,0.0,0.0,0.0,0.0,0.0,0.0,0.0,0.0,0.0,0.0,0.0,0.0,0.0,0.0,0.0,0.0,0.0,0.0,0.0,0.0,0.0,0.0,0.0,0.0,0.0,0.0,0.0,0.0,0.0,0.0,0.0,0.0,0.0,0.0,0.0,0.0,0.0,0.0,-2.0341,-2.0059,-1.962,-1.9064,-1.8896,-1.8846,0.0,0.0,0.0,0.0,0.0,0.0,0.0,0.0,0.0,0.0,0.0,0.0,0.0,0.0,0.0,0.0,0.0,0.0,0.0,0.0,0.0,0.0,0.0,0.0,0.0,0.0,0.0,0.0,0.0,0.0,0.0,0.0,0.0,0.0,0.0,0.0,0.0,0.0,0.0,0.0,0.0,0.0,0.0,0.0,0.0,0.0,0.0,0.0,0.0,0.0,0.0,0.0,0.0,0.0,0.0,0.0,0.0,0.0,0.0,0.0,0.0,0.0,0.0,0.0,0.0,0.0,0.0,0.0,0.0,0.0,0.0,0.0,0.0,0.0,0.0,0.0,0.0,0.0,0.0,0.0,0.0,0.0,0.0,0.0,0.0,0.0,0.0,0.0,0.0,0.0,0.0,0.0,0.0,0.0,0.0,0.0,0.0,0.0,0.0,0.0,0.0,0.0,0.0,0.0,0.0,0.0,0.0,0.0,0.0,-2.0586,0.0,-1.9757,-1.9512,-1.9374,-1.9277,0.0,0.0,0.0,0.0,0.0,0.0,0.0,0.0,0.0,0.0,0.0,0.0,0.0,0.0,0.0,0.0,0.0,0.0,0.0,0.0,0.0,0.0,0.0,0.0,0.0,0.0,0.0,0.0,0.0,0.0,0.0,0.0,0.0,0.0,0.0,0.0,0.0,0.0,0.0,0.0,0.0,0.0,0.0,0.0,0.0,0.0,0.0,0.0,0.0,0.0,0.0,0.0,0.0,0.0,0.0,0.0,0.0,0.0,0.0,0.0,0.0,0.0,0.0,0.0,0.0,0.0,0.0,0.0,0.0,0.0,0.0,0.0,0.0,0.0,0.0,0.0,0.0,0.0,0.0,0.0,0.0,0.0,0.0,0.0,0.0,0.0,0.0,0.0,0.0,0.0,0.0,0.0,0.0,0.0,0.0,0.0,0.0,0.0,0.0,0.0,0.0,0.0,0.0,0.0,0.0,0.0,0.0,0.0,-2.0596,-2.0586,-2.0146,-1.9913,-1.9883,-1.9569,-1.9344,0.0,0.0,0.0,0.0,0.0,0.0,0.0,0.0,0.0,0.0,0.0,0.0,0.0,0.0,0.0,0.0,0.0,0.0,0.0,0.0,0.0,0.0,0.0,0.0,0.0,0.0,0.0,0.0,0.0,0.0,0.0,0.0,0.0,0.0,0.0,0.0,0.0,0.0,0.0,0.0,0.0,0.0,0.0,0.0,0.0,0.0,0.0,0.0,0.0,0.0,0.0,0.0,0.0,0.0,0.0,0.0,0.0,0.0,0.0,0.0,0.0,0.0,0.0,0.0,0.0,0.0,0.0,0.0,0.0,0.0,0.0,0.0,0.0,0.0,0.0,0.0,0.0,0.0,0.0,0.0,0.0,0.0,0.0,0.0,0.0,0.0,0.0,0.0,0.0,0.0,0.0,0.0,0.0,0.0,0.0,0.0,0.0,0.0,0.0,0.0,0.0,0.0,0.0,0.0,0.0,0.0,0.0,0.0,0.0,-2.0605,-2.0468,-2.0371,-2.0381,-2.0263,-2.0204,0.0,0.0,0.0,0.0,0.0,0.0,0.0,0.0,0.0,0.0,0.0,0.0,0.0,0.0,0.0,0.0,0.0,0.0,0.0,0.0,0.0,0.0,0.0,0.0,0.0,0.0,0.0,0.0,0.0,0.0,0.0,0.0,0.0,0.0,0.0,0.0,0.0,0.0,0.0,0.0,0.0,0.0,0.0,0.0,0.0,0.0,0.0,0.0,0.0,0.0,0.0,0.0,0.0,0.0,0.0,0.0,0.0,0.0,0.0,0.0,0.0,0.0,0.0,0.0,0.0,0.0,0.0,0.0,0.0,0.0,0.0,0.0,0.0,0.0,0.0,0.0,0.0,0.0,0.0,0.0,0.0,0.0,0.0,0.0,0.0,0.0,0.0,0.0,0.0,0.0,0.0,0.0,0.0,0.0,0.0,0.0,0.0,0.0,0.0,0.0,0.0,0.0,0.0,0.0,0.0,0.0,0.0,0.0,0.0,-2.083,-2.0996,-2.1075,-2.1084,-2.0918,-2.081,-2.082,0.0,0.0,0.0,0.0,0.0,0.0,0.0,0.0,0.0,0.0,0.0,0.0,0.0,0.0,0.0,0.0,0.0,0.0,0.0,0.0,0.0,0.0,0.0,0.0,0.0,0.0,0.0,0.0,0.0,0.0,0.0,0.0,0.0,0.0,0.0,0.0,0.0,0.0,0.0,0.0,0.0,0.0,0.0,0.0,0.0,0.0,0.0,0.0,0.0,0.0,0.0,0.0,0.0,0.0,0.0,0.0,0.0,0.0,0.0,0.0,0.0,0.0,0.0,0.0,0.0,0.0,0.0,0.0,0.0,0.0,0.0,0.0,0.0,0.0,0.0,0.0,0.0,0.0,0.0,0.0,0.0,0.0,0.0,0.0,0.0,0.0,0.0,0.0,0.0,0.0,0.0,0.0,0.0,0.0,0.0,0.0,0.0,0.0,0.0,0.0,0.0,0.0,0.0,0.0,0.0,0.0,0.0,0.0,-2.1268,-2.1728,-2.1944,-2.1865,-2.1435,-2.122,0.0,0.0,0.0,0.0,0.0,0.0,0.0,0.0,0.0,0.0,0.0,0.0,0.0,0.0,0.0,0.0,0.0,0.0,0.0,0.0,0.0,0.0,0.0,0.0,0.0,0.0,0.0,0.0,0.0,0.0,0.0,0.0,0.0,0.0,0.0,0.0,0.0,0.0,0.0,0.0,0.0,0.0,0.0,0.0,0.0,0.0,0.0,0.0,0.0,0.0,0.0,0.0,0.0,0.0,0.0,0.0,0.0,0.0,0.0,0.0,0.0,0.0,0.0,0.0,0.0,0.0,0.0,0.0,0.0,0.0,0.0,0.0,0.0,0.0,0.0,0.0,0.0,0.0,0.0,0.0,0.0,0.0,0.0,0.0,0.0,0.0,0.0,0.0,0.0,0.0,0.0,0.0,0.0,0.0,0.0,0.0,0.0,0.0,0.0,0.0,0.0,0.0,0.0,0.0,0.0,0.0,0.0,0.0,0.0,-2.2157,-2.2576,-2.2498,-2.1904,-2.1445,-2.122,0.0,0.0,0.0,0.0,0.0,0.0,0.0,0.0,0.0,0.0,0.0,0.0,0.0,0.0,0.0,0.0,0.0,0.0,0.0,0.0,0.0,0.0,0.0,0.0,0.0,0.0,0.0,0.0,0.0,0.0,0.0,0.0,0.0,0.0,0.0,0.0,0.0,0.0,0.0,0.0,0.0,0.0,0.0,0.0,0.0,0.0,0.0,0.0,0.0,0.0,0.0,0.0,0.0,0.0,0.0,0.0,0.0,0.0,0.0,0.0,0.0,0.0,0.0,0.0,0.0,0.0,0.0,0.0,0.0,0.0,0.0,0.0,0.0,0.0,0.0,0.0,0.0,0.0,0.0,0.0,0.0,0.0,0.0,0.0,0.0,0.0,0.0,0.0,0.0,0.0,0.0,0.0,0.0,0.0,0.0,0.0,0.0,0.0,0.0,0.0,0.0,0.0,0.0,0.0,0.0,0.0,0.0,0.0,-2.209,-2.2479,-2.2908,-2.2888,-2.2432,-2.1971,-2.1669,0.0,0.0,0.0,0.0,0.0,0.0,0.0,0.0,0.0,0.0,0.0,0.0,0.0,0.0,0.0,0.0,0.0,0.0,0.0,0.0,0.0,0.0,0.0,0.0,0.0,0.0,0.0,0.0,0.0,0.0,0.0,0.0,0.0,0.0,0.0,0.0,0.0,0.0,0.0,0.0,0.0,0.0,0.0,0.0,0.0,0.0,0.0,0.0,0.0,0.0,0.0,0.0,0.0,0.0,0.0,0.0,0.0,0.0,0.0,0.0,0.0,0.0,0.0,0.0,0.0,0.0,0.0,0.0,0.0,0.0,0.0,0.0,0.0,0.0,0.0,0.0,0.0,0.0,0.0,0.0,0.0,0.0,0.0,0.0,0.0,0.0,0.0,0.0,0.0,0.0,0.0,0.0,0.0,0.0,0.0,0.0,0.0,0.0,0.0,0.0,0.0,0.0,0.0,0.0,0.0,0.0,0.0,0.0,-2.2179,-2.2547,-2.2927,-2.3101,-2.3081,-2.2713,-2.2314,0.0,0.0,0.0,0.0,0.0,0.0,0.0,0.0,0.0,0.0,0.0,0.0,0.0,0.0,0.0,0.0,0.0,0.0,0.0,0.0,0.0,0.0,0.0,0.0,0.0,0.0,0.0,0.0,0.0,0.0,0.0,0.0,0.0,0.0,0.0,0.0,0.0,0.0,0.0,0.0,0.0,0.0,0.0,0.0,0.0,0.0,0.0,0.0,0.0,0.0,0.0,0.0,0.0,0.0,0.0,0.0,0.0,0.0,0.0,0.0,0.0,0.0,0.0,0.0,0.0,0.0,0.0,0.0,0.0,0.0,0.0,0.0,0.0,0.0,0.0,0.0,0.0,0.0,0.0,0.0,0.0,0.0,0.0,0.0,0.0,0.0,0.0,0.0,0.0,0.0,0.0,0.0,0.0,0.0,0.0,0.0,0.0,0.0,0.0,0.0,0.0,0.0,0.0,0.0,0.0,0.0,0.0,0.0,-2.2566,-2.2955,-2.3052,-2.3101,-2.3101,-2.2713,-2.2324,0.0,0.0,0.0,0.0,0.0,0.0,0.0,0.0,0.0,0.0,0.0,0.0,0.0,0.0,0.0,0.0,0.0,0.0,0.0,0.0,0.0,0.0,0.0,0.0,0.0,0.0,0.0,0.0,0.0,0.0,0.0,0.0,0.0,0.0,0.0,0.0,0.0,0.0,0.0,0.0,0.0,0.0,0.0,0.0,0.0,0.0,0.0,0.0,-1.8924,0.0,0.0,0.0,0.0,0.0,0.0,0.0,0.0,0.0,0.0,0.0,0.0,0.0,0.0,0.0,0.0,0.0,0.0,0.0,0.0,0.0,0.0,0.0,0.0,0.0,0.0,0.0,0.0,0.0,0.0,0.0,0.0,0.0,0.0,0.0,0.0,0.0,0.0,0.0,0.0,0.0,0.0,0.0,0.0,0.0,0.0,0.0,0.0,0.0,0.0,0.0,0.0,0.0,0.0,0.0,0.0,0.0,0.0,0.0,-2.2693,-2.3081,-2.3101,-2.3101,-2.3091,-2.2877,-2.2596,0.0,0.0,0.0,0.0,0.0,0.0,0.0,0.0,0.0,0.0,0.0,0.0,0.0,0.0,0.0,0.0,0.0,0.0,0.0,0.0,0.0,0.0,0.0,0.0,0.0,0.0,0.0,0.0,0.0,0.0,0.0,0.0,0.0,0.0,0.0,0.0,0.0,0.0,0.0,0.0,0.0,0.0,0.0,0.0,0.0,0.0,0.0,0.0,0.0,0.0,0.0,0.0,0.0,0.0,0.0,0.0,0.0,0.0,0.0,0.0,0.0,0.0,0.0,0.0,0.0,0.0,0.0,0.0,0.0,0.0,0.0,0.0,0.0,0.0,0.0,0.0,0.0,0.0,0.0,0.0,0.0,0.0,0.0,0.0,0.0,0.0,0.0,0.0,0.0,0.0,0.0,0.0,0.0,0.0,0.0,0.0,0.0,0.0,0.0,0.0,0.0,0.0,0.0,0.0,0.0,0.0,0.0,-2.236,-2.2675,-2.2962,-2.3013,-2.3025,-2.3057,-2.3057,-2.2913,-2.2596,0.0,0.0,0.0,0.0,0.0,0.0,0.0,0.0,0.0,0.0,0.0,0.0,0.0,0.0,0.0,0.0,0.0,0.0,0.0,0.0,0.0,0.0,0.0,0.0,0.0,0.0,0.0,0.0,0.0,0.0,0.0,0.0,0.0,0.0,0.0,0.0,0.0,0.0,-1.9581,-1.948,0.0,0.0,0.0,0.0,0.0,0.0,0.0,0.0,-1.7661,0.0,0.0,0.0,0.0,0.0,0.0,0.0,0.0,0.0,0.0,0.0,0.0,0.0,0.0,0.0,0.0,0.0,0.0,0.0,0.0,0.0,0.0,0.0,0.0,0.0,0.0,0.0,0.0,0.0,0.0,0.0,0.0,0.0,0.0,0.0,0.0,0.0,0.0,0.0,0.0,0.0,0.0,0.0,0.0,0.0,0.0,0.0,0.0,0.0,0.0,0.0,0.0,0.0,0.0,0.0,0.0,-2.2167,-2.2561,-2.2683,-2.252,-2.252,-2.264,-2.2838,-2.286,-2.2896,-2.2974,0.0,0.0,0.0,0.0,0.0,0.0,0.0,0.0,0.0,0.0,0.0,0.0,0.0,0.0,0.0,0.0,0.0,0.0,0.0,0.0,0.0,0.0,0.0,0.0,0.0,0.0,0.0,0.0,0.0,0.0,0.0,0.0,0.0,0.0,0.0,0.0,0.0,0.0,0.0,-1.8964,-1.8833,0.0,0.0,0.0,0.0,0.0,0.0,0.0,0.0,-1.687,0.0,0.0,0.0,0.0,0.0,0.0,0.0,0.0,0.0,0.0,0.0,0.0,0.0,0.0,0.0,0.0,0.0,0.0,0.0,0.0,0.0,0.0,0.0,0.0,0.0,0.0,0.0,0.0,0.0,0.0,0.0,0.0,0.0,0.0,0.0,0.0,0.0,0.0,0.0,0.0,0.0,0.0,0.0,0.0,0.0,0.0,0.0,0.0,0.0,0.0,0.0,0.0,0.0,0.0,0.0,-2.1783,-2.2058,-2.2154,-2.2043,-2.2176,-2.2318,-2.2451,-2.2662,-2.2772,0.0,0.0,0.0,0.0,0.0,0.0,0.0,0.0,0.0,0.0,0.0,0.0,0.0,0.0,0.0,0.0,0.0,0.0,0.0,0.0,0.0,0.0,0.0,0.0,0.0,0.0,0.0,0.0,0.0,0.0,0.0,0.0,0.0,0.0,0.0,0.0,0.0,0.0,0.0,0.0,-1.8785,-1.8676,-1.8599,0.0,0.0,0.0,0.0,0.0,0.0,-1.674,-1.6523,0.0,0.0,0.0,0.0,0.0,0.0,0.0,0.0,0.0,0.0,0.0,0.0,0.0,0.0,0.0,0.0,0.0,0.0,0.0,0.0,0.0,0.0,0.0,0.0,0.0,0.0,0.0,0.0,0.0,0.0,0.0,0.0,0.0,0.0,0.0,0.0,0.0,0.0,0.0,0.0,0.0,0.0,0.0,0.0,0.0,0.0,0.0,0.0,0.0,0.0,0.0,0.0,0.0,0.0,0.0,-2.1311,-2.1411,-2.1454,-2.1419,-2.1674,-2.182,-2.1887,-2.2287,-2.2463,0.0,0.0,0.0,0.0,0.0,0.0,0.0,0.0,0.0,0.0,0.0,0.0,0.0,0.0,0.0,0.0,0.0,0.0,0.0,0.0,0.0,0.0,0.0,0.0,0.0,0.0,0.0,0.0,0.0,0.0,0.0,0.0,0.0,0.0,0.0,0.0,0.0,0.0,0.0,0.0,0.0,-1.8487,-1.8219,-1.8134,0.0,0.0,0.0,0.0,-1.6494,-1.6497,0.0,0.0,0.0,0.0,0.0,0.0,0.0,0.0,0.0,0.0,0.0,0.0,0.0,0.0,0.0,0.0,0.0,0.0,0.0,0.0,0.0,0.0,0.0,0.0,0.0,0.0,0.0,0.0,0.0,0.0,0.0,0.0,0.0,0.0,0.0,0.0,0.0,0.0,0.0,0.0,0.0,0.0,0.0,0.0,0.0,0.0,0.0,0.0,0.0,0.0,0.0,0.0,0.0,0.0,0.0,0.0,-2.1051,-2.0836,-2.0659,-2.0496,-2.0722,-2.0947,-2.1132,-2.1405,-2.175,0.0,0.0,0.0,0.0,0.0,0.0,0.0,0.0,0.0,0.0,0.0,0.0,0.0,0.0,0.0,0.0,0.0,0.0,0.0,0.0,0.0,0.0,0.0,0.0,0.0,0.0,0.0,0.0,0.0,0.0,0.0,0.0,0.0,0.0,0.0,0.0,0.0,0.0,0.0,0.0,0.0,-1.7965,-1.84,-1.7849,-1.7369,0.0,0.0,-1.6643,-1.6579,-1.6386,0.0,0.0,0.0,0.0,0.0,0.0,0.0,0.0,0.0,0.0,0.0,0.0,0.0,0.0,0.0,0.0,0.0,0.0,0.0,0.0,0.0,0.0,0.0,0.0,0.0,0.0,0.0,0.0,0.0,0.0,0.0,0.0,0.0,0.0,0.0,0.0,0.0,0.0,0.0,0.0,0.0,0.0,0.0,0.0,0.0,0.0,0.0,0.0,0.0,0.0,0.0,0.0,0.0,0.0,0.0,-1.9778,-1.9962,-1.9706,-1.9523,-1.9463,-1.9851,-2.0116,-2.0207,-2.069,-2.0983,0.0,0.0,0.0,0.0,0.0,0.0,0.0,0.0,0.0,0.0,0.0,0.0,0.0,0.0,0.0,0.0,0.0,0.0,0.0,0.0,0.0,0.0,0.0,0.0,0.0,0.0,0.0,0.0,0.0,0.0,0.0,0.0,0.0,0.0,0.0,0.0,0.0,0.0,0.0,0.0,0.0,0.0,-1.7748,-1.7309,0.0,0.0,0.0,-1.6336,-1.6157,0.0,0.0,0.0,0.0,0.0,0.0,0.0,0.0,0.0,0.0,0.0,0.0,0.0,0.0,0.0,0.0,0.0,0.0,0.0,0.0,0.0,0.0,0.0,0.0,0.0,0.0,0.0,0.0,0.0,0.0,0.0,0.0,0.0,0.0,0.0,0.0,0.0,0.0,0.0,0.0,0.0,0.0,0.0,0.0,0.0,0.0,0.0,0.0,0.0,0.0,0.0,0.0,0.0,0.0,0.0,0.0,0.0,-1.8996,-1.8758,-1.862,-1.8643,-1.9073,-1.9317,-1.9317,-1.9866,0.0,0.0,0.0,0.0,0.0,0.0,0.0,0.0,0.0,0.0,0.0,0.0,0.0,0.0,0.0,0.0,0.0,0.0,0.0,0.0,0.0,0.0,0.0,0.0,0.0,0.0,0.0,-1.6566,0.0,0.0,0.0,0.0,0.0,0.0,0.0,0.0,0.0,0.0,0.0,0.0,0.0,0.0,-1.6741,-1.7066,-1.6746,-1.6423,0.0,0.0,-1.6028,-1.5832,-1.5801,-1.5735,0.0,0.0,0.0,0.0,0.0,0.0,0.0,0.0,0.0,0.0,0.0,0.0,0.0,0.0,0.0,0.0,0.0,0.0,0.0,0.0,0.0,0.0,0.0,0.0,0.0,0.0,0.0,0.0,0.0,0.0,0.0,0.0,0.0,0.0,0.0,0.0,0.0,0.0,0.0,0.0,0.0,0.0,0.0,0.0,0.0,0.0,0.0,0.0,0.0,0.0,0.0,0.0,0.0,0.0,0.0,-1.8535,-1.8288,-1.8133,-1.8156,-1.8427,-1.8589,-1.8589,-1.8796,-1.9027,0.0,0.0,0.0,0.0,0.0,0.0,0.0,0.0,0.0,0.0,0.0,0.0,0.0,0.0,0.0,0.0,0.0,0.0,0.0,0.0,0.0,0.0,0.0,0.0,0.0,0.0,0.0,0.0,0.0,0.0,0.0,0.0,0.0,0.0,0.0,0.0,0.0,0.0,0.0,0.0,0.0,-1.6487,-1.6603,-1.6407,-1.6218,0.0,0.0,-1.5825,-1.5801,-1.5801,-1.5801,-1.5775,0.0,0.0,0.0,0.0,0.0,0.0,0.0,0.0,0.0,0.0,0.0,0.0,0.0,0.0,0.0,0.0,0.0,0.0,0.0,0.0,0.0,0.0,0.0,0.0,0.0,0.0,0.0,0.0,0.0,0.0,0.0,0.0,0.0,0.0,0.0,0.0,0.0,0.0,0.0,0.0,0.0,0.0,0.0,0.0,0.0,0.0,0.0,0.0,0.0,0.0,0.0,0.0,0.0,-1.7606,-1.7326,-1.7223,-1.7176,-1.7192,-1.7434,-1.7644,-1.7746,-1.7986,-1.8156,0.0,0.0,0.0,0.0,0.0,0.0,0.0,0.0,0.0,0.0,0.0,0.0,0.0,0.0,0.0,0.0,0.0,0.0,0.0,0.0,0.0,0.0,0.0,0.0,0.0,0.0,0.0,0.0,-1.6267,-1.6282,-1.6102,0.0,0.0,0.0,0.0,0.0,0.0,0.0,0.0,0.0,0.0,-1.6061,-1.6318,-1.6116,0.0,0.0,-1.5879,-1.5801,-1.5801,-1.5801,-1.5801,-1.5801,-1.5498,0.0,0.0,0.0,0.0,0.0,0.0,0.0,0.0,0.0,0.0,0.0,0.0,0.0,0.0,0.0,0.0,0.0,0.0,0.0,0.0,0.0,0.0,0.0,0.0,0.0,0.0,0.0,0.0,0.0,0.0,0.0,0.0,0.0,0.0,0.0,0.0,0.0,0.0,0.0,0.0,0.0,0.0,0.0,0.0,0.0,0.0,0.0,0.0,0.0,0.0,0.0,0.0,-1.722,-1.6861,-1.6861,-1.6868,-1.6861,-1.706,-1.7154,-1.7219,-1.7385,-1.7443,0.0,0.0,0.0,0.0,0.0,0.0,0.0,0.0,0.0,0.0,0.0,0.0,0.0,0.0,0.0,0.0,0.0,0.0,0.0,0.0,0.0,0.0,0.0,0.0,0.0,0.0,0.0,0.0,-1.6076,-1.6031,-1.5909,0.0,0.0,0.0,0.0,0.0,0.0,0.0,0.0,0.0,0.0,-1.5815,-1.6042,-1.5927,-1.5801,-1.5801,-1.5801,-1.5801,-1.5801,-1.5801,-1.5801,-1.5801,0.0,0.0,0.0,0.0,0.0,0.0,0.0,0.0,0.0,0.0,0.0,0.0,0.0,0.0,0.0,0.0,0.0,0.0,0.0,0.0,0.0,0.0,0.0,0.0,0.0,0.0,0.0,0.0,0.0,0.0,-2.1641,0.0,0.0,0.0,0.0,0.0,0.0,0.0,0.0,0.0,0.0,0.0,0.0,0.0,0.0,0.0,0.0,0.0,0.0,0.0,0.0,0.0,0.0,-1.747,-1.7484,-1.7439,-1.747,-1.7446,-1.7477,-1.733,-1.705,-1.7005,-1.6896,-1.665,0.0,0.0,0.0,0.0,0.0,0.0,0.0,0.0,0.0,0.0,0.0,0.0,0.0,0.0,0.0,0.0,0.0,0.0,0.0,0.0,0.0,0.0,0.0,0.0,0.0,0.0,-1.5808,-1.5825,-1.5718,0.0,0.0,0.0,0.0,0.0,0.0,0.0,0.0,0.0,0.0,-1.5738,-1.5801,-1.5821,-1.5808,-1.5811,-1.5798,-1.5821,-1.5815,-1.5804,-1.5815,-1.5801,0.0,0.0,0.0,0.0,0.0,0.0,0.0,0.0,0.0,0.0,0.0,0.0,0.0,0.0,0.0,0.0,0.0,0.0,0.0,0.0,0.0,0.0,0.0,0.0,0.0,0.0,0.0,-2.2259,-2.2075,0.0,0.0,0.0,0.0,0.0,0.0,0.0,0.0,0.0,0.0,0.0,-1.9101,-1.8919,0.0,0.0,0.0,0.0,0.0,0.0,0.0,0.0,0.0,0.0,0.0,0.0,-1.7164,-1.6982,-1.6975,-1.6957,-1.6982,-1.6982,-1.6984,-1.7069,-1.7062,-1.7016,-1.6872,0.0,0.0,0.0,0.0,0.0,0.0,0.0,0.0,0.0,0.0,0.0,0.0,0.0,0.0,0.0,0.0,0.0,0.0,0.0,0.0,0.0,0.0,0.0,0.0,0.0,-1.5761,0.0,0.0,0.0,0.0,0.0,0.0,0.0,0.0,0.0,0.0,0.0,-1.564,-1.5802,-1.6013,-1.6149,-1.6124,-1.5976,-1.5871,0.0,0.0,0.0,0.0,0.0,0.0,0.0,0.0,0.0,0.0,0.0,0.0,0.0,0.0,-1.5395,-1.4854,-1.4732,-1.4694,-1.4514,0.0,0.0,0.0,0.0,0.0,0.0,0.0,0.0,0.0,0.0,0.0,0.0,0.0,0.0,-2.1707,0.0,-2.0933,0.0,0.0,0.0,0.0,0.0,0.0,0.0,0.0,-1.884,-1.8678,-1.8403,-1.8298,-1.8272,0.0,-1.816,-1.7934,0.0,0.0,0.0,0.0,0.0,0.0,0.0,0.0,-1.7167,-1.7014,-1.7014,-1.7014,-1.7014,-1.7007,-1.7044,-1.7126,-1.7025,-1.6943,-1.6886,-1.677,-1.6682,0.0,0.0,0.0,0.0,0.0,0.0,0.0,0.0,0.0,0.0,0.0,0.0,0.0,0.0,0.0,0.0,0.0,0.0,0.0,0.0,0.0,0.0,0.0,-1.5499,0.0,0.0,0.0,0.0,0.0,0.0,0.0,0.0,0.0,-1.5152,-1.5449,-1.5719,-1.5876,-1.5939,-1.5979,-1.5979,0.0,0.0,0.0,0.0,0.0,0.0,0.0,-1.5777,-1.596,-1.613,-1.6199,-1.601,-1.5853,-1.5695,-1.5601,0.0,0.0,-1.5115,-1.4944,-1.4803,-1.4651,-1.454,-1.447,-1.4499,-1.447,-1.4476,0.0,0.0,0.0,0.0,0.0,0.0,0.0,0.0,-2.1221,-2.0902,0.0,-2.0314,0.0,0.0,0.0,0.0,0.0,-1.927,0.0,0.0,-1.8878,-1.8718,-1.8393,-1.8123,-1.8011,-1.7984,-1.7727,-1.7602,-1.7595,-1.7845,0.0,0.0,0.0,0.0,0.0,0.0,-1.7615,-1.7595,-1.7595,-1.7575,-1.7602,-1.7602,-1.7468,-1.7219,-1.6919,-1.674,-1.672,-1.672,-1.6714,-1.67,-1.6693,0.0,0.0,0.0,0.0,0.0,0.0,0.0,0.0,0.0,0.0,0.0,0.0,0.0,0.0,0.0,0.0,0.0,0.0,0.0,0.0,-1.5233,0.0,0.0,0.0,0.0,0.0,0.0,0.0,0.0,0.0,0.0,-1.5245,-1.5632,-1.5865,-1.584,0.0,0.0,0.0,0.0,-1.49,-1.4677,-1.4608,-1.4602,-1.4602,-1.4597,-1.4789,-1.529,0.0,0.0,-1.5385,-1.5385,-1.5277,-1.5023,-1.4971,-1.517,-1.5695,-1.5469,-1.5274,-1.5261,-1.5016,-1.4925,-1.4931,-1.4785,-1.484,-2.3472,0.0,0.0,0.0,0.0,-2.1762,-2.1341,-2.1256,-2.0741,-2.0458,-2.0359,-2.0054,0.0,0.0,0.0,0.0,0.0,0.0,-1.8685,-1.8611,-1.8604,-1.8557,-1.8469,-1.8151,-1.7996,-1.799,-1.7742,-1.7615,-1.7615,-1.7687,-1.7647,-1.7481,0.0,0.0,0.0,0.0,-1.7615,-1.7615,-1.7615,-1.7615,-1.7615,-1.7615,-1.7568,-1.7514,-1.7408,-1.726,-1.706,-1.7046,-1.6953,-1.6714,-1.6707,0.0,0.0,0.0,0.0,0.0,0.0,0.0,0.0,0.0,0.0,0.0,0.0,0.0,0.0,0.0,0.0,0.0,0.0,0.0,-1.526,-1.4973,-1.4576,0.0,0.0,0.0,0.0,0.0,0.0,0.0,0.0,0.0,-1.3863,-1.4529,-1.4979,0.0,0.0,-1.5043,-1.5048,-1.493,-1.4828,-1.474,-1.4631,0.0,-1.4526,-1.4559,-1.4654,-1.4813,-1.4971,-1.5109,-1.5109,-1.4945,-1.476,-1.4469,-1.4416,-1.4495,-1.4637,-1.4614,-1.4477,-1.4282,-1.4032,-1.3848,-1.3853,-1.3853,-1.3885,-2.215,-2.2608,-2.2369,-2.2186,-2.1974,-2.1175,-2.0831,-2.0831,-2.045,-2.0213,-2.0083,-1.9874,-1.9741,-1.962,-1.9244,0.0,0.0,0.0,-1.8778,-1.8657,-1.8664,-1.8604,-1.8484,-1.831,-1.8196,-1.8183,-1.8029,-1.797,-1.797,-1.797,-1.797,-1.7929,0.0,0.0,-1.7615,-1.7615,-1.7615,-1.7615,-1.7615,-1.7615,-1.7615,-1.7615,-1.7615,-1.7615,-1.7615,-1.7528,-1.7361,-1.7347,-1.726,-1.7061,-1.7054,-1.7001,0.0,0.0,0.0,0.0,0.0,0.0,0.0,0.0,0.0,0.0,0.0,-1.589,-1.5978,0.0,0.0,0.0,-1.5557,-1.523,-1.4647,-1.4223,0.0,0.0,0.0,0.0,0.0,0.0,0.0,-1.2487,-1.2849,-1.313,-1.3129,-1.3501,-1.3898,-1.4245,-1.4306,-1.4324,-1.4291,0.0,-1.4024,-1.3905,-1.3799,-1.3686,-1.3714,-1.3742,-1.3839,-1.4097,-1.4367,-1.4471,-1.4372,-1.4229,-1.4037,-1.3789,-1.3706,-1.3706,-1.3733,-1.3639,-1.3572,-1.3577,-1.3278,-1.3016,-1.3016,-1.2989,-1.2989,-2.0694,-2.0694,-2.0996,-2.1096,-2.1067,-2.0507,-2.0277,-2.027,-2.0213,-2.0046,-1.9786,-1.9758,-1.9649,-1.9395,-1.9395,0.0,-1.9395,-1.9395,-1.9212,-1.8936,-1.893,-1.8818,-1.8571,-1.8537,-1.8524,-1.8524,-1.8504,-1.8497,-1.8484,-1.849,-1.8497,-1.8477,-1.7956,-1.7642,-1.7622,-1.7622,-1.7648,-1.7622,-1.7622,-1.7635,-1.7682,-1.7682,-1.7689,-1.7689,-1.7629,-1.7648,-1.7622,-1.7622,-1.7615,-1.7615,-1.7615,-1.7488,-1.7253,0.0,0.0,0.0,0.0,0.0,0.0,0.0,0.0,0.0,0.0,0.0,0.0,0.0,0.0,0.0,-1.4597,0.0,-1.3759,-1.3183,0.0,0.0,0.0,-1.2053,-1.1989,-1.1801,-1.1829,-1.2169,0.0,0.0,-1.2746,-1.2553,-1.2672,-1.346,-1.3427,-1.3312,-1.3284,-1.3107,-1.2825,-1.2556,-1.2433,-1.242,-1.2477,-1.2474,-1.2704,-1.3245,-1.353,-1.3591,-1.3402,-1.335,-1.3222,-1.2941,-1.2884,-1.2846,-1.2855,-1.2552,-1.2512,-1.2961,-1.2652,-1.2352,-1.2352,-1.2352,-1.2352,-2.0385,-2.0385,-2.022,-2.0277,-2.0472,-2.0097,-1.9931,-1.9895,-1.97,-1.9562,-1.9511,-1.9511,-1.9453,-1.9395,-1.9395,-1.9395,-1.9395,-1.9395,-1.9361,-1.9265,-1.9294,-1.9225,-1.918,-1.8925,-1.879,-1.8783,-1.8597,-1.8497,-1.8497,-1.8497,-1.8497,-1.8484,-1.8371,-1.8163,-1.7922,-1.7909,-1.7882,-1.7909,-1.7909,-1.8022,-1.8291,-1.8277,-1.8277,-1.827,-1.8056,-1.7882,-1.7909,-1.7702,-1.7615,-1.7615,-1.7615,-1.7582,-1.7501,-1.7326,0.0,0.0,0.0,0.0,0.0,0.0,0.0,0.0,0.0,-1.5545,-1.5613,0.0,-1.5106,0.0,-1.4006,-1.3428,-1.3226,-1.2654,0.0,0.0,-1.1697,-1.1509,-1.1028,-1.1263,-1.13,-1.0842,-1.1105,-1.1279,-1.113,-1.1159,-1.1268,-1.1499,-1.2157,-1.2548,-1.2309,-1.2348,-1.2281,-1.2026,-1.1803,-1.1666,-1.1682,-1.174,-1.2038,-1.2631,-1.2769,-1.2793,-1.2717,-1.2712,-1.2541,-1.2049,-1.1939,-1.1852,-1.1631,-1.1331,-1.12,-1.131,-1.1549,-1.1776,-1.1805,-1.1772,-1.1772,-2.0271,-2.0228,-1.9929,-1.9897,-2.0036,-1.9768,-1.962,-1.962,-1.9482,-1.9395,-1.9395,-1.9395,-1.9395,-1.9395,-1.9395,-1.9395,-1.9395,-1.9395,-1.9395,-1.9395,-1.9395,-1.9395,-1.9388,-1.9199,-1.9125,-1.9118,-1.8986,-1.8878,-1.8913,-1.8913,-1.8913,-1.8878,-1.8906,-1.8731,-1.8416,-1.8283,-1.8216,-1.8216,-1.8216,-1.8303,-1.8484,-1.8497,-1.8497,-1.849,-1.8303,-1.8243,-1.8216,-1.7922,-1.7789,-1.7789,-1.7655,-1.7615,-1.7608,-1.7357,-1.7036,0.0,0.0,0.0,0.0,0.0,0.0,0.0,0.0,0.0,0.0,0.0,-1.4417,-1.4092,-1.3395,-1.2889,-1.2797,-1.2124,-1.1585,-1.1293,-1.1101,-1.0877,-1.0495,-1.0738,-1.0775,-1.0452,-1.0612,-1.0725,-1.0651,-1.0703,-1.0793,-1.0789,-1.1311,-1.1614,-1.1469,-1.1485,-1.1514,-1.1356,-1.1221,-1.1133,-1.1133,-1.1199,-1.1367,-1.1661,-1.1749,-1.1749,-1.1753,-1.172,-1.1632,-1.1308,-1.1224,-1.1191,-1.0989,-1.0871,-1.0753,-1.0782,-1.0871,-1.0989,-1.1025,-1.1018,-1.1022,-2.0204,-2.0177,-1.993,-1.986,-1.9833,-1.9586,-1.9461,-1.9395,-1.9395,-1.9395,-1.9395,-1.9395,-1.9395,-1.9395,-1.9395,-1.9395,-1.9395,-1.9395,-1.9395,-1.9395,-1.9395,-1.9395,-1.9395,-1.9395,-1.9395,-1.9395,-1.9395,-1.9395,-1.9395,-1.9395,-1.9366,-1.933,-1.9336,-1.9174,-1.8842,-1.8612,-1.85,-1.8544,-1.8612,-1.8604,-1.8604,-1.8604,-1.8604,-1.8604,-1.8564,-1.8544,-1.8537,-1.8236,-1.8069,-1.8069,-1.7816,-1.7642,-1.7563,-1.7337,-1.7011,0.0,-1.6558,0.0,0.0,0.0,0.0,0.0,0.0,0.0,0.0,-1.4207,-1.362,-1.3217,-1.266,-1.2316,-1.2283,-1.1569,-1.1076,-1.108,-1.0618,-1.0279,-1.0273,-1.0247,-1.031,-1.0384,-1.0406,-1.0491,-1.0612,-1.0668,-1.0668,-1.0637,-1.0664,-1.071,-1.0664,-1.0725,-1.0759,-1.0668,-1.0668,-1.0646,-1.0714,-1.0747,-1.0767,-1.0808,-1.0887,-1.0793,-1.0861,-1.0865,-1.0812,-1.0747,-1.0733,-1.0714,-1.0694,-1.0657,-1.063,-1.0612,-1.043,-1.0291,-1.034,-1.0394,-1.0306,-2.0204,-2.0197,-2.0144,-2.0117,-2.0117,-2.0057,-1.98,-1.9395,-1.9395,-1.9395,-1.9395,-1.9395,-1.9395,-1.9395,-1.9395,-1.9395,-1.9395,-1.9395,-1.9395,-1.9395,-1.9395,-1.9395,-1.9395,-1.9395,-1.9395,-1.9395,-1.9395,-1.9395,-1.9395,-1.9395,-1.9272,-1.9004,-1.8997,-1.8832,-1.8513,0.0,0.0,0.0,-1.9072,-1.9227,-1.9227,-1.9227,-1.9227,-1.9221,-1.8965,0.0,-1.8803,-1.8564,-1.841,-1.8404,-1.8089,0.0,0.0,0.0,0.0,0.0,0.0,0.0,0.0,0.0,0.0,0.0,-1.371,-1.3604,-1.4043,-1.332,-1.2528,-1.1992,-1.1623,-1.1339,-1.1076,-1.0705,-1.0474,-1.0474,-1.0362,-1.0237,-1.0071,-1.0063,-1.0035,-0.9942,-0.9929,-0.9939,-0.9994,-0.9974,-1.0001,-1.0031,-1.0004,-0.997,-1.0001,-1.0243,-1.0274,-1.0061,-1.0035,-1.0122,-1.0365,-1.0395,-1.0486,-1.0698,-1.0793,-1.0789,-1.0759,-1.0789,-1.0668,-1.0456,-1.0395,-1.0304,-1.0061,-1.0004,-1.0031,-1.0004,-0.994,-0.9987,-1.0229,-1.0305,-1.0305,-2.063,0.0,-2.0508,-2.0448,0.0,-2.0264,-2.0037,-1.98,-1.9793,-1.9793,-1.98,-1.9793,-1.972,-1.9615,-1.9579,-1.9506,-1.9395,-1.9395,-1.9395,-1.9395,-1.9395,-1.9395,-1.9395,-1.9395,-1.9395,-1.9395,-1.9395,-1.9395,-1.9395,-1.9236,-1.9055,-1.8881,-1.8577,-1.8315,-1.8146,-1.8012,-1.8177,-1.8644,-1.8816,-1.8923,-1.8923,-1.8923,-1.8923,-1.8917,-1.8757,0.0,0.0,0.0,0.0,0.0,0.0,0.0,0.0,0.0,0.0,-1.5062,-1.4977,-1.4703,-1.4134,-1.3877,-1.3625,-1.3338,-1.2601,-1.2331,-1.2704,-1.2115,-1.1595,-1.1236,-1.1071,-1.0923,-1.0776,-1.048,-1.0306,-1.0306,-1.0128,-1.0016,-0.9936,-0.989,-0.9861,-0.9802,-0.9788,-0.9788,-0.9788,-0.9788,-0.9788,-0.9788,-0.9788,-0.9788,-0.9822,-0.9943,-0.9974,-0.9822,-0.9788,-0.9852,-1.0004,-1.0061,-1.0092,-1.0274,-1.0304,-1.0304,-1.0304,-1.0308,-1.0243,-1.0095,-1.0061,-0.997,-0.9849,-0.9788,-0.9788,-0.9788,-0.9788,-0.9822,-1.0035,-1.0061,-1.0061,-2.1102,-2.1082,-2.0855,-2.0786,-2.0728,-2.0464,-2.0357,-2.035,0.0,0.0,0.0,-2.0204,-2.007,-1.988,-1.9873,-1.9746,-1.9555,-1.9519,-1.9519,-1.9548,-1.9548,-1.9548,-1.9548,-1.9548,-1.9548,-1.9548,-1.9548,-1.9519,-1.9461,-1.9184,-1.8943,-1.8737,-1.8231,-1.7842,-1.7694,-1.741,-1.7499,-1.7995,-1.8173,-1.824,-1.824,-1.8246,-1.824,-1.824,-1.824,-1.824,-1.824,-1.8026,-1.7756,-1.7422,-1.7134,-1.668,-1.5966,-1.5648,-1.5107,-1.4203,-1.3989,-1.3688,-1.3155,-1.2955,-1.2719,-1.2389,-1.1605,-1.1184,-1.1375,-1.113,-1.0886,-1.0747,-1.0698,-1.0698,-1.0637,-1.0395,-1.0213,-1.0213,-0.9974,-0.9815,-0.9788,-0.9788,-0.9815,-0.9788,-0.9788,-0.9788,-0.9788,-0.9788,-0.9788,-0.9788,-0.9788,-0.9788,-0.9788,-0.9822,-0.9822,-0.9788,-0.9788,-0.9788,-0.9819,-0.9819,-0.9788,-0.9849,-0.9819,-0.9788,-0.9788,-0.9788,-0.9788,-0.9822,-0.9788,-0.9819,-0.9788,-0.9788,-0.9788,-0.9788,-0.9788,-0.9788,-0.9788,-0.9788,-0.9819,-2.1102,-2.1102,-2.1062,-2.1049,-2.1049,-2.0977,-2.0989,-2.0942,-2.0424,-2.0204,-2.0204,-2.0204,-2.0184,-2.0144,-2.0137,-2.0124,-2.0114,-2.0114,-2.0107,-2.0077,-2.0077,-2.0077,-2.0084,-2.0084,-2.0084,-2.0084,-2.0114,-1.9926,-1.9661,-1.96,-1.917,-1.8404,-1.8197,-1.7697,-1.6901,-1.6538,-1.642,-1.6532,-1.7232,-1.7625,-1.7631,-1.7625,-1.7631,-1.7625,-1.7638,-1.7625,-1.7625,-1.7595,-1.7418,-1.7085,-1.6768,-1.6194,-1.5312,-1.4942,-1.4326,-1.3445,-1.3085,-1.2765,-1.2376,-1.189,-1.1424,-1.1091,-1.0668,-1.0566,-1.0846,-1.0846,-1.0706,-1.0395,-1.0365,-1.0243,-0.997,-0.9913,-0.9879,-0.9879,-0.9852,-0.9788,-0.9788,-0.9788,-0.9788,-0.9788,-0.9788,-0.9788,-0.9788,-0.9788,-0.9788,-0.9788,-0.9805,-0.9798,-0.9819,-0.9788,-0.9788,-0.9788,-0.9788,-0.9788,-0.9822,-0.9792,-0.9815,-0.9788,-0.9812,-0.9829,-0.9829,-0.9829,-0.9829,-0.9832,-0.9822,-0.9846,-0.9812,-0.9788,-0.9819,-0.9825,-0.9822,-0.9805,-0.9805,-0.9802,-0.9792,-2.1102,-2.1102,-2.1102,-2.1102,-2.1102,-2.1102,-2.1102,-2.1089,-2.0797,-2.067,-2.0677,-2.0677,-2.059,-2.0481,-2.0474,-2.0357,-2.0204,-2.0204,-2.0204,-2.0204,-2.0204,-2.0204,-2.0204,-2.0204,-2.0204,-2.0204,-2.0204,-2.0022,-1.9694,-1.9352,-1.8833,-1.8159,-1.7291,-1.6425,-1.5644,-1.5276,-1.512,-1.5141,-1.6239,-1.6797,-1.6797,-1.6797,-1.6797,-1.6791,-1.6697,-1.6648,-1.6618,-1.6523,-1.6236,-1.5717,-1.555,-1.5046,-1.4127,-1.3769,-1.3225,-1.2509,-1.2118,-1.1786,-1.1484,-1.1031,-1.0698,-1.0516,-1.0213,-1.0095,-1.0243,-1.0247,-1.0217,-1.0031,-1.0031,-0.9974,-0.9822,-0.9788,-0.9788,-0.9788,-0.9788,-0.9788,-0.9788,-0.9788,-0.9788,-0.9788,-0.9788,-0.9788,-0.9788,-0.9788,-0.9788,-0.9795,-0.9849,-0.9937,-1.0049,-1.0063,-1.0036,-0.9937,-0.9917,-0.9957,-1.0046,-1.007,-1.007,-1.007,-1.007,-1.007,-1.0073,-1.0066,-1.0066,-1.007,-1.0066,-1.007,-1.0063,-1.0073,-1.007,-1.0063,-0.9961,-0.9923,-0.991,-0.9852,-0.9792,-2.1102,-2.1102,-2.1102,-2.1102,-2.1102,-2.1102,-2.1102,-2.1102,-2.1102,-2.1102,-2.1102,-2.1102,-2.0989,-2.0813,-2.0775,-2.0648,-2.0424,-2.0397,-2.0404,-2.0397,-2.0404,-2.0404,-2.0397,-2.0404,-2.0404,-2.0397,-2.0342,-2.0128,-1.9759,-1.9106,-1.8456,-1.7737,-1.627,-1.5238,-1.4639,-1.4223,-1.4033,-1.4097,-1.4976,-1.5528,-1.5748,-1.5742,-1.5748,-1.5732,-1.5602,-1.5503,-1.5487,-1.5366,-1.5027,-1.4445,-1.4324,-1.3872,-1.3068,-1.2669,-1.2243,-1.1695,-1.1363,-1.1054,-1.0686,-1.0476,-1.0322,-1.0292,-1.0077,-0.9924,-0.9893,-0.9924,-0.989,-0.9805,-0.9819,-0.9819,-0.9788,-0.9788,-0.9788,-0.9788,-0.9788,-0.9788,-0.9788,-0.9788,-0.9788,-0.9788,-0.9822,-0.9846,-0.9849,-0.9903,-0.9937,-0.993,-0.9998,-1.012,-1.0288,-1.0312,-1.0232,-1.0147,-1.0092,-1.0106,-1.0291,-1.0301,-1.0295,-1.0312,-1.0301,-1.0284,-1.0288,-1.0301,-1.0305,-1.0288,-1.0295,-1.0284,-1.0301,-1.0301,-1.0291,-1.0271,-1.0164,-1.0072,-1.0065,-0.9991,-0.9866,-2.1102,-2.1102,-2.1102,-2.1102,-2.1102,-2.1102,-2.1102,-2.1102,-2.1102,-2.1102,-2.1102,-2.1102,-2.1096,-2.1069,-2.1056,-2.0997,-2.0995,-2.1022,-2.1009,-2.0971,-2.0997,-2.1029,-2.0995,-2.1009,-2.1029,-2.0977,-2.0687,-2.0384,-2.0011,-1.9319,-1.8215,-1.6706,-1.5519,-1.479,-1.4372,-1.3781,-1.3454,-1.3458,-1.3225,-1.3513,-1.4331,-1.4401,-1.4396,-1.4401,-1.4382,-1.4368,-1.4368,-1.4349,-1.4148,-1.3805,-1.3479,-1.3054,-1.2432,-1.1996,-1.1618,-1.1299,-1.0987,-1.071,-1.0391,-1.0302,-1.032,-1.0299,-1.0285,-1.0219,-1.0257,-1.0261,-1.011,-0.991,-0.9802,-0.9815,-0.9792,-0.9805,-0.9822,-0.9863,-0.9822,-0.9788,-0.9812,-0.9788,-0.9788,-0.9792,-0.9927,-0.9967,-1.0008,-1.0127,-1.0244,-1.0212,-1.0232,-1.0276,-1.0352,-1.0359,-1.0393,-1.0399,-1.0348,-1.0312,-1.0339,-1.0315,-1.0352,-1.0339,-1.0322,-1.0346,-1.0363,-1.0352,-1.0318,-1.0397,-1.0349,-1.0356,-1.0346,-1.0315,-1.0304,-1.0369,-1.0304,-1.0256,-1.0256,-1.0254,-1.012,-2.1102,-2.1102,-2.1102,-2.1102,-2.1102,-2.1102,-2.1102,-2.1102,-2.1102,-2.1102,-2.1102,-2.1102,-2.1102,-2.1102,-2.1102,-2.1102,-2.1102,-2.1102,-2.1102,-2.1102,-2.1102,-2.1102,-2.1102,-2.1102,-2.1102,-2.1071,-2.0767,-2.0418,-1.9915,-1.879,-1.7394,-1.5959,-1.5024,-1.4244,-1.3494,-1.2997,-1.2667,-1.247,-1.2301,-1.2395,-1.2759,-1.3186,-1.3375,-1.3363,-1.3276,-1.3184,-1.3171,-1.3081,-1.2863,-1.2548,-1.2387,-1.2111,-1.1672,-1.1355,-1.1102,-1.0943,-1.0658,-1.0439,-1.0312,-1.0312,-1.0312,-1.0312,-1.0312,-1.0312,-1.0312,-1.0312,-1.0254,-1.0124,-1.0124,-1.0093,-1.009,-1.0093,-1.0093,-1.009,-1.009,-1.009,-1.0093,-1.009,-1.0093,-1.01,-1.0148,-1.0188,-1.0192,-1.0239,-1.0314,-1.0378,-1.0405,-1.0432,-1.0514,-1.0541,-1.0561,-1.0602,-1.0575,-1.0548,-1.0531,-1.0538,-1.0534,-1.0534,-1.0541,-1.0541,-1.0527,-1.0538,-1.0544,-1.0534,-1.0517,-1.0517,-1.0555,-1.0541,-1.0541,-1.0517,-1.0436,-1.0417,-1.0329,-1.0312,-1.0237,-2.1102,-2.1102,-2.1102,-2.1102,-2.1102,-2.1102,-2.1102,-2.1102,-2.1102,-2.1102,-2.1102,-2.1102,-2.1102,-2.1102,-2.1102,-2.1102,-2.1102,-2.1102,-2.1102,-2.1102,-2.1102,-2.1102,-2.1102,-2.1102,-2.1102,-2.1007,-2.0672,-2.0106,-1.9334,-1.7986,-1.6558,-1.5285,-1.4464,-1.3654,-1.2733,-1.2243,-1.1879,-1.1648,-1.1545,-1.1483,-1.1574,-1.1967,-1.2326,-1.2483,-1.2376,-1.2309,-1.2305,-1.2158,-1.1999,-1.1747,-1.1615,-1.1454,-1.1198,-1.0909,-1.0756,-1.0756,-1.0527,-1.0434,-1.0399,-1.0399,-1.0399,-1.0402,-1.0402,-1.0402,-1.0402,-1.0402,-1.0402,-1.0402,-1.0399,-1.0382,-1.0318,-1.0312,-1.0312,-1.0312,-1.0312,-1.0312,-1.0305,-1.0312,-1.0301,-1.0315,-1.0304,-1.039,-1.0424,-1.0415,-1.046,-1.0538,-1.0558,-1.0585,-1.0687,-1.0707,-1.0711,-1.0721,-1.0684,-1.0711,-1.0721,-1.0697,-1.0721,-1.0721,-1.0697,-1.0694,-1.0721,-1.0684,-1.0681,-1.0636,-1.0697,-1.0707,-1.0663,-1.069,-1.0674,-1.0697,-1.0622,-1.0517,-1.046,-1.0412,-1.0409,-2.1102,-2.1102,-2.1102,-2.1102,-2.1102,-2.1102,-2.1102,-2.1102,-2.1102,-2.1102,-2.1102,-2.1102,-2.1102,-2.1102,-2.1102,-2.1102,-2.1102,-2.1102,-2.1102,-2.1102,-2.1102,-2.1102,-2.1102,-2.1102,-2.1077,-2.1014,-2.0456,-1.9334,-1.776,-1.6926,-1.5849,-1.4502,-1.3814,-1.3087,-1.2342,-1.1644,-1.1247,-1.1214,-1.0982,-1.0787,-1.0787,-1.0817,-1.1214,-1.1776,-1.1835,-1.1824,-1.1824,-1.1824,-1.178,-1.1754,-1.1406,-1.1212,-1.1153,-1.0885,-1.0713,-1.0716,-1.0687,-1.069,-1.068,-1.0644,-1.0677,-1.0683,-1.0663,-1.0687,-1.0656,-1.0656,-1.0656,-1.0687,-1.0663,-1.0568,-1.0358,-1.0366,-1.0352,-1.0346,-1.0329,-1.0335,-1.0329,-1.0359,-1.0318,-1.0349,-1.0415,-1.0521,-1.0627,-1.0667,-1.0673,-1.0687,-1.07,-1.0674,-1.0711,-1.0721,-1.0721,-1.0721,-1.0721,-1.0721,-1.0721,-1.0721,-1.0721,-1.0721,-1.0721,-1.0721,-1.0721,-1.0717,-1.0721,-1.0721,-1.0721,-1.0721,-1.0721,-1.0717,-1.0717,-1.0714,-1.0711,-1.0646,-1.0595,-1.0666,-1.0653,-2.1102,-2.1102,-2.1102,-2.1102,-2.1102,-2.1102,-2.1102,-2.1102,-2.1102,-2.1102,-2.1102,-2.1102,-2.1102,-2.1102,-2.1102,-2.1102,-2.1102,-2.1102,-2.1102,-2.1102,-2.1102,-2.1102,-2.1102,-2.1102,-2.0989,-2.0736,-2.0297,-1.9206,-1.7561,-1.6629,-1.5583,-1.4436,-1.3453,-1.2667,-1.2011,-1.1449,-1.1085,-1.0883,-1.0754,-1.0721,-1.0721,-1.0721,-1.0853,-1.1082,-1.1082,-1.1085,-1.1085,-1.1115,-1.1082,-1.1082,-1.0953,-1.0883,-1.0883,-1.0754,-1.0721,-1.0721,-1.0721,-1.0721,-1.0721,-1.0721,-1.0721,-1.0721,-1.0721,-1.0721,-1.0721,-1.0721,-1.0721,-1.0721,-1.0721,-1.0653,-1.0605,-1.0561,-1.0561,-1.0561,-1.0561,-1.0548,-1.0561,-1.0561,-1.0565,-1.0571,-1.0612,-1.0663,-1.0697,-1.0721,-1.0721,-1.0721,-1.0721,-1.0721,-1.0721,-1.0721,-1.0721,-1.0721,-1.0721,-1.0721,-1.0721,-1.0721,-1.0721,-1.0721,-1.0721,-1.0721,-1.0721,-1.0721,-1.0721,-1.0721,-1.0721,-1.0721,-1.0721,-1.0721,-1.0721,-1.0721,-1.0721,-1.0721,-1.0717,-1.0721,-1.0721,-2.1102,-2.1102,-2.1102,-2.1102,-2.1102,-2.1102,-2.1102,-2.1102,-2.1102,-2.1102,-2.1102,-2.1102,-2.1102,-2.1102,-2.1102,-2.1102,-2.1102,-2.1102,-2.1102,-2.1102,-2.1102,-2.1102,-2.1102,-2.1102,-2.0919,-2.0513,-1.9915,-1.8822,-1.74,-1.6429,-1.5383,-1.4207,-1.3256,-1.2466,-1.181,-1.1317,-1.0886,-1.0754,-1.0721,-1.0721,-1.0721,-1.0721,-1.0721,-1.0721,-1.0721,-1.0721,-1.0721,-1.0721,-1.0721,-1.0721,-1.0721,-1.0721,-1.0721,-1.0721,-1.0721,-1.0721,-1.0721,-1.0721,-1.0721,-1.0721,-1.0721,-1.0721,-1.0721,-1.0721,-1.0721,-1.0721,-1.0721,-1.0721,-1.0721,-1.0721,-1.0721,-1.0714,-1.0721,-1.0721,-1.0721,-1.0721,-1.0721,-1.0714,-1.0711,-1.0704,-1.0704,-1.0714,-1.0721,-1.0721,-1.0721,-1.0721,-1.0721,-1.0721,-1.0721,-1.0721,-1.0721,-1.0721,-1.0721,-1.0721,-1.0721,-1.0721,-1.0721,-1.0721,-1.0721,-1.0721,-1.0721,-1.0721,-1.0721,-1.0721,-1.0721,-1.0721,-1.0721,-1.0721,-1.0721,-1.0721,-1.0721,-1.0721,-1.0721,-1.0721,-1.0721,-2.1116,-2.1129,-2.1077,-2.1102,-2.1102,-2.1102,-2.1102,-2.1102,-2.1102,-2.1102,-2.1102,-2.1102,-2.1102,-2.1102,-2.1102,-2.1102,-2.1102,-2.1102,-2.1102,-2.1102,-2.1102,-2.1102,-2.1102,-2.1077,-2.0887,-2.0482,-1.927,-1.8115,-1.7098,-1.6294,-1.5285,-1.4034,-1.3214,-1.2466,-1.1817,-1.1152,-1.0754,-1.0721,-1.0721,-1.0721,-1.0721,-1.0721,-1.0721,-1.0721,-1.0721,-1.0721,-1.0721,-1.0721,-1.0721,-1.0721,-1.0721,-1.0721,-1.0721,-1.0721,-1.0721,-1.0721,-1.0721,-1.0721,-1.0721,-1.0721,-1.0721,-1.0721,-1.0721,-1.0721,-1.0721,-1.0721,-1.0721,-1.0721,-1.0721,-1.0721,-1.0721,-1.0721,-1.0721,-1.0721,-1.0721,-1.0721,-1.0721,-1.0721,-1.0721,-1.0721,-1.0721,-1.0721,-1.0721,-1.0721,-1.0721,-1.0721,-1.0721,-1.0721,-1.0721,-1.0721,-1.0721,-1.0721,-1.0721,-1.0721,-1.0721,-1.0721,-1.0721,-1.0721,-1.0721,-1.0721,-1.0721,-1.0721,-1.0721,-1.0721,-1.0721,-1.0721,-1.0721,-1.0721,-1.0721,-1.0721,-1.0721,-1.0721,-1.0721,-1.0721,-1.0721,-2.1448,-2.1415,-2.1196,-2.1102,-2.1102,-2.1102,-2.1102,-2.1102,-2.1102,-2.1102,-2.1102,-2.1102,-2.1102,-2.1102,-2.1102,-2.1102,-2.1102,-2.1102,-2.1102,-2.1102,-2.1102,-2.1102,-2.1071,-2.1071,-2.0792,-2.017,-1.9148,-1.8185,-1.7271,-1.6229,-1.515,-1.424,-1.3293,-1.247,-1.181,-1.1284,-1.0953,-1.0721,-1.0721,-1.0721,-1.0721,-1.0721,-1.0721,-1.0721,-1.0721,-1.0721,-1.0721,-1.0721,-1.0721,-1.0721,-1.0721,-1.0721,-1.0721,-1.0721,-1.0721,-1.0721,-1.0721,-1.0721,-1.0721,-1.0721,-1.0721,-1.0721,-1.0721,-1.0721,-1.0721,-1.0721,-1.0721,-1.0721,-1.0721,-1.0721,-1.0721,-1.0721,-1.0721,-1.0721,-1.0721,-1.0721,-1.0721,-1.0721,-1.0721,-1.0721,-1.0721,-1.0721,-1.0721,-1.0721,-1.0721,-1.0721,-1.0721,-1.0721,-1.0721,-1.0721,-1.0721,-1.0721,-1.0721,-1.0721,-1.0721,-1.0721,-1.0721,-1.0721,-1.0721,-1.0721,-1.0721,-1.0721,-1.0721,-1.0721,-1.0721,-1.0721,-1.0721,-1.0721,-1.0721,-1.0721,-1.0721,-1.0721,-1.0721,-1.0721,-1.0721,-2.1749,-2.1716,-2.1428,-2.1276,-2.1288,-2.1162,-2.1102,-2.1102,-2.1102,-2.1102,-2.1102,-2.1102,-2.1102,-2.1102,-2.1102,-2.1102,-2.1102,-2.1102,-2.1102,-2.1102,-2.1102,-2.1102,-2.1077,-2.0951,-2.064,-2.0043,-1.9212,-1.8346,-1.7464,-1.6391,-1.5448,-1.4539,-1.3555,-1.2704,-1.2011,-1.1446,-1.1049,-1.075,-1.0721,-1.0721,-1.0721,-1.0721,-1.0721,-1.0721,-1.0721,-1.0721,-1.0721,-1.0721,-1.0721,-1.0721,-1.0721,-1.0721,-1.0721,-1.0721,-1.0721,-1.0721,-1.0721,-1.0721,-1.0721,-1.0721,-1.0721,-1.0721,-1.0721,-1.0721,-1.0721,-1.0721,-1.0721,-1.0721,-1.0721,-1.0721,-1.0721,-1.0721,-1.0721,-1.0721,-1.0721,-1.0721,-1.0721,-1.0721,-1.0721,-1.0721,-1.0721,-1.0721,-1.0721,-1.0721,-1.0721,-1.0721,-1.0721,-1.0721,-1.0721,-1.0721,-1.0721,-1.0721,-1.0721,-1.0721,-1.0721,-1.0721,-1.0721,-1.0721,-1.0721,-1.0721,-1.0721,-1.0721,-1.0721,-1.0721,-1.0721,-1.0721,-1.0721,-1.0721,-1.0721,-1.0721,-1.0721,-1.0721,-1.0721,-1.0721,-1.0721,-2.2044,-2.2004,-2.1729,-2.1589,-2.1535,-2.1263,-2.1142,-2.1102,-2.1102,-2.1102,-2.1102,-2.1102,-2.1102,-2.1102,-2.1102,-2.1102,-2.1102,-2.1102,-2.1102,-2.1102,-2.1102,-2.1102,-2.1077,-2.0856,-2.0545,-2.0106,-1.9462,-1.8623,-1.776,-1.6882,-1.6006,-1.4996,-1.401,-1.3091,-1.2375,-1.1611,-1.1118,-1.082,-1.0754,-1.0721,-1.0721,-1.0721,-1.0721,-1.0721,-1.0721,-1.0721,-1.0721,-1.0721,-1.0721,-1.0721,-1.0721,-1.0721,-1.0721,-1.0721,-1.0721,-1.0721,-1.0721,-1.0721,-1.0721,-1.0721,-1.0721,-1.0721,-1.0721,-1.0721,-1.0721,-1.0721,-1.0721,-1.0721,-1.0721,-1.0721,-1.0721,-1.0721,-1.0721,-1.0721,-1.0721,-1.0721,-1.0721,-1.0721,-1.0721,-1.0721,-1.0721,-1.0721,-1.0721,-1.0721,-1.0721,-1.0721,-1.0721,-1.0721,-1.0721,-1.0721,-1.0721,-1.0721,-1.0721,-1.0721,-1.0721,-1.0721,-1.0721,-1.0721,-1.0721,-1.0721,-1.0721,-1.0721,-1.0721,-1.0721,-1.0721,-1.0721,-1.0721,-1.0721,-1.0721,-1.0721,-1.0721,-1.0721,-1.0721,-1.0721,-1.0721,-2.2305,-2.2271,-2.2024,-2.1783,-2.1621,-2.1495,-2.1309,-2.1122,-2.1109,-2.1122,-2.1102,-2.1102,-2.1102,-2.1102,-2.1102,-2.1102,-2.1102,-2.1102,-2.1102,-2.1102,-2.1102,-2.1102,-2.1077,-2.1014,-2.0792,-2.0386,-1.9775,-1.9194,-1.8597,-1.7427,-1.6456,-1.5714,-1.46,-1.3617,-1.2704,-1.1975,-1.1479,-1.1085,-1.082,-1.0721,-1.0721,-1.0721,-1.0721,-1.0721,-1.0721,-1.0721,-1.0721,-1.0721,-1.0721,-1.0721,-1.0721,-1.0721,-1.0721,-1.0721,-1.0721,-1.0721,-1.0721,-1.0721,-1.0721,-1.0721,-1.0721,-1.0721,-1.0721,-1.0721,-1.0721,-1.0721,-1.0721,-1.0721,-1.0721,-1.0721,-1.0721,-1.0721,-1.0721,-1.0721,-1.0721,-1.0721,-1.0721,-1.0721,-1.0721,-1.0721,-1.0721,-1.0721,-1.0721,-1.0721,-1.0721,-1.0721,-1.0721,-1.0721,-1.0721,-1.0721,-1.0721,-1.0721,-1.0721,-1.0721,-1.0721,-1.0721,-1.0721,-1.0721,-1.0721,-1.0721,-1.0721,-1.0721,-1.0721,-1.0721,-1.0721,-1.0721,-1.0721,-1.0721,-1.0721,-1.0721,-1.0721,-1.0721,-1.0721,-1.0721,-1.0721,-2.2605,-2.2579,-2.2285,-2.2071,-2.1937,-2.1816,-2.1602,-2.1368,-2.1296,-2.1216,-2.1129,-2.1102,-2.1102,-2.1102,-2.1102,-2.1102,-2.1102,-2.1102,-2.1102,-2.1102,-2.1102,-2.1102,-2.1077,-2.1077,-2.0926,-2.0577,-2.0062,-1.9558,-1.895,-1.7814,-1.6882,-1.6071,-1.4992,-1.3945,-1.3062,-1.221,-1.1611,-1.1214,-1.0886,-1.0721,-1.0721,-1.0721,-1.0721,-1.0721,-1.0721,-1.0721,-1.0721,-1.0721,-1.0721,-1.0721,-1.0721,-1.0721,-1.0721,-1.0721,-1.0721,-1.0721,-1.0721,-1.0721,-1.0721,-1.0721,-1.0721,-1.0721,-1.0721,-1.0721,-1.0721,-1.0721,-1.0721,-1.0721,-1.0721,-1.0721,-1.0721,-1.0721,-1.0721,-1.0721,-1.0721,-1.0721,-1.0721,-1.0721,-1.0721,-1.0721,-1.0721,-1.0721,-1.0721,-1.0721,-1.0721,-1.0721,-1.0721,-1.0721,-1.0721,-1.0721,-1.0721,-1.0721,-1.0721,-1.0721,-1.0721,-1.0721,-1.0721,-1.0721,-1.0721,-1.0721,-1.0721,-1.0721,-1.0721,-1.0721,-1.0721,-1.0721,-1.0721,-1.0721,-1.0721,-1.0721,-1.0721,-1.0721,-1.0721,-1.0721,-1.0721,-2.29,-2.2873,-2.2572,-2.2418,-2.2358,-2.2138,-2.1864,-2.1656,-2.1575,-2.1428,-2.1209,-2.1129,-2.1102,-2.1102,-2.1102,-2.1102,-2.1102,-2.1102,-2.1102,-2.1102,-2.1102,-2.1102,-2.1102,-2.1102,-2.0951,-2.064,-2.0297,-1.9819,-1.9142,-1.8141,-1.7206,-1.6396,-1.5155,-1.417,-1.335,-1.2371,-1.1648,-1.1317,-1.0886,-1.0721,-1.0721,-1.0721,-1.0721,-1.0721,-1.0721,-1.0721,-1.0721,-1.0721,-1.0721,-1.0721,-1.0721,-1.0721,-1.0721,-1.0721,-1.0721,-1.0721,-1.0721,-1.0721,-1.0721,-1.0721,-1.0721,-1.0721,-1.0721,-1.0721,-1.0721,-1.0721,-1.0721,-1.0721,-1.0721,-1.0721,-1.0721,-1.0721,-1.0721,-1.0721,-1.0721,-1.0721,-1.0721,-1.0721,-1.0721,-1.0721,-1.0721,-1.0721,-1.0721,-1.0721,-1.0721,-1.0721,-1.0721,-1.0721,-1.0721,-1.0721,-1.0721,-1.0721,-1.0721,-1.0721,-1.0721,-1.0721,-1.0721,-1.0721,-1.0721,-1.0721,-1.0721,-1.0721,-1.0721,-1.0721,-1.0721,-1.0721,-1.0721,-1.0721,-1.0721,-1.0721,-1.0721,-1.0721,-1.0721,-1.0721,-1.0721,-2.29,-2.2893,-2.2833,-2.2632,-2.2398,-2.2345,-2.2158,-2.1884,-2.1689,-2.1582,-2.1442,-2.1216,-2.1122,-2.1102,-2.1102,-2.1102,-2.1102,-2.1102,-2.1102,-2.1102,-2.1102,-2.1102,-2.1102,-2.1102,-2.1039,-2.0824,-2.0354,-2.0043,-1.9564,-1.8521,-1.755,-1.6775,-1.5481,-1.4441,-1.3678,-1.2466,-1.178,-1.1549,-1.1019,-1.0721,-1.0721,-1.0721,-1.0721,-1.0721,-1.0721,-1.0721,-1.0721,-1.0721,-1.0721,-1.0721,-1.0721,-1.0721,-1.0721,-1.0721,-1.0721,-1.0721,-1.0721,-1.0721,-1.0721,-1.0721,-1.0721,-1.0721,-1.0721,-1.0721,-1.0721,-1.0721,-1.0721,-1.0721,-1.0721,-1.0721,-1.0721,-1.0721,-1.0721,-1.0721,-1.0721,-1.0721,-1.0721,-1.0721,-1.0721,-1.0721,-1.0721,-1.0721,-1.0721,-1.0721,-1.0721,-1.0721,-1.0721,-1.0721,-1.0721,-1.0721,-1.0721,-1.0721,-1.0721,-1.0721,-1.0721,-1.0721,-1.0721,-1.0721,-1.0721,-1.0721,-1.0721,-1.0787,-1.0787,-1.0754,-1.0721,-1.0721,-1.0721,-1.0721,-1.0721,-1.0721,-1.0721,-1.0721,-1.0721,-1.0721,-1.0721,-2.29,-2.29,-2.29,-2.2806,-2.2639,-2.2619,-2.2458,-2.2198,-2.2038,-2.1836,-2.1596,-2.1402,-2.1243,-2.1116,-2.1102,-2.1102,-2.1102,-2.1102,-2.1102,-2.1102,-2.1102,-2.1102,-2.1102,-2.1102,-2.1071,-2.0982,-2.0425,-2.0145,-1.9756,-1.8746,-1.7653,-1.6936,-1.5578,-1.4572,-1.3781,-1.2499,-1.1879,-1.1648,-1.1085,-1.0721,-1.0721,-1.0721,-1.0721,-1.0721,-1.0721,-1.0721,-1.0721,-1.0721,-1.0721,-1.0721,-1.0721,-1.0721,-1.0721,-1.0721,-1.0721,-1.0721,-1.0721,-1.0721,-1.0721,-1.0721,-1.0721,-1.0721,-1.0721,-1.0721,-1.0721,-1.0721,-1.0721,-1.0721,-1.0721,-1.0721,-1.0721,-1.0721,-1.0721,-1.0721,-1.0721,-1.0721,-1.0721,-1.0721,-1.0721,-1.0721,-1.0721,-1.0721,-1.0721,-1.0721,-1.0721,-1.0721,-1.0721,-1.0721,-1.0721,-1.0721,-1.0721,-1.0721,-1.0721,-1.0721,-1.0721,-1.0721,-1.0721,-1.0721,-1.0721,-1.0721,-1.0721,-1.082,-1.092,-1.0853,-1.0787,-1.0721,-1.0721,-1.0721,-1.0754,-1.0721,-1.0721,-1.0721,-1.0721,-1.0721,-1.0721,-2.29,-2.29,-2.29,-2.29,-2.29,-2.2887,-2.274,-2.2505,-2.2398,-2.2124,-2.1763,-2.1649,-2.1422,-2.1223,-2.1122,-2.1109,-2.1102,-2.1102,-2.1102,-2.1102,-2.1102,-2.1102,-2.1102,-2.1102,-2.1039,-2.0982,-2.0386,-2.0106,-1.9564,-1.8623,-1.7556,-1.678,-1.5481,-1.4469,-1.365,-1.2536,-1.1747,-1.1582,-1.1052,-1.0721,-1.0721,-1.0721,-1.0721,-1.0721,-1.0721,-1.0721,-1.0721,-1.0721,-1.0721,-1.0721,-1.0721,-1.0721,-1.0721,-1.0721,-1.0721,-1.0721,-1.0721,-1.0721,-1.0721,-1.0721,-1.0721,-1.0721,-1.0721,-1.0721,-1.0721,-1.0721,-1.0721,-1.0721,-1.0721,-1.0721,-1.0721,-1.0721,-1.0721,-1.0721,-1.0721,-1.0721,-1.0721,-1.0721,-1.0721,-1.0721,-1.0721,-1.0721,-1.0721,-1.0721,-1.0721,-1.0721,-1.0721,-1.0721,-1.0721,-1.0721,-1.0721,-1.0721,-1.0721,-1.0721,-1.0721,-1.0721,-1.0721,-1.0784,-1.0784,-1.085,-1.0883,-1.1085,-1.1218,-1.0986,-1.0886,-1.092,-1.0986,-1.1085,-1.1052,-1.0853,-1.0784,-1.085,-1.0817,-1.0721,-1.0721,-2.29,-2.29,-2.29,-2.29,-2.29,-2.29,-2.2867,-2.2786,-2.2532,-2.2345,-2.2211,-2.181,-2.1608,-2.1442,-2.1196,-2.1116,-2.1102,-2.1102,-2.1102,-2.1102,-2.1102,-2.1102,-2.1102,-2.1071,-2.0951,-2.064,-2.0234,-1.9813,-1.9174,-1.8141,-1.7271,-1.6429,-1.522,-1.4207,-1.3387,-1.2404,-1.1615,-1.135,-1.0953,-1.0721,-1.0721,-1.0721,-1.0721,-1.0721,-1.0721,-1.0721,-1.0721,-1.0721,-1.0721,-1.0721,-1.0721,-1.0721,-1.0721,-1.0721,-1.0721,-1.0721,-1.0721,-1.0721,-1.0721,-1.0721,-1.0721,-1.0721,-1.0721,-1.0721,-1.0721,-1.0721,-1.0721,-1.0721,-1.0721,-1.0721,-1.0721,-1.0721,-1.0721,-1.0721,-1.0721,-1.0721,-1.0721,-1.0721,-1.0721,-1.0721,-1.0721,-1.0721,-1.0721,-1.0721,-1.0721,-1.0721,-1.0721,-1.0721,-1.0721,-1.0721,-1.0721,-1.0721,-1.0721,-1.0721,-1.0721,-1.0721,-1.0754,-1.0883,-1.0949,-1.1148,-1.1247,-1.1512,-1.1516,-1.1483,-1.1416,-1.1449,-1.1516,-1.1516,-1.1383,-1.1214,-1.1115,-1.1049,-1.0916,-1.0817,-1.0721,-2.29,-2.29,-2.29,-2.29,-2.29,-2.29,-2.29,-2.288,-2.2746,-2.2559,-2.2325,-2.201,-2.1716,-2.1542,-2.1243,-2.1109,-2.1102,-2.1102,-2.1102,-2.1102,-2.1102,-2.1102,-2.1102,-2.1102,-2.0761,-2.0386,-1.9973,-1.9584,-1.9008,-1.7819,-1.6915,-1.6104,-1.4996,-1.3978,-1.3095,-1.2272,-1.1615,-1.1218,-1.0886,-1.0721,-1.0721,-1.0721,-1.0721,-1.0721,-1.0721,-1.0721,-1.0721,-1.0721,-1.0721,-1.0721,-1.0721,-1.0721,-1.0721,-1.0721,-1.0721,-1.0721,-1.0721,-1.0721,-1.0721,-1.0721,-1.0721,-1.0721,-1.0721,-1.0721,-1.0721,-1.0721,-1.0721,-1.0721,-1.0721,-1.0721,-1.0721,-1.0721,-1.0721,-1.0721,-1.0721,-1.0721,-1.0721,-1.0721,-1.0721,-1.0721,-1.0721,-1.0721,-1.0721,-1.0721,-1.0721,-1.0721,-1.0721,-1.0721,-1.0721,-1.0721,-1.0721,-1.0721,-1.0721,-1.0787,-1.0853,-1.0953,-1.0953,-1.1049,-1.128,-1.1479,-1.171,-1.2008,-1.2173,-1.221,-1.2144,-1.2078,-1.1813,-1.1714,-1.1648,-1.1578,-1.1516,-1.1413,-1.1115,-1.0949,-1.085,-2.29,-2.29,-2.29,-2.29,-2.29,-2.29,-2.29,-2.29,-2.2893,-2.2726,-2.2485,-2.2198,-2.1943,-2.1642,-2.1303,-2.1102,-2.1102,-2.1102,-2.1102,-2.1102,-2.1102,-2.1102,-2.1102,-2.1014,-2.0767,-2.017,-1.9654,-1.9258,-1.8527,-1.7464,-1.6553,-1.5644,-1.4698,-1.3715,-1.2733,-1.1975,-1.1549,-1.1152,-1.0853,-1.0721,-1.0721,-1.0721,-1.0721,-1.0721,-1.0721,-1.0721,-1.0721,-1.0721,-1.0721,-1.0721,-1.0721,-1.0721,-1.0721,-1.0721,-1.0721,-1.0721,-1.0721,-1.0721,-1.0721,-1.0721,-1.0721,-1.0721,-1.0721,-1.0721,-1.0721,-1.0721,-1.0721,-1.0721,-1.0721,-1.0721,-1.0721,-1.0721,-1.0721,-1.0721,-1.0721,-1.0721,-1.0721,-1.0721,-1.0721,-1.0721,-1.0721,-1.0721,-1.0721,-1.0721,-1.0721,-1.0721,-1.0721,-1.0721,-1.0721,-1.0721,-1.0721,-1.0721,-1.0754,-1.0853,-1.0986,-1.1251,-1.1284,-1.1383,-1.1743,-1.2074,-1.2338,-1.2601,-1.2733,-1.2931,-1.2799,-1.2667,-1.2305,-1.2078,-1.2111,-1.2111,-1.1978,-1.178,-1.1479,-1.1214,-1.1049,-2.29,-2.29,-2.29,-2.29,-2.29,-2.29,-2.29,-2.29,-2.29,-2.2887,-2.2786,-2.2478,-2.2178,-2.185,-2.1349,-2.1136,-2.1102,-2.1102,-2.1102,-2.1102,-2.1102,-2.1102,-2.1102,-2.1102,-2.0704,-2.0106,-1.9488,-1.8591,-1.7852,-1.7017,-1.6039,-1.509,-1.4202,-1.312,-1.2375,-1.1776,-1.1118,-1.082,-1.0721,-1.0721,-1.0721,-1.0721,-1.0721,-1.0721,-1.0721,-1.0721,-1.0721,-1.0721,-1.0721,-1.0721,-1.0721,-1.0721,-1.0721,-1.0721,-1.0721,-1.0721,-1.0721,-1.0721,-1.0721,-1.0721,-1.0721,-1.0721,-1.0721,-1.0721,-1.0721,-1.0721,-1.0721,-1.0721,-1.0721,-1.0721,-1.0721,-1.0721,-1.0721,-1.0721,-1.0721,-1.0721,-1.0721,-1.0721,-1.0721,-1.0721,-1.0721,-1.0754,-1.0754,-1.0721,-1.0721,-1.0721,-1.0721,-1.0721,-1.0787,-1.0886,-1.0916,-1.1019,-1.1082,-1.1148,-1.1347,-1.1549,-1.1747,-1.178,-1.2272,-1.27,-1.2931,-1.3194,-1.3518,-1.3617,-1.3486,-1.3354,-1.3161,-1.2968,-1.2803,-1.2605,-1.2375,-1.2111,-1.181,-1.1545,-1.128,-2.29,-2.29,-2.29,-2.29,-2.29,-2.29,-2.29,-2.29,-2.29,-2.29,-2.284,-2.2545,-2.2178,-2.181,-2.1468,-2.1269,-2.1142,-2.1109,-2.1102,-2.1102,-2.1102,-2.1102,-2.1102,-2.1046,-2.0736,-2.0164,-1.952,-1.872,-1.7658,-1.6661,-1.5751,-1.4898,-1.4043,-1.312,-1.221,-1.1714,-1.1218,-1.0883,-1.0721,-1.0721,-1.0721,-1.0721,-1.0721,-1.0721,-1.0721,-1.0721,-1.0721,-1.0721,-1.0721,-1.0721,-1.0721,-1.0721,-1.0721,-1.0721,-1.0721,-1.0721,-1.0721,-1.0721,-1.0721,-1.0721,-1.0721,-1.0721,-1.0721,-1.0721,-1.0721,-1.0754,-1.0754,-1.0721,-1.0721,-1.0721,-1.0754,-1.0721,-1.0721,-1.0721,-1.082,-1.0787,-1.0787,-1.0721,-1.0721,-1.0721,-1.0754,-1.0886,-1.0953,-1.0886,-1.0886,-1.085,-1.0886,-1.092,-1.1085,-1.1317,-1.135,-1.1413,-1.1479,-1.1545,-1.1776,-1.2011,-1.2338,-1.2503,-1.3025,-1.3387,-1.3523,-1.3785,-1.4076,-1.4272,-1.4244,-1.4113,-1.3954,-1.3564,-1.3169,-1.2939,-1.2741,-1.2441,-1.214,-1.181,-1.1479,-2.29,-2.29,-2.29,-2.29,-2.29,-2.29,-2.29,-2.29,-2.29,-2.29,-2.2813,-2.2545,-2.2164,-2.183,-2.1662,-2.1448,-2.1236,-2.1149,-2.1109,-2.1102,-2.1102,-2.1102,-2.1102,-2.1046,-2.0792,-2.0234,-1.9775,-1.9008,-1.7975,-1.6845,-1.5844,-1.48,-1.4039,-1.3124,-1.2239,-1.1681,-1.1251,-1.0784,-1.0721,-1.0721,-1.0721,-1.0721,-1.0721,-1.0721,-1.0721,-1.0721,-1.0721,-1.0721,-1.0721,-1.0721,-1.0721,-1.0721,-1.0721,-1.0721,-1.0721,-1.0721,-1.0721,-1.0787,-1.082,-1.0886,-1.082,-1.0853,-1.0953,-1.1085,-1.1052,-1.0986,-1.0986,-1.1082,-1.1052,-1.1052,-1.0986,-1.1019,-1.1085,-1.1085,-1.1052,-1.0986,-1.0986,-1.1052,-1.1118,-1.1181,-1.1218,-1.1218,-1.1218,-1.1118,-1.1052,-1.1016,-1.1049,-1.1118,-1.1416,-1.1776,-1.1876,-1.1942,-1.2235,-1.2334,-1.2466,-1.27,-1.2931,-1.326,-1.3748,-1.3978,-1.4076,-1.4244,-1.4473,-1.467,-1.48,-1.467,-1.4412,-1.3921,-1.3465,-1.3202,-1.2939,-1.2737,-1.2441,-1.2074,-1.1611,-2.29,-2.29,-2.29,-2.29,-2.29,-2.29,-2.29,-2.29,-2.29,-2.29,-2.286,-2.2572,-2.2412,-2.2211,-2.1843,-2.1602,-2.1529,-2.1236,-2.1136,-2.1102,-2.1102,-2.1102,-2.1102,-2.1039,-2.0887,-2.0482,-1.9966,-1.9424,-1.872,-1.7491,-1.6061,-1.46,-1.417,-1.319,-1.2305,-1.1743,-1.1251,-1.085,-1.0784,-1.0721,-1.0721,-1.0721,-1.0721,-1.0721,-1.0721,-1.0721,-1.0721,-1.0721,-1.0721,-1.0721,-1.0721,-1.0721,-1.0721,-1.0721,-1.0721,-1.0721,-1.0784,-1.0886,-1.1019,-1.1085,-1.1152,-1.1247,-1.1479,-1.171,-1.171,-1.171,-1.171,-1.171,-1.171,-1.171,-1.171,-1.1714,-1.171,-1.1615,-1.1549,-1.1483,-1.1516,-1.1615,-1.1681,-1.1714,-1.1743,-1.181,-1.1942,-1.1905,-1.1644,-1.1578,-1.1872,-1.1975,-1.2074,-1.2338,-1.2437,-1.2597,-1.3054,-1.3251,-1.3346,-1.358,-1.3879,-1.4076,-1.4403,-1.4502,-1.4502,-1.4702,-1.4996,-1.4898,-1.5001,-1.4931,-1.48,-1.4277,-1.379,-1.3433,-1.3141,-1.2803,-1.2474,-1.2111,-1.1582,-2.29,-2.29,-2.29,-2.29,-2.29,-2.29,-2.29,-2.29,-2.29,-2.29,-2.2887,-2.2773,-2.2592,-2.2352,-2.2038,-2.1743,-2.1569,-2.1243,-2.1142,-2.1102,-2.1102,-2.1102,-2.1102,-2.1039,-2.0919,-2.0577,-2.01,-1.959,-1.8976,-1.8071,-1.7028,-1.5796,-1.4856,-1.365,-1.2799,-1.1975,-1.1446,-1.1118,-1.0982,-1.092,-1.0721,-1.0721,-1.0721,-1.0721,-1.0721,-1.0721,-1.0721,-1.0721,-1.0721,-1.0721,-1.0721,-1.0721,-1.0721,-1.0721,-1.0721,-1.0754,-1.085,-1.1052,-1.1185,-1.128,-1.138,-1.1912,-1.2202,-1.2429,-1.2495,-1.2462,-1.2429,-1.2429,-1.2466,-1.2528,-1.2429,-1.2429,-1.2363,-1.2173,-1.2111,-1.2111,-1.2111,-1.2243,-1.2342,-1.2404,-1.2499,-1.2557,-1.2692,-1.2791,-1.2466,-1.2206,-1.2532,-1.2795,-1.2927,-1.3157,-1.3354,-1.3551,-1.4006,-1.4202,-1.4301,-1.4562,-1.4824,-1.4954,-1.5057,-1.509,-1.5122,-1.5383,-1.5583,-1.5421,-1.523,-1.5197,-1.4964,-1.4534,-1.4141,-1.379,-1.3264,-1.2737,-1.2408,-1.2144,-1.1615,-2.29,-2.29,-2.29,-2.29,-2.29,-2.29,-2.29,-2.29,-2.29,-2.29,-2.29,-2.2887,-2.2793,-2.2505,-2.2245,-2.199,-2.1723,-2.1416,-2.1223,-2.1142,-2.1102,-2.1102,-2.1102,-2.1071,-2.0982,-2.0704,-2.0418,-1.9941,-1.9647,-1.8746,-1.7937,-1.706,-1.6126,-1.4894,-1.3424,-1.2507,-1.1912,-1.1615,-1.1383,-1.1218,-1.092,-1.0853,-1.0784,-1.075,-1.0721,-1.0721,-1.0721,-1.0721,-1.0721,-1.0721,-1.0721,-1.0721,-1.0721,-1.0721,-1.0721,-1.082,-1.0986,-1.1218,-1.138,-1.1644,-1.2041,-1.2898,-1.3153,-1.3346,-1.3411,-1.3444,-1.3543,-1.351,-1.3481,-1.3444,-1.3411,-1.3514,-1.3383,-1.3293,-1.3194,-1.3157,-1.2997,-1.303,-1.3095,-1.3157,-1.3317,-1.3608,-1.3772,-1.394,-1.3744,-1.342,-1.3387,-1.3715,-1.3945,-1.424,-1.4628,-1.4796,-1.5057,-1.5155,-1.5253,-1.535,-1.5443,-1.5448,-1.5578,-1.5709,-1.5806,-1.6066,-1.6039,-1.5746,-1.5588,-1.5491,-1.5323,-1.509,-1.4632,-1.4141,-1.3555,-1.3001,-1.2605,-1.2309,-1.1813,-2.29,-2.29,-2.29,-2.29,-2.29,-2.29,-2.29,-2.29,-2.29,-2.29,-2.29,-2.29,-2.2893,-2.2773,-2.2472,-2.2171,-2.1923,-2.1656,-2.1402,-2.1156,-2.1102,-2.1102,-2.1102,-2.1071,-2.1039,-2.1014,-2.0704,-2.045,-2.0418,-1.9526,-1.8842,-1.8258,-1.7324,-1.6169,-1.4408,-1.3325,-1.2638,-1.2309,-1.2011,-1.1648,-1.135,-1.1251,-1.1082,-1.0949,-1.0886,-1.092,-1.092,-1.092,-1.092,-1.092,-1.0916,-1.092,-1.0886,-1.0886,-1.0853,-1.085,-1.1148,-1.1446,-1.1843,-1.2441,-1.3231,-1.4015,-1.4235,-1.4534,-1.4768,-1.4861,-1.4856,-1.4856,-1.4856,-1.4866,-1.4866,-1.4833,-1.4632,-1.4403,-1.4305,-1.4109,-1.3949,-1.4043,-1.4141,-1.4305,-1.46,-1.4898,-1.4992,-1.5085,-1.4954,-1.4726,-1.4469,-1.46,-1.4959,-1.535,-1.5806,-1.5969,-1.6131,-1.6229,-1.6261,-1.6099,-1.6066,-1.6034,-1.6131,-1.6331,-1.6391,-1.6488,-1.6359,-1.6104,-1.6104,-1.6201,-1.5974,-1.5741,-1.535,-1.4959,-1.3986,-1.3367,-1.2935,-1.2536,-1.2107,-2.29,-2.29,-2.29,-2.29,-2.29,-2.29,-2.29,-2.29,-2.29,-2.29,-2.29,-2.29,-2.29,-2.2772,-2.2565,-2.2271,-2.2004,-2.1716,-2.1422,-2.1136,-2.1102,-2.1102,-2.1102,-2.1102,-2.1102,-2.1014,-2.0792,-2.064,-2.0545,-1.9973,-1.9462,-1.888,-1.8045,-1.6818,-1.5513,-1.4436,-1.3715,-1.3321,-1.2832,-1.2305,-1.1945,-1.1743,-1.1545,-1.1413,-1.1416,-1.1383,-1.1383,-1.135,-1.1317,-1.135,-1.135,-1.135,-1.135,-1.135,-1.1383,-1.1479,-1.1743,-1.247,-1.3227,-1.3949,-1.4281,-1.4833,-1.5323,-1.5714,-1.5941,-1.6196,-1.6261,-1.6261,-1.6196,-1.6196,-1.6294,-1.6294,-1.6061,-1.5578,-1.535,-1.5029,-1.4898,-1.522,-1.5443,-1.5611,-1.5839,-1.6164,-1.6353,-1.6451,-1.6381,-1.6348,-1.6159,-1.6029,-1.6294,-1.6586,-1.6974,-1.7071,-1.7168,-1.733,-1.7324,-1.6974,-1.6812,-1.685,-1.6947,-1.7077,-1.7109,-1.7001,-1.7039,-1.6947,-1.6947,-1.691,-1.6715,-1.6488,-1.6294,-1.5779,-1.4996,-1.415,-1.3621,-1.3161,-1.2638,-2.29,-2.29,-2.29,-2.29,-2.29,-2.29,-2.29,-2.29,-2.29,-2.29,-2.29,-2.29,-2.29,-2.2833,-2.2652,-2.2311,-2.203,-2.1836,-2.1462,-2.1162,-2.1102,-2.1102,-2.1102,-2.1102,-2.1102,-2.1014,-2.0919,-2.0761,-2.0792,-2.0456,-1.9979,-1.9366,-1.8533,-1.7884,-1.6845,-1.5899,-1.4796,-1.4371,-1.3814,-1.3227,-1.2898,-1.2601,-1.2305,-1.2169,-1.2041,-1.1942,-1.1945,-1.1912,-1.185,-1.185,-1.1846,-1.1846,-1.1846,-1.1813,-1.1813,-1.1912,-1.2309,-1.3128,-1.4179,-1.4996,-1.529,-1.5741,-1.6364,-1.6753,-1.6947,-1.7163,-1.7227,-1.7292,-1.7357,-1.7357,-1.7362,-1.7394,-1.7168,-1.6683,-1.6456,-1.6131,-1.6034,-1.6326,-1.6553,-1.6748,-1.7071,-1.7394,-1.7647,-1.7776,-1.7808,-1.784,-1.7846,-1.7717,-1.7588,-1.7846,-1.8013,-1.8013,-1.8013,-1.8039,-1.7942,-1.7653,-1.7594,-1.7658,-1.7664,-1.7696,-1.7658,-1.755,-1.7685,-1.7755,-1.762,-1.7523,-1.7427,-1.7233,-1.7136,-1.6812,-1.6234,-1.5383,-1.4464,-1.3846,-1.3325,-2.29,-2.29,-2.29,-2.29,-2.29,-2.29,-2.29,-2.29,-2.29,-2.29,-2.29,-2.29,-2.29,-2.29,-2.288,-2.2572,-2.2131,-2.2024,-2.1656,-2.1269,-2.1142,-2.1122,-2.1102,-2.1102,-2.1102,-2.1102,-2.1039,-2.0982,-2.1039,-2.0672,-2.0329,-2.0011,-1.9366,-1.8912,-1.82,-1.7297,-1.6131,-1.5508,-1.4861,-1.4305,-1.394,-1.3613,-1.3317,-1.3087,-1.2828,-1.2667,-1.2568,-1.2371,-1.2177,-1.2078,-1.2045,-1.1975,-1.1942,-1.1879,-1.1879,-1.2111,-1.2638,-1.372,-1.4735,-1.5551,-1.6294,-1.671,-1.7104,-1.7459,-1.7814,-1.8136,-1.8296,-1.8296,-1.8296,-1.8232,-1.8168,-1.8136,-1.8071,-1.7814,-1.7653,-1.7427,-1.7233,-1.7362,-1.7588,-1.7884,-1.8308,-1.8629,-1.8816,-1.8976,-1.8906,-1.9002,-1.9002,-1.897,-1.8874,-1.897,-1.904,-1.8758,-1.8752,-1.8688,-1.8521,-1.8264,-1.8077,-1.805,-1.805,-1.8045,-1.8039,-1.82,-1.8425,-1.8457,-1.8226,-1.8162,-1.8328,-1.8264,-1.8039,-1.7685,-1.7427,-1.6461,-1.5508,-1.4726,-1.4137,-2.29,-2.29,-2.29,-2.29,-2.29,-2.29,-2.29,-2.29,-2.29,-2.29,-2.29,-2.29,-2.29,-2.29,-2.2893,-2.2612,-2.2345,-2.2058,-2.1803,-2.1509,-2.1196,-2.1129,-2.1102,-2.1102,-2.1102,-2.1102,-2.1102,-2.1071,-2.1014,-2.0767,-2.0609,-2.0386,-1.9973,-1.9717,-1.9264,-1.8617,-1.7615,-1.671,-1.5931,-1.5443,-1.5052,-1.4726,-1.4432,-1.4207,-1.3912,-1.3785,-1.3617,-1.3387,-1.3223,-1.3256,-1.3256,-1.3284,-1.3288,-1.3288,-1.3321,-1.3387,-1.3945,-1.467,-1.535,-1.6196,-1.7001,-1.7679,-1.8136,-1.8527,-1.8848,-1.9104,-1.9334,-1.9232,-1.92,-1.9104,-1.9104,-1.9072,-1.8976,-1.8842,-1.8682,-1.8591,-1.8425,-1.8489,-1.8682,-1.8906,-1.9334,-1.95,-1.9749,-1.9781,-1.9743,-1.9934,-2.0062,-2.003,-1.9998,-1.9998,-1.9877,-1.959,-1.943,-1.9328,-1.9104,-1.8848,-1.8597,-1.8442,-1.8533,-1.8629,-1.8752,-1.8944,-1.92,-1.9232,-1.9072,-1.9232,-1.9526,-1.9296,-1.8944,-1.8938,-1.865,-1.7588,-1.6586,-1.5801,-1.495,-2.29,-2.29,-2.29,-2.29,-2.29,-2.29,-2.29,-2.29,-2.29,-2.29,-2.29,-2.29,-2.29,-2.29,-2.288,-2.2692,-2.2358,-2.2104,-2.1843,-2.1555,-2.1295,-2.1149,-2.1102,-2.1102,-2.1102,-2.1102,-2.1102,-2.1071,-2.1046,-2.0951,-2.0792,-2.0767,-2.0456,-2.0227,-1.9903,-1.9552,-1.897,-1.8033,-1.7201,-1.6618,-1.6196,-1.5904,-1.5709,-1.5453,-1.5192,-1.5024,-1.4824,-1.4497,-1.4338,-1.4305,-1.4305,-1.4305,-1.4272,-1.4277,-1.4436,-1.4534,-1.4959,-1.5546,-1.6164,-1.6904,-1.7685,-1.8393,-1.9072,-1.9456,-1.9654,-1.9845,-1.9915,-1.9915,-1.9985,-2.0049,-2.0081,-2.0081,-1.9909,-1.9775,-1.9711,-1.9654,-1.9647,-1.9679,-1.9775,-1.9928,-2.0125,-2.0291,-2.0418,-2.045,-2.0513,-2.057,-2.064,-2.064,-2.0602,-2.0602,-2.045,-2.0164,-2.0036,-1.9934,-1.9679,-1.943,-1.9308,-1.918,-1.9308,-1.9398,-1.9526,-1.959,-1.9717,-1.9851,-1.9979,-2.0043,-2.0043,-2.0011,-1.9788,-1.9743,-1.9577,-1.8714,-1.7717,-1.6807,-1.5926,-2.29,-2.29,-2.29,-2.29,-2.29,-2.29,-2.29,-2.29,-2.29,-2.29,-2.29,-2.29,-2.29,-2.29,-2.2887,-2.2739,-2.2492,-2.2225,-2.1944,-2.1648,-2.1381,-2.1196,-2.1116,-2.1102,-2.1102,-2.1102,-2.1102,-2.1102,-2.1102,-2.1039,-2.1014,-2.1077,-2.0792,-2.0602,-2.0539,-2.0227,-1.9775,-1.9354,-1.8457,-1.7755,-1.7497,-1.7233,-1.6942,-1.6596,-1.6299,-1.5996,-1.5671,-1.5378,-1.5057,-1.5094,-1.5094,-1.5122,-1.516,-1.5192,-1.5383,-1.5578,-1.5974,-1.6359,-1.6942,-1.7647,-1.8296,-1.9008,-1.9717,-2.0068,-2.0259,-2.0386,-2.0425,-2.0425,-2.0456,-2.0456,-2.0456,-2.0456,-2.0386,-2.0316,-2.0291,-2.0259,-2.0259,-2.0284,-2.0348,-2.0475,-2.057,-2.0736,-2.0792,-2.0792,-2.0761,-2.0982,-2.1014,-2.1046,-2.1014,-2.0982,-2.0856,-2.0609,-2.045,-2.0291,-2.0132,-1.9941,-1.9979,-1.9985,-1.9979,-2.0004,-2.0004,-2.0068,-2.017,-2.0329,-2.0456,-2.0329,-2.0297,-2.0329,-2.0354,-2.0259,-1.9998,-1.9641,-1.8842,-1.784,-1.671,-2.29,-2.29,-2.29,-2.29,-2.29,-2.29,-2.29,-2.29,-2.29,-2.29,-2.29,-2.29,-2.29,-2.29,-2.29,-2.282,-2.2692,-2.2392,-2.2151,-2.1897,-2.1596,-2.1296,-2.1149,-2.1122,-2.1109,-2.1102,-2.1102,-2.1102,-2.1102,-2.1102,-2.1102,-2.1071,-2.0944,-2.0919,-2.0919,-2.0602,-2.038,-2.0253,-1.9743,-1.8918,-1.8431,-1.8276,-1.805,-1.7664,-1.733,-1.7168,-1.691,-1.6683,-1.6548,-1.6516,-1.6516,-1.6516,-1.6521,-1.6488,-1.6553,-1.671,-1.7007,-1.7297,-1.7653,-1.8328,-1.8944,-1.9328,-1.9877,-2.0316,-2.0602,-2.0767,-2.0831,-2.0824,-2.0824,-2.0799,-2.0799,-2.0799,-2.0799,-2.0799,-2.0799,-2.0799,-2.0799,-2.0831,-2.0862,-2.0887,-2.0951,-2.1014,-2.1071,-2.1102,-2.1102,-2.1071,-2.1071,-2.1071,-2.1077,-2.1039,-2.1039,-2.0856,-2.0672,-2.0513,-2.0418,-2.0386,-2.0361,-2.0265,-2.0202,-2.0291,-2.045,-2.0539,-2.0602,-2.0792,-2.0887,-2.0729,-2.0672,-2.0824,-2.0824,-2.0666,-2.0354,-1.9934,-1.9488,-1.8655,-1.7427,-2.29,-2.29,-2.29,-2.29,-2.29,-2.29,-2.29,-2.29,-2.29,-2.29,-2.29,-2.29,-2.29,-2.29,-2.29,-2.29,-2.284,-2.2545,-2.2345,-2.2118,-2.1816,-2.1535,-2.1361,-2.1189,-2.1116,-2.1102,-2.1102,-2.1102,-2.1102,-2.1102,-2.1102,-2.1102,-2.1102,-2.1071,-2.1077,-2.0919,-2.0824,-2.0799,-2.0577,-2.01,-1.943,-1.927,-1.9078,-1.872,-1.8521,-1.8366,-1.8173,-1.8013,-1.7975,-1.7942,-1.7942,-1.7942,-1.7942,-1.791,-1.7942,-1.8039,-1.8232,-1.8431,-1.8617,-1.9008,-1.9552,-1.9909,-2.01,-2.0577,-2.0856,-2.0989,-2.0982,-2.0982,-2.0976,-2.0982,-2.0982,-2.0982,-2.0982,-2.0982,-2.0982,-2.0982,-2.0982,-2.0982,-2.0982,-2.1014,-2.1039,-2.1039,-2.1102,-2.1102,-2.1102,-2.1102,-2.1102,-2.1102,-2.1102,-2.1102,-2.1102,-2.1039,-2.0856,-2.0824,-2.0792,-2.0736,-2.0704,-2.0577,-2.045,-2.064,-2.0792,-2.0944,-2.1071,-2.1071,-2.1039,-2.1039,-2.1039,-2.1102,-2.1102,-2.0912,-2.0602,-2.0227,-1.9749,-1.9206,-1.791,-2.29,-2.29,-2.29,-2.29,-2.29,-2.29,-2.29,-2.29,-2.29,-2.29,-2.29,-2.29,-2.29,-2.29,-2.29,-2.29,-2.2833,-2.2645,-2.2512,-2.2278,-2.1957,-2.1776,-2.1582,-2.1349,-2.1223,-2.1129,-2.1102,-2.1102,-2.1102,-2.1102,-2.1102,-2.1102,-2.1102,-2.1102,-2.1102,-2.1071,-2.1039,-2.1014,-2.0919,-2.0856,-2.0602,-2.0323,-1.9909,-1.9743,-1.9647,-1.9488,-1.9302,-1.9206,-1.9206,-1.9174,-1.911,-1.9072,-1.9072,-1.904,-1.9072,-1.9136,-1.9232,-1.9424,-1.9584,-1.9813,-2.0195,-2.0482,-2.0609,-2.0767,-2.1014,-2.1077,-2.1071,-2.1102,-2.1102,-2.1102,-2.1102,-2.1102,-2.1102,-2.1102,-2.1102,-2.1102,-2.1102,-2.1102,-2.1102,-2.1102,-2.1102,-2.1102,-2.1102,-2.1102,-2.1102,-2.1102,-2.1102,-2.1102,-2.1102,-2.1102,-2.1102,-2.1102,-2.1007,-2.1014,-2.1077,-2.1014,-2.0887,-2.0887,-2.0824,-2.0976,-2.1102,-2.1102,-2.1102,-2.1071,-2.1071,-2.1102,-2.1102,-2.1102,-2.1102,-2.1102,-2.0729,-2.0323,-1.9883,-1.9206,-1.8103,-2.29,-2.29,-2.29,-2.29,-2.29,-2.29,-2.29,-2.29,-2.29,-2.29,-2.29,-2.29,-2.29,-2.29,-2.29,-2.29,-2.288,-2.2773,-2.2585,-2.2338,-2.2218,-2.2071,-2.1871,-2.1642,-2.1381,-2.1249,-2.1203,-2.1136,-2.1269,-2.1209,-2.1097,-2.1137,-2.1124,-2.1149,-2.1136,-2.1156,-2.1203,-2.1216,-2.1209,-2.112,-2.1017,-2.0686,-2.0329,-2.0138,-2.0011,-1.9979,-1.9915,-1.9915,-1.9915,-1.9909,-1.9909,-1.9915,-1.9915,-1.9909,-1.9909,-1.9909,-2.0036,-2.003,-2.0164,-2.0354,-2.0634,-2.0672,-2.0767,-2.0951,-2.1077,-2.1077,-2.1102,-2.1102,-2.1102,-2.1102,-2.1102,-2.1102,-2.1102,-2.1102,-2.1102,-2.1102,-2.1102,-2.1102,-2.1102,-2.1102,-2.1102,-2.1102,-2.1102,-2.1102,-2.1102,-2.1102,-2.1102,-2.1102,-2.1102,-2.1102,-2.1102,-2.1102,-2.1102,-2.1102,-2.1071,-2.1071,-2.1007,-2.1071,-2.1102,-2.1102,-2.1102,-2.1102,-2.1102,-2.1102,-2.1102,-2.1102,-2.1102,-2.1102,-2.1102,-2.1039,-2.0792,-2.0418,-1.9941,-1.911,-1.7942]},{"header":{"parameterUnit":"m.s-1","parameterCategory":1,"la1":31.0,"la2":29.5877,"lo1":-88.7671,"lo2":-86.6584,"dy":0.0162,"dx":0.0185,"nx":115,"ny":88,"refTime":"2023-05-10T06:00:00:Z","depth":0,"parameterNumber":3,"parameterNumberName":"V-component_of_WINDS"},"data":[0.0,0.0,0.0,0.0,0.0,0.0,0.0,0.0,0.0,0.0,0.0,0.0,0.0,0.0,0.0,0.0,0.0,0.0,0.0,0.0,0.0,0.0,0.0,0.0,0.0,0.0,0.0,0.0,0.0,0.0,0.0,0.0,0.0,0.0,0.0,0.0,0.0,0.0,0.0,0.0,0.0,0.0,0.0,0.0,0.0,0.0,0.0,0.0,0.0,0.0,0.0,0.0,0.0,0.0,0.0,0.0,0.0,0.0,0.0,0.0,0.0,0.0,0.0,0.0,0.0,0.0,0.0,0.0,0.0,0.0,0.0,0.0,0.0,0.0,0.0,0.0,0.0,0.0,0.0,0.0,0.0,0.0,0.0,0.0,0.0,0.0,0.0,0.0,0.0,0.0,0.0,0.0,0.0,0.0,0.0,0.0,0.0,0.0,0.0,0.0,0.0,0.0,0.0,0.0,0.0,0.0,0.0,0.0,0.0,0.0,0.0,0.0,0.0,0.0,0.0,0.0,0.0,0.0,0.0,0.0,0.0,0.0,0.0,0.0,0.0,0.0,0.0,0.0,0.0,0.0,0.0,0.0,0.0,0.0,0.0,0.0,0.0,0.0,0.0,0.0,0.0,0.0,0.0,0.0,0.0,0.0,0.0,0.0,0.0,0.0,0.0,0.0,0.0,0.0,0.0,0.0,0.0,0.0,0.0,0.0,0.0,0.0,0.0,0.0,0.0,0.0,0.0,0.0,0.0,0.0,0.0,0.0,0.0,0.0,0.0,0.0,0.0,0.0,0.0,0.0,0.0,0.0,0.0,0.0,0.0,0.0,0.0,0.0,0.0,0.0,0.0,0.0,0.0,0.0,0.0,0.0,0.0,0.0,0.0,0.0,0.0,0.0,0.0,0.0,0.0,0.0,0.0,0.0,0.0,0.0,0.0,0.0,0.0,0.0,0.0,0.0,0.0,0.0,0.0,0.0,0.0,0.0,0.0,0.0,0.0,0.0,0.0,0.0,0.0,0.0,0.0,0.0,0.0,0.0,0.0,0.0,0.0,0.0,0.0,0.0,0.0,0.0,0.0,0.0,0.0,0.0,0.0,0.0,0.0,0.0,0.0,0.0,0.0,0.0,0.0,0.0,0.0,0.0,0.0,0.0,0.0,0.0,0.0,0.0,0.0,0.0,0.0,0.0,0.0,0.0,0.0,0.0,0.0,0.0,0.0,0.0,0.0,0.0,0.0,0.0,0.0,0.0,0.0,0.0,0.0,0.0,0.0,0.0,0.0,0.0,0.0,0.0,0.0,0.0,0.0,0.0,0.0,0.0,0.0,0.0,0.0,0.0,0.0,0.0,0.0,0.0,0.0,0.0,0.0,0.0,0.0,0.0,0.0,0.0,0.0,0.0,0.0,0.0,0.0,0.0,0.0,0.0,0.0,0.0,0.0,0.0,0.0,0.0,0.0,0.0,0.0,0.0,0.0,0.0,0.0,0.0,0.0,0.0,0.0,0.0,0.0,0.0,0.0,0.0,0.0,0.0,0.0,0.0,0.0,0.0,0.0,0.0,0.0,0.0,0.0,0.0,0.0,0.0,0.0,0.0,0.0,0.0,0.0,0.0,0.0,0.0,0.0,0.0,0.0,0.0,0.0,0.0,0.0,0.0,0.0,0.0,0.0,0.0,0.0,0.0,0.0,0.0,0.0,0.0,0.0,0.0,0.0,0.0,0.0,0.0,0.0,0.0,0.0,0.0,0.0,0.0,0.0,0.0,0.0,0.0,0.0,0.0,0.0,0.0,0.0,0.0,0.0,0.0,0.0,0.0,0.0,0.0,0.0,0.0,0.0,0.0,0.0,0.0,0.0,0.0,0.0,0.0,0.0,0.0,0.0,0.0,0.0,0.0,0.0,0.0,0.0,0.0,0.0,0.0,0.0,0.0,0.0,0.0,0.0,0.0,0.0,0.0,0.0,0.0,0.0,0.0,0.0,0.0,0.0,0.0,0.0,0.0,0.0,0.0,0.0,0.0,0.0,0.0,0.0,0.0,0.0,0.0,0.0,0.0,0.0,0.0,0.0,0.0,0.0,0.0,0.0,0.0,0.0,0.0,0.0,0.0,0.0,0.0,0.0,0.0,0.0,0.0,0.0,0.0,0.0,0.0,0.0,0.0,0.0,0.0,0.0,0.0,0.0,0.0,0.0,0.0,0.0,0.0,0.0,0.0,0.0,0.0,0.0,0.0,0.0,0.0,0.0,0.0,0.0,0.0,0.0,0.0,0.0,0.0,0.0,0.0,0.0,0.0,0.0,0.0,0.0,0.0,0.0,0.0,0.0,0.0,0.0,0.0,0.0,0.0,0.0,0.0,0.0,0.0,0.0,0.0,0.0,0.0,0.0,0.0,0.0,0.0,0.0,0.0,0.0,0.0,0.0,0.0,0.0,0.0,0.0,0.0,0.0,0.0,0.0,0.0,0.0,0.0,0.0,0.0,0.0,0.0,0.0,0.0,0.0,0.0,0.0,0.0,0.0,0.0,0.0,0.0,0.0,0.0,0.0,0.0,0.0,0.0,0.0,0.0,0.0,0.0,0.0,0.0,0.0,0.0,0.0,0.0,0.0,0.0,0.0,0.0,0.0,0.0,0.0,0.0,0.0,0.0,0.0,0.0,0.0,0.0,0.0,0.0,0.0,0.0,0.0,0.0,0.0,0.0,0.0,0.0,0.0,0.0,0.0,0.0,0.0,0.0,0.0,0.0,0.0,0.0,0.0,0.0,0.0,0.0,0.0,0.0,0.0,0.0,0.0,0.0,0.0,0.0,0.0,0.0,0.0,0.0,0.0,0.0,0.0,0.0,0.0,0.0,0.0,0.0,0.0,0.0,0.0,0.0,0.0,0.0,0.0,0.0,0.0,0.0,0.0,0.0,0.0,0.0,0.0,0.0,0.0,0.0,0.0,0.0,0.0,0.0,0.0,0.0,0.0,0.0,0.0,0.0,0.0,0.0,0.0,0.0,0.0,0.0,0.0,0.0,0.0,0.0,0.0,0.0,0.0,0.0,0.0,0.0,0.0,0.0,0.0,0.0,0.0,0.0,0.0,0.0,0.0,0.0,0.0,0.0,0.0,0.0,0.0,0.0,0.0,0.0,0.0,0.0,0.0,0.0,0.0,0.0,0.0,0.0,0.0,0.0,0.0,0.0,0.0,0.0,0.0,0.0,0.0,0.0,0.0,0.0,0.0,0.0,0.0,0.0,0.0,0.0,0.0,0.0,0.0,0.0,0.0,0.0,0.0,0.0,0.0,0.0,0.0,0.0,0.0,0.0,0.0,0.0,0.0,0.0,0.0,0.0,0.0,0.0,0.0,0.0,0.0,0.0,0.0,0.0,0.0,0.0,0.0,0.0,0.0,0.0,0.0,0.0,0.0,0.0,0.0,0.0,0.0,0.0,0.0,0.0,0.0,0.0,0.0,0.0,0.0,0.0,0.0,0.0,0.0,0.0,0.0,0.0,0.0,0.0,0.0,0.0,0.0,0.0,0.0,0.0,0.0,0.0,0.0,0.0,0.0,0.0,0.0,0.0,0.0,0.0,0.0,0.0,0.0,0.0,0.0,0.0,0.0,0.0,0.0,0.0,0.0,0.0,0.0,0.0,0.0,0.0,0.0,0.0,0.0,0.0,0.0,0.0,0.0,0.0,0.0,0.0,0.0,0.0,0.0,0.0,0.0,0.0,0.0,0.0,0.0,0.0,0.0,0.0,0.0,0.0,0.0,0.0,0.0,0.0,0.0,0.0,0.0,0.0,0.0,0.0,0.0,0.0,0.0,0.0,0.0,0.0,0.0,0.0,0.0,0.0,0.0,0.0,0.0,0.0,0.0,0.0,0.0,0.0,0.0,0.0,0.0,0.0,0.0,0.0,0.0,0.0,0.0,0.0,0.0,0.0,0.0,0.0,0.0,0.0,0.0,0.0,0.0,0.0,0.0,0.0,0.0,0.0,0.0,0.0,0.0,0.0,0.0,0.0,0.0,0.0,0.0,0.0,0.0,0.0,0.0,0.0,0.0,0.0,0.0,0.0,0.0,0.0,0.0,0.0,0.0,0.0,0.0,0.0,0.0,0.0,0.0,0.0,0.0,0.0,0.0,0.0,0.0,0.0,0.0,0.0,0.0,0.0,0.0,0.0,0.0,0.0,0.0,0.0,0.0,0.0,0.0,0.0,0.0,0.0,0.0,0.0,0.0,0.0,0.0,0.0,0.0,0.0,0.0,0.0,0.0,0.0,0.0,0.0,3.119,0.0,0.0,0.0,0.0,0.0,0.0,0.0,0.0,0.0,0.0,0.0,0.0,0.0,0.0,0.0,0.0,0.0,0.0,0.0,0.0,0.0,0.0,0.0,0.0,0.0,0.0,0.0,0.0,0.0,0.0,0.0,0.0,0.0,0.0,0.0,0.0,0.0,0.0,0.0,0.0,0.0,0.0,0.0,0.0,0.0,0.0,0.0,0.0,0.0,0.0,0.0,0.0,0.0,0.0,0.0,0.0,0.0,0.0,0.0,0.0,0.0,0.0,0.0,0.0,0.0,0.0,0.0,0.0,0.0,0.0,0.0,0.0,0.0,0.0,0.0,0.0,0.0,0.0,0.0,0.0,0.0,0.0,0.0,0.0,0.0,0.0,0.0,0.0,0.0,0.0,0.0,0.0,0.0,0.0,0.0,0.0,0.0,0.0,0.0,0.0,0.0,0.0,0.0,0.0,0.0,0.0,0.0,0.0,0.0,0.0,3.119,3.119,3.119,3.119,3.119,0.0,0.0,0.0,0.0,0.0,0.0,0.0,0.0,0.0,0.0,0.0,0.0,0.0,0.0,0.0,0.0,0.0,0.0,0.0,0.0,0.0,0.0,0.0,0.0,0.0,0.0,0.0,0.0,0.0,0.0,0.0,0.0,0.0,0.0,0.0,0.0,0.0,0.0,0.0,0.0,0.0,0.0,0.0,0.0,0.0,0.0,0.0,0.0,0.0,0.0,0.0,0.0,0.0,0.0,0.0,0.0,0.0,0.0,0.0,0.0,0.0,0.0,0.0,0.0,0.0,0.0,0.0,0.0,0.0,0.0,0.0,0.0,0.0,0.0,0.0,0.0,0.0,0.0,0.0,0.0,0.0,0.0,0.0,0.0,0.0,0.0,0.0,0.0,0.0,0.0,0.0,0.0,0.0,0.0,0.0,0.0,0.0,0.0,0.0,0.0,0.0,0.0,0.0,0.0,0.0,0.0,0.0,0.0,0.0,0.0,0.0,0.0,3.119,3.119,3.119,0.0,0.0,0.0,0.0,0.0,0.0,0.0,0.0,0.0,0.0,0.0,0.0,0.0,0.0,0.0,0.0,0.0,0.0,0.0,0.0,0.0,0.0,0.0,0.0,0.0,0.0,0.0,0.0,0.0,0.0,0.0,0.0,0.0,0.0,0.0,0.0,0.0,0.0,0.0,0.0,0.0,0.0,0.0,0.0,0.0,0.0,0.0,0.0,0.0,0.0,0.0,0.0,0.0,0.0,0.0,0.0,0.0,0.0,0.0,0.0,0.0,0.0,0.0,0.0,0.0,0.0,0.0,0.0,0.0,0.0,0.0,0.0,0.0,0.0,0.0,0.0,0.0,0.0,0.0,0.0,0.0,0.0,0.0,0.0,0.0,0.0,0.0,0.0,0.0,0.0,0.0,0.0,0.0,0.0,0.0,0.0,0.0,0.0,0.0,0.0,0.0,0.0,0.0,0.0,0.0,0.0,0.0,0.0,0.0,0.0,3.1887,3.1207,3.119,0.0,3.119,0.0,0.0,0.0,0.0,0.0,0.0,0.0,0.0,0.0,0.0,0.0,0.0,0.0,0.0,0.0,0.0,0.0,0.0,0.0,0.0,0.0,0.0,0.0,0.0,0.0,0.0,0.0,0.0,0.0,0.0,0.0,0.0,0.0,0.0,0.0,0.0,0.0,0.0,0.0,0.0,0.0,0.0,0.0,0.0,0.0,0.0,0.0,0.0,0.0,0.0,0.0,0.0,0.0,0.0,0.0,0.0,0.0,0.0,0.0,0.0,0.0,0.0,0.0,0.0,0.0,0.0,0.0,0.0,0.0,0.0,0.0,0.0,0.0,0.0,0.0,0.0,0.0,0.0,0.0,0.0,0.0,0.0,0.0,0.0,0.0,0.0,0.0,0.0,0.0,0.0,0.0,0.0,0.0,0.0,0.0,0.0,0.0,0.0,0.0,0.0,0.0,0.0,0.0,0.0,0.0,0.0,0.0,0.0,0.0,0.0,3.2148,3.1853,3.1437,3.119,0.0,0.0,0.0,0.0,0.0,0.0,0.0,0.0,0.0,0.0,0.0,0.0,0.0,0.0,0.0,0.0,0.0,0.0,0.0,0.0,0.0,0.0,0.0,0.0,0.0,0.0,0.0,0.0,0.0,0.0,0.0,0.0,0.0,0.0,0.0,0.0,0.0,0.0,0.0,0.0,0.0,0.0,0.0,0.0,0.0,0.0,0.0,0.0,0.0,0.0,0.0,0.0,0.0,0.0,0.0,0.0,0.0,0.0,0.0,0.0,0.0,0.0,0.0,0.0,0.0,0.0,0.0,0.0,0.0,0.0,0.0,0.0,0.0,0.0,0.0,0.0,0.0,0.0,0.0,0.0,0.0,0.0,0.0,0.0,0.0,0.0,0.0,0.0,0.0,0.0,0.0,0.0,0.0,0.0,0.0,0.0,0.0,0.0,0.0,0.0,0.0,0.0,0.0,0.0,0.0,0.0,0.0,0.0,0.0,0.0,3.3451,3.2716,3.2293,3.1589,3.119,3.119,0.0,0.0,0.0,0.0,0.0,0.0,0.0,0.0,0.0,0.0,0.0,0.0,0.0,0.0,0.0,0.0,0.0,0.0,0.0,0.0,0.0,0.0,0.0,0.0,0.0,0.0,0.0,0.0,0.0,0.0,0.0,0.0,0.0,0.0,0.0,0.0,0.0,0.0,0.0,0.0,0.0,0.0,0.0,0.0,0.0,0.0,0.0,0.0,0.0,0.0,0.0,0.0,0.0,0.0,0.0,0.0,0.0,0.0,0.0,0.0,0.0,0.0,0.0,0.0,0.0,0.0,0.0,0.0,0.0,0.0,0.0,0.0,0.0,0.0,0.0,0.0,0.0,0.0,0.0,0.0,0.0,0.0,0.0,0.0,0.0,0.0,0.0,0.0,0.0,0.0,0.0,0.0,0.0,0.0,0.0,0.0,0.0,0.0,0.0,0.0,0.0,0.0,0.0,0.0,0.0,0.0,0.0,0.0,3.4539,3.4432,3.3721,3.2361,3.1599,3.119,0.0,0.0,0.0,0.0,0.0,0.0,0.0,0.0,0.0,0.0,0.0,0.0,0.0,0.0,0.0,0.0,0.0,0.0,0.0,0.0,0.0,0.0,0.0,0.0,0.0,0.0,0.0,0.0,0.0,0.0,0.0,0.0,0.0,0.0,0.0,0.0,0.0,0.0,0.0,0.0,0.0,0.0,0.0,0.0,0.0,0.0,0.0,0.0,0.0,0.0,0.0,0.0,0.0,0.0,0.0,0.0,0.0,0.0,0.0,0.0,0.0,0.0,0.0,0.0,0.0,0.0,0.0,0.0,0.0,0.0,0.0,0.0,0.0,0.0,0.0,0.0,0.0,0.0,0.0,0.0,0.0,0.0,0.0,0.0,0.0,0.0,0.0,0.0,0.0,0.0,0.0,0.0,0.0,0.0,0.0,0.0,0.0,0.0,0.0,0.0,0.0,0.0,0.0,0.0,0.0,0.0,0.0,0.0,0.0,3.5188,3.4742,3.4026,3.3061,3.273,3.2601,0.0,0.0,0.0,0.0,0.0,0.0,0.0,0.0,0.0,0.0,0.0,0.0,0.0,0.0,0.0,0.0,0.0,0.0,0.0,0.0,0.0,0.0,0.0,0.0,0.0,0.0,0.0,0.0,0.0,0.0,0.0,0.0,0.0,0.0,0.0,0.0,0.0,0.0,0.0,0.0,0.0,0.0,0.0,0.0,0.0,0.0,0.0,0.0,0.0,0.0,0.0,0.0,0.0,0.0,0.0,0.0,0.0,0.0,0.0,0.0,0.0,0.0,0.0,0.0,0.0,0.0,0.0,0.0,0.0,0.0,0.0,0.0,0.0,0.0,0.0,0.0,0.0,0.0,0.0,0.0,0.0,0.0,0.0,0.0,0.0,0.0,0.0,0.0,0.0,0.0,0.0,0.0,0.0,0.0,0.0,0.0,0.0,0.0,0.0,0.0,0.0,0.0,0.0,0.0,0.0,0.0,0.0,0.0,0.0,3.5566,0.0,3.4263,3.3795,3.3514,3.3389,0.0,0.0,0.0,0.0,0.0,0.0,0.0,0.0,0.0,0.0,0.0,0.0,0.0,0.0,0.0,0.0,0.0,0.0,0.0,0.0,0.0,0.0,0.0,0.0,0.0,0.0,0.0,0.0,0.0,0.0,0.0,0.0,0.0,0.0,0.0,0.0,0.0,0.0,0.0,0.0,0.0,0.0,0.0,0.0,0.0,0.0,0.0,0.0,0.0,0.0,0.0,0.0,0.0,0.0,0.0,0.0,0.0,0.0,0.0,0.0,0.0,0.0,0.0,0.0,0.0,0.0,0.0,0.0,0.0,0.0,0.0,0.0,0.0,0.0,0.0,0.0,0.0,0.0,0.0,0.0,0.0,0.0,0.0,0.0,0.0,0.0,0.0,0.0,0.0,0.0,0.0,0.0,0.0,0.0,0.0,0.0,0.0,0.0,0.0,0.0,0.0,0.0,0.0,0.0,0.0,0.0,0.0,0.0,3.5628,3.5566,3.4895,3.4533,3.4483,3.3852,3.3463,0.0,0.0,0.0,0.0,0.0,0.0,0.0,0.0,0.0,0.0,0.0,0.0,0.0,0.0,0.0,0.0,0.0,0.0,0.0,0.0,0.0,0.0,0.0,0.0,0.0,0.0,0.0,0.0,0.0,0.0,0.0,0.0,0.0,0.0,0.0,0.0,0.0,0.0,0.0,0.0,0.0,0.0,0.0,0.0,0.0,0.0,0.0,0.0,0.0,0.0,0.0,0.0,0.0,0.0,0.0,0.0,0.0,0.0,0.0,0.0,0.0,0.0,0.0,0.0,0.0,0.0,0.0,0.0,0.0,0.0,0.0,0.0,0.0,0.0,0.0,0.0,0.0,0.0,0.0,0.0,0.0,0.0,0.0,0.0,0.0,0.0,0.0,0.0,0.0,0.0,0.0,0.0,0.0,0.0,0.0,0.0,0.0,0.0,0.0,0.0,0.0,0.0,0.0,0.0,0.0,0.0,0.0,0.0,0.0,3.56,3.5363,3.5284,3.5256,3.5053,3.4906,0.0,0.0,0.0,0.0,0.0,0.0,0.0,0.0,0.0,0.0,0.0,0.0,0.0,0.0,0.0,0.0,0.0,0.0,0.0,0.0,0.0,0.0,0.0,0.0,0.0,0.0,0.0,0.0,0.0,0.0,0.0,0.0,0.0,0.0,0.0,0.0,0.0,0.0,0.0,0.0,0.0,0.0,0.0,0.0,0.0,0.0,0.0,0.0,0.0,0.0,0.0,0.0,0.0,0.0,0.0,0.0,0.0,0.0,0.0,0.0,0.0,0.0,0.0,0.0,0.0,0.0,0.0,0.0,0.0,0.0,0.0,0.0,0.0,0.0,0.0,0.0,0.0,0.0,0.0,0.0,0.0,0.0,0.0,0.0,0.0,0.0,0.0,0.0,0.0,0.0,0.0,0.0,0.0,0.0,0.0,0.0,0.0,0.0,0.0,0.0,0.0,0.0,0.0,0.0,0.0,0.0,0.0,0.0,0.0,3.6079,3.6321,3.6456,3.6473,3.6186,3.6045,3.6062,0.0,0.0,0.0,0.0,0.0,0.0,0.0,0.0,0.0,0.0,0.0,0.0,0.0,0.0,0.0,0.0,0.0,0.0,0.0,0.0,0.0,0.0,0.0,0.0,0.0,0.0,0.0,0.0,0.0,0.0,0.0,0.0,0.0,0.0,0.0,0.0,0.0,0.0,0.0,0.0,0.0,0.0,0.0,0.0,0.0,0.0,0.0,0.0,0.0,0.0,0.0,0.0,0.0,0.0,0.0,0.0,0.0,0.0,0.0,0.0,0.0,0.0,0.0,0.0,0.0,0.0,0.0,0.0,0.0,0.0,0.0,0.0,0.0,0.0,0.0,0.0,0.0,0.0,0.0,0.0,0.0,0.0,0.0,0.0,0.0,0.0,0.0,0.0,0.0,0.0,0.0,0.0,0.0,0.0,0.0,0.0,0.0,0.0,0.0,0.0,0.0,0.0,0.0,0.0,0.0,0.0,0.0,0.0,3.6931,3.7635,3.7961,3.7872,3.7173,3.6801,0.0,0.0,0.0,0.0,0.0,0.0,0.0,0.0,0.0,0.0,0.0,0.0,0.0,0.0,0.0,0.0,0.0,0.0,0.0,0.0,0.0,0.0,0.0,0.0,0.0,0.0,0.0,0.0,0.0,0.0,0.0,0.0,0.0,0.0,0.0,0.0,0.0,0.0,0.0,0.0,0.0,0.0,0.0,0.0,0.0,0.0,0.0,0.0,0.0,0.0,0.0,0.0,0.0,0.0,0.0,0.0,0.0,0.0,0.0,0.0,0.0,0.0,0.0,0.0,0.0,0.0,0.0,0.0,0.0,0.0,0.0,0.0,0.0,0.0,0.0,0.0,0.0,0.0,0.0,0.0,0.0,0.0,0.0,0.0,0.0,0.0,0.0,0.0,0.0,0.0,0.0,0.0,0.0,0.0,0.0,0.0,0.0,0.0,0.0,0.0,0.0,0.0,0.0,0.0,0.0,0.0,0.0,0.0,0.0,3.8425,3.9153,3.9017,3.7939,3.719,3.6801,0.0,0.0,0.0,0.0,0.0,0.0,0.0,0.0,0.0,0.0,0.0,0.0,0.0,0.0,0.0,0.0,0.0,0.0,0.0,0.0,0.0,0.0,0.0,0.0,0.0,0.0,0.0,0.0,0.0,0.0,0.0,0.0,0.0,0.0,0.0,0.0,0.0,0.0,0.0,0.0,0.0,0.0,0.0,0.0,0.0,0.0,0.0,0.0,0.0,0.0,0.0,0.0,0.0,0.0,0.0,0.0,0.0,0.0,0.0,0.0,0.0,0.0,0.0,0.0,0.0,0.0,0.0,0.0,0.0,0.0,0.0,0.0,0.0,0.0,0.0,0.0,0.0,0.0,0.0,0.0,0.0,0.0,0.0,0.0,0.0,0.0,0.0,0.0,0.0,0.0,0.0,0.0,0.0,0.0,0.0,0.0,0.0,0.0,0.0,0.0,0.0,0.0,0.0,0.0,0.0,0.0,0.0,0.0,3.8261,3.8983,3.9728,3.9694,3.8853,3.8103,3.7579,0.0,0.0,0.0,0.0,0.0,0.0,0.0,0.0,0.0,0.0,0.0,0.0,0.0,0.0,0.0,0.0,0.0,0.0,0.0,0.0,0.0,0.0,0.0,0.0,0.0,0.0,0.0,0.0,0.0,0.0,0.0,0.0,0.0,0.0,0.0,0.0,0.0,0.0,0.0,0.0,0.0,0.0,0.0,0.0,0.0,0.0,0.0,0.0,0.0,0.0,0.0,0.0,0.0,0.0,0.0,0.0,0.0,0.0,0.0,0.0,0.0,0.0,0.0,0.0,0.0,0.0,0.0,0.0,0.0,0.0,0.0,0.0,0.0,0.0,0.0,0.0,0.0,0.0,0.0,0.0,0.0,0.0,0.0,0.0,0.0,0.0,0.0,0.0,0.0,0.0,0.0,0.0,0.0,0.0,0.0,0.0,0.0,0.0,0.0,0.0,0.0,0.0,0.0,0.0,0.0,0.0,0.0,0.0,3.8367,3.9102,3.9762,4.0113,4.0079,3.9389,3.865,0.0,0.0,0.0,0.0,0.0,0.0,0.0,0.0,0.0,0.0,0.0,0.0,0.0,0.0,0.0,0.0,0.0,0.0,0.0,0.0,0.0,0.0,0.0,0.0,0.0,0.0,0.0,0.0,0.0,0.0,0.0,0.0,0.0,0.0,0.0,0.0,0.0,0.0,0.0,0.0,0.0,0.0,0.0,0.0,0.0,0.0,0.0,0.0,0.0,0.0,0.0,0.0,0.0,0.0,0.0,0.0,0.0,0.0,0.0,0.0,0.0,0.0,0.0,0.0,0.0,0.0,0.0,0.0,0.0,0.0,0.0,0.0,0.0,0.0,0.0,0.0,0.0,0.0,0.0,0.0,0.0,0.0,0.0,0.0,0.0,0.0,0.0,0.0,0.0,0.0,0.0,0.0,0.0,0.0,0.0,0.0,0.0,0.0,0.0,0.0,0.0,0.0,0.0,0.0,0.0,0.0,0.0,0.0,3.9136,3.9859,4.0028,4.0113,4.0113,3.9389,3.8667,0.0,0.0,0.0,0.0,0.0,0.0,0.0,0.0,0.0,0.0,0.0,0.0,0.0,0.0,0.0,0.0,0.0,0.0,0.0,0.0,0.0,0.0,0.0,0.0,0.0,0.0,0.0,0.0,0.0,0.0,0.0,0.0,0.0,0.0,0.0,0.0,0.0,0.0,0.0,0.0,0.0,0.0,0.0,0.0,0.0,0.0,0.0,0.0,3.6499,0.0,0.0,0.0,0.0,0.0,0.0,0.0,0.0,0.0,0.0,0.0,0.0,0.0,0.0,0.0,0.0,0.0,0.0,0.0,0.0,0.0,0.0,0.0,0.0,0.0,0.0,0.0,0.0,0.0,0.0,0.0,0.0,0.0,0.0,0.0,0.0,0.0,0.0,0.0,0.0,0.0,0.0,0.0,0.0,0.0,0.0,0.0,0.0,0.0,0.0,0.0,0.0,0.0,0.0,0.0,0.0,0.0,0.0,0.0,3.9356,4.0079,4.0113,4.0113,4.0096,3.9723,3.9186,0.0,0.0,0.0,0.0,0.0,0.0,0.0,0.0,0.0,0.0,0.0,0.0,0.0,0.0,0.0,0.0,0.0,0.0,0.0,0.0,0.0,0.0,0.0,0.0,0.0,0.0,0.0,0.0,0.0,0.0,0.0,0.0,0.0,0.0,0.0,0.0,0.0,0.0,0.0,0.0,0.0,0.0,0.0,0.0,0.0,0.0,0.0,0.0,0.0,0.0,0.0,0.0,0.0,0.0,0.0,0.0,0.0,0.0,0.0,0.0,0.0,0.0,0.0,0.0,0.0,0.0,0.0,0.0,0.0,0.0,0.0,0.0,0.0,0.0,0.0,0.0,0.0,0.0,0.0,0.0,0.0,0.0,0.0,0.0,0.0,0.0,0.0,0.0,0.0,0.0,0.0,0.0,0.0,0.0,0.0,0.0,0.0,0.0,0.0,0.0,0.0,0.0,0.0,0.0,0.0,0.0,0.0,3.8826,3.9524,4.0125,4.0163,4.0133,4.0138,4.0138,3.9837,3.9186,0.0,0.0,0.0,0.0,0.0,0.0,0.0,0.0,0.0,0.0,0.0,0.0,0.0,0.0,0.0,0.0,0.0,0.0,0.0,0.0,0.0,0.0,0.0,0.0,0.0,0.0,0.0,0.0,0.0,0.0,0.0,0.0,0.0,0.0,0.0,0.0,0.0,0.0,3.6395,3.7222,0.0,0.0,0.0,0.0,0.0,0.0,0.0,0.0,3.9493,0.0,0.0,0.0,0.0,0.0,0.0,0.0,0.0,0.0,0.0,0.0,0.0,0.0,0.0,0.0,0.0,0.0,0.0,0.0,0.0,0.0,0.0,0.0,0.0,0.0,0.0,0.0,0.0,0.0,0.0,0.0,0.0,0.0,0.0,0.0,0.0,0.0,0.0,0.0,0.0,0.0,0.0,0.0,0.0,0.0,0.0,0.0,0.0,0.0,0.0,0.0,0.0,0.0,0.0,0.0,0.0,3.8982,3.9724,4.0194,4.0419,4.0419,4.0375,4.0263,4.0251,4.0162,3.9893,0.0,0.0,0.0,0.0,0.0,0.0,0.0,0.0,0.0,0.0,0.0,0.0,0.0,0.0,0.0,0.0,0.0,0.0,0.0,0.0,0.0,0.0,0.0,0.0,0.0,0.0,0.0,0.0,0.0,0.0,0.0,0.0,0.0,0.0,0.0,0.0,0.0,0.0,0.0,3.7881,3.8295,0.0,0.0,0.0,0.0,0.0,0.0,0.0,0.0,3.9985,0.0,0.0,0.0,0.0,0.0,0.0,0.0,0.0,0.0,0.0,0.0,0.0,0.0,0.0,0.0,0.0,0.0,0.0,0.0,0.0,0.0,0.0,0.0,0.0,0.0,0.0,0.0,0.0,0.0,0.0,0.0,0.0,0.0,0.0,0.0,0.0,0.0,0.0,0.0,0.0,0.0,0.0,0.0,0.0,0.0,0.0,0.0,0.0,0.0,0.0,0.0,0.0,0.0,0.0,0.0,3.9399,4.0206,4.0643,4.0704,4.0631,4.0576,4.0502,4.0362,4.03,0.0,0.0,0.0,0.0,0.0,0.0,0.0,0.0,0.0,0.0,0.0,0.0,0.0,0.0,0.0,0.0,0.0,0.0,0.0,0.0,0.0,0.0,0.0,0.0,0.0,0.0,0.0,0.0,0.0,0.0,0.0,0.0,0.0,0.0,0.0,0.0,0.0,0.0,0.0,0.0,3.8515,3.9045,3.9492,0.0,0.0,0.0,0.0,0.0,0.0,4.1497,4.1415,0.0,0.0,0.0,0.0,0.0,0.0,0.0,0.0,0.0,0.0,0.0,0.0,0.0,0.0,0.0,0.0,0.0,0.0,0.0,0.0,0.0,0.0,0.0,0.0,0.0,0.0,0.0,0.0,0.0,0.0,0.0,0.0,0.0,0.0,0.0,0.0,0.0,0.0,0.0,0.0,0.0,0.0,0.0,0.0,0.0,0.0,0.0,0.0,0.0,0.0,0.0,0.0,0.0,0.0,0.0,3.9922,4.0642,4.0995,4.1035,4.0923,4.0823,4.0787,4.0571,4.0473,0.0,0.0,0.0,0.0,0.0,0.0,0.0,0.0,0.0,0.0,0.0,0.0,0.0,0.0,0.0,0.0,0.0,0.0,0.0,0.0,0.0,0.0,0.0,0.0,0.0,0.0,0.0,0.0,0.0,0.0,0.0,0.0,0.0,0.0,0.0,0.0,0.0,0.0,0.0,0.0,0.0,3.976,4.0269,4.0971,0.0,0.0,0.0,0.0,4.2141,4.2768,0.0,0.0,0.0,0.0,0.0,0.0,0.0,0.0,0.0,0.0,0.0,0.0,0.0,0.0,0.0,0.0,0.0,0.0,0.0,0.0,0.0,0.0,0.0,0.0,0.0,0.0,0.0,0.0,0.0,0.0,0.0,0.0,0.0,0.0,0.0,0.0,0.0,0.0,0.0,0.0,0.0,0.0,0.0,0.0,0.0,0.0,0.0,0.0,0.0,0.0,0.0,0.0,0.0,0.0,0.0,0.0,4.0984,4.1225,4.1379,4.1504,4.1392,4.1278,4.114,4.1064,4.0905,0.0,0.0,0.0,0.0,0.0,0.0,0.0,0.0,0.0,0.0,0.0,0.0,0.0,0.0,0.0,0.0,0.0,0.0,0.0,0.0,0.0,0.0,0.0,0.0,0.0,0.0,0.0,0.0,0.0,0.0,0.0,0.0,0.0,0.0,0.0,0.0,0.0,0.0,0.0,0.0,0.0,4.0469,4.1878,4.2434,4.2654,0.0,0.0,4.3005,4.3051,4.325,0.0,0.0,0.0,0.0,0.0,0.0,0.0,0.0,0.0,0.0,0.0,0.0,0.0,0.0,0.0,0.0,0.0,0.0,0.0,0.0,0.0,0.0,0.0,0.0,0.0,0.0,0.0,0.0,0.0,0.0,0.0,0.0,0.0,0.0,0.0,0.0,0.0,0.0,0.0,0.0,0.0,0.0,0.0,0.0,0.0,0.0,0.0,0.0,0.0,0.0,0.0,0.0,0.0,0.0,0.0,4.0833,4.1677,4.1842,4.1927,4.1977,4.1795,4.1646,4.1602,4.1386,4.1238,0.0,0.0,0.0,0.0,0.0,0.0,0.0,0.0,0.0,0.0,0.0,0.0,0.0,0.0,0.0,0.0,0.0,0.0,0.0,0.0,0.0,0.0,0.0,0.0,0.0,0.0,0.0,0.0,0.0,0.0,0.0,0.0,0.0,0.0,0.0,0.0,0.0,0.0,0.0,0.0,0.0,0.0,4.2455,4.291,0.0,0.0,0.0,4.3331,4.3357,0.0,0.0,0.0,0.0,0.0,0.0,0.0,0.0,0.0,0.0,0.0,0.0,0.0,0.0,0.0,0.0,0.0,0.0,0.0,0.0,0.0,0.0,0.0,0.0,0.0,0.0,0.0,0.0,0.0,0.0,0.0,0.0,0.0,0.0,0.0,0.0,0.0,0.0,0.0,0.0,0.0,0.0,0.0,0.0,0.0,0.0,0.0,0.0,0.0,0.0,0.0,0.0,0.0,0.0,0.0,0.0,0.0,4.2169,4.2318,4.2379,4.2369,4.2156,4.2023,4.2023,4.1766,0.0,0.0,0.0,0.0,0.0,0.0,0.0,0.0,0.0,0.0,0.0,0.0,0.0,0.0,0.0,0.0,0.0,0.0,0.0,0.0,0.0,0.0,0.0,0.0,0.0,0.0,0.0,4.0809,0.0,0.0,0.0,0.0,0.0,0.0,0.0,0.0,0.0,0.0,0.0,0.0,0.0,0.0,4.1307,4.2776,4.3133,4.3277,0.0,0.0,4.3446,4.3497,4.3488,4.3304,0.0,0.0,0.0,0.0,0.0,0.0,0.0,0.0,0.0,0.0,0.0,0.0,0.0,0.0,0.0,0.0,0.0,0.0,0.0,0.0,0.0,0.0,0.0,0.0,0.0,0.0,0.0,0.0,0.0,0.0,0.0,0.0,0.0,0.0,0.0,0.0,0.0,0.0,0.0,0.0,0.0,0.0,0.0,0.0,0.0,0.0,0.0,0.0,0.0,0.0,0.0,0.0,0.0,0.0,0.0,4.2374,4.2502,4.2589,4.258,4.2442,4.2371,4.2371,4.2279,4.2176,0.0,0.0,0.0,0.0,0.0,0.0,0.0,0.0,0.0,0.0,0.0,0.0,0.0,0.0,0.0,0.0,0.0,0.0,0.0,0.0,0.0,0.0,0.0,0.0,0.0,0.0,0.0,0.0,0.0,0.0,0.0,0.0,0.0,0.0,0.0,0.0,0.0,0.0,0.0,0.0,0.0,4.2123,4.3041,4.3305,4.3376,0.0,0.0,4.3479,4.3488,4.3488,4.3488,4.3414,0.0,0.0,0.0,0.0,0.0,0.0,0.0,0.0,0.0,0.0,0.0,0.0,0.0,0.0,0.0,0.0,0.0,0.0,0.0,0.0,0.0,0.0,0.0,0.0,0.0,0.0,0.0,0.0,0.0,0.0,0.0,0.0,0.0,0.0,0.0,0.0,0.0,0.0,0.0,0.0,0.0,0.0,0.0,0.0,0.0,0.0,0.0,0.0,0.0,0.0,0.0,0.0,0.0,4.2768,4.2882,4.2965,4.2984,4.2957,4.288,4.2794,4.271,4.2631,4.258,0.0,0.0,0.0,0.0,0.0,0.0,0.0,0.0,0.0,0.0,0.0,0.0,0.0,0.0,0.0,0.0,0.0,0.0,0.0,0.0,0.0,0.0,0.0,0.0,0.0,0.0,0.0,0.0,4.3149,4.2976,4.2083,0.0,0.0,0.0,0.0,0.0,0.0,0.0,0.0,0.0,0.0,4.2391,4.3213,4.3393,0.0,0.0,4.348,4.3488,4.3488,4.3488,4.3488,4.3488,4.258,0.0,0.0,0.0,0.0,0.0,0.0,0.0,0.0,0.0,0.0,0.0,0.0,0.0,0.0,0.0,0.0,0.0,0.0,0.0,0.0,0.0,0.0,0.0,0.0,0.0,0.0,0.0,0.0,0.0,0.0,0.0,0.0,0.0,0.0,0.0,0.0,0.0,0.0,0.0,0.0,0.0,0.0,0.0,0.0,0.0,0.0,0.0,0.0,0.0,0.0,0.0,0.0,4.3786,4.3926,4.3926,4.3944,4.3926,4.387,4.3686,4.3367,4.33,4.3172,0.0,0.0,0.0,0.0,0.0,0.0,0.0,0.0,0.0,0.0,0.0,0.0,0.0,0.0,0.0,0.0,0.0,0.0,0.0,0.0,0.0,0.0,0.0,0.0,0.0,0.0,0.0,0.0,4.3429,4.3091,4.2198,0.0,0.0,0.0,0.0,0.0,0.0,0.0,0.0,0.0,0.0,4.2796,4.3337,4.3463,4.3488,4.3488,4.3488,4.3488,4.3488,4.3488,4.3488,4.3488,0.0,0.0,0.0,0.0,0.0,0.0,0.0,0.0,0.0,0.0,0.0,0.0,0.0,0.0,0.0,0.0,0.0,0.0,0.0,0.0,0.0,0.0,0.0,0.0,0.0,0.0,0.0,0.0,0.0,0.0,4.6543,0.0,0.0,0.0,0.0,0.0,0.0,0.0,0.0,0.0,0.0,0.0,0.0,0.0,0.0,0.0,0.0,0.0,0.0,0.0,0.0,0.0,0.0,4.5512,4.5548,4.5503,4.5512,4.5521,4.553,4.5147,4.4418,4.4372,4.4017,4.3233,0.0,0.0,0.0,0.0,0.0,0.0,0.0,0.0,0.0,0.0,0.0,0.0,0.0,0.0,0.0,0.0,0.0,0.0,0.0,0.0,0.0,0.0,0.0,0.0,0.0,0.0,4.3506,4.3479,4.3185,0.0,0.0,0.0,0.0,0.0,0.0,0.0,0.0,0.0,0.0,4.2949,4.3488,4.3543,4.3506,4.3588,4.3551,4.3543,4.3524,4.357,4.3524,4.3488,0.0,0.0,0.0,0.0,0.0,0.0,0.0,0.0,0.0,0.0,0.0,0.0,0.0,0.0,0.0,0.0,0.0,0.0,0.0,0.0,0.0,0.0,0.0,0.0,0.0,0.0,0.0,4.8215,4.83,0.0,0.0,0.0,0.0,0.0,0.0,0.0,0.0,0.0,0.0,0.0,4.7726,4.7798,0.0,0.0,0.0,0.0,0.0,0.0,0.0,0.0,0.0,0.0,0.0,0.0,4.5754,4.5801,4.5782,4.581,4.5801,4.5801,4.5654,4.5351,4.5333,4.4912,4.4026,0.0,0.0,0.0,0.0,0.0,0.0,0.0,0.0,0.0,0.0,0.0,0.0,0.0,0.0,0.0,0.0,0.0,0.0,0.0,0.0,0.0,0.0,0.0,0.0,0.0,4.3523,0.0,0.0,0.0,0.0,0.0,0.0,0.0,0.0,0.0,0.0,0.0,4.3338,4.3861,4.4678,4.521,4.5219,4.5272,4.5288,0.0,0.0,0.0,0.0,0.0,0.0,0.0,0.0,0.0,0.0,0.0,0.0,0.0,0.0,4.3778,4.1587,4.1174,4.1209,4.1272,0.0,0.0,0.0,0.0,0.0,0.0,0.0,0.0,0.0,0.0,0.0,0.0,0.0,0.0,4.9406,0.0,4.9167,0.0,0.0,0.0,0.0,0.0,0.0,0.0,0.0,4.8291,4.8186,4.802,4.806,4.807,0.0,4.8092,4.7571,0.0,0.0,0.0,0.0,0.0,0.0,0.0,0.0,4.669,4.6746,4.6746,4.6746,4.6746,4.6728,4.659,4.6268,4.5993,4.5544,4.494,4.5004,4.4766,0.0,0.0,0.0,0.0,0.0,0.0,0.0,0.0,0.0,0.0,0.0,0.0,0.0,0.0,0.0,0.0,0.0,0.0,0.0,0.0,0.0,0.0,0.0,4.3617,0.0,0.0,0.0,0.0,0.0,0.0,0.0,0.0,0.0,4.3387,4.4008,4.4699,4.5224,4.5802,4.616,4.616,0.0,0.0,0.0,0.0,0.0,0.0,0.0,4.6229,4.6187,4.6108,4.6063,4.617,4.6204,4.6237,4.6289,0.0,0.0,4.3359,4.2943,4.2991,4.3085,4.3143,4.3167,4.3177,4.3167,4.3185,0.0,0.0,0.0,0.0,0.0,0.0,0.0,0.0,4.9766,4.9922,0.0,5.0122,0.0,0.0,0.0,0.0,0.0,5.0365,0.0,0.0,4.926,4.8841,4.815,4.8231,4.8252,4.8262,4.8295,4.8278,4.826,4.8209,0.0,0.0,0.0,0.0,0.0,0.0,4.8315,4.826,4.826,4.8288,4.8278,4.8278,4.7911,4.7149,4.6406,4.5993,4.5938,4.5938,4.592,4.5883,4.5865,0.0,0.0,0.0,0.0,0.0,0.0,0.0,0.0,0.0,0.0,0.0,0.0,0.0,0.0,0.0,0.0,0.0,0.0,0.0,0.0,4.3773,0.0,0.0,0.0,0.0,0.0,0.0,0.0,0.0,0.0,0.0,4.5234,4.5804,4.6241,4.6249,0.0,0.0,0.0,0.0,4.6724,4.6816,4.6776,4.6757,4.6757,4.6738,4.6637,4.6454,0.0,0.0,4.6402,4.6402,4.65,4.6583,4.6681,4.6515,4.6319,4.6148,4.6151,4.6197,4.6215,4.645,4.6469,4.6187,4.6272,5.0624,0.0,0.0,0.0,0.0,5.1424,5.1601,5.1636,5.1824,5.1936,5.1933,5.1402,0.0,0.0,0.0,0.0,0.0,0.0,5.0564,5.0363,5.0344,5.0216,4.9978,4.945,4.9194,4.9176,4.858,4.8315,4.8315,4.8267,4.8157,4.7948,0.0,0.0,0.0,0.0,4.8315,4.8315,4.8315,4.8315,4.8315,4.8315,4.8186,4.7957,4.7746,4.7342,4.6792,4.6755,4.6498,4.592,4.5902,0.0,0.0,0.0,0.0,0.0,0.0,0.0,0.0,0.0,0.0,0.0,0.0,0.0,0.0,0.0,0.0,0.0,0.0,0.0,4.4714,4.4749,4.4613,0.0,0.0,0.0,0.0,0.0,0.0,0.0,0.0,0.0,4.8345,4.7802,4.7417,0.0,0.0,4.9299,4.9318,4.9904,5.0362,5.0368,4.9891,0.0,4.9535,4.8955,4.8498,4.845,4.8401,4.8379,4.8379,4.841,4.8466,4.8554,4.857,4.8546,4.8442,4.7428,4.6714,4.6713,4.6809,4.6844,4.6862,4.6862,4.6873,5.2024,5.1763,5.1909,5.203,5.2162,5.2491,5.2629,5.2629,5.2757,5.2828,5.2835,5.2371,5.2192,5.2217,5.1815,0.0,0.0,0.0,5.1591,5.1261,5.1279,5.1114,5.0784,5.0306,5.0078,5.0041,4.9536,4.9287,4.9287,4.9287,4.9287,4.926,0.0,0.0,4.8315,4.8315,4.8315,4.8315,4.8315,4.8315,4.8315,4.8315,4.8315,4.8315,4.8315,4.8076,4.7617,4.7581,4.7342,4.6874,4.6856,4.6709,0.0,0.0,0.0,0.0,0.0,0.0,0.0,0.0,0.0,0.0,0.0,4.4182,4.4504,0.0,0.0,0.0,4.5995,4.6186,4.5842,4.5893,0.0,0.0,0.0,0.0,0.0,0.0,0.0,4.8174,4.9129,4.9984,5.065,5.0168,4.9695,4.9576,5.0513,5.1218,5.1207,0.0,5.2111,5.2122,5.1726,5.1413,5.1405,5.0953,5.0542,5.0511,5.0415,5.0364,5.0433,5.0454,5.0508,5.0576,5.0598,5.0598,5.0591,4.9706,4.8731,4.8141,4.8083,4.8155,4.8155,4.8162,4.8162,5.262,5.262,5.2542,5.2544,5.2556,5.2735,5.2824,5.2806,5.2828,5.2912,5.3009,5.302,5.3082,5.3196,5.3196,0.0,5.3196,5.3196,5.2784,5.2115,5.2097,5.1701,5.1022,5.093,5.0894,5.0894,5.0839,5.082,5.0784,5.0802,5.082,5.0765,4.9251,4.8471,4.8416,4.8416,4.8406,4.8416,4.8416,4.8453,4.8498,4.8498,4.8517,4.8517,4.8434,4.8406,4.8416,4.8333,4.8315,4.8315,4.8315,4.7966,4.7241,0.0,0.0,0.0,0.0,0.0,0.0,0.0,0.0,0.0,0.0,0.0,0.0,0.0,0.0,0.0,4.6738,0.0,4.7012,4.7136,0.0,0.0,0.0,4.7458,4.7535,4.7662,4.8339,4.9965,0.0,0.0,5.2337,5.2665,5.2657,5.24,5.2389,5.2418,5.2425,5.257,5.266,5.2805,5.2673,5.2616,5.2603,5.2463,5.2287,5.2153,5.2201,5.2084,5.2173,5.2207,5.23,5.2269,5.2404,5.2373,5.2411,5.2284,5.1992,5.023,5.0046,5.0121,5.0121,5.0121,5.0121,5.2761,5.2761,5.2846,5.2824,5.2728,5.2872,5.2955,5.2948,5.3042,5.3114,5.3153,5.3153,5.3175,5.3196,5.3196,5.3196,5.3196,5.3196,5.3104,5.2931,5.292,5.2821,5.2609,5.1995,5.1712,5.1693,5.1096,5.082,5.082,5.082,5.082,5.0784,5.0388,4.9903,4.9325,4.9288,4.9298,4.9288,4.9288,4.9601,5.0168,5.0215,5.0215,5.0196,4.9609,4.9298,4.9288,4.8636,4.8315,4.8315,4.8315,4.8223,4.8003,4.7443,0.0,0.0,0.0,0.0,0.0,0.0,0.0,0.0,0.0,4.604,4.6244,0.0,4.7458,0.0,4.8446,4.873,4.8097,4.817,0.0,0.0,4.803,4.8758,4.9489,5.0157,5.0969,5.2126,5.281,5.3352,5.3802,5.4394,5.4771,5.4683,5.4,5.3549,5.3585,5.4157,5.4552,5.4529,5.4078,5.3729,5.3665,5.3092,5.2665,5.2486,5.2432,5.2406,5.2465,5.2446,5.2487,5.2582,5.2628,5.2647,5.2736,5.2742,5.269,5.2227,5.2094,5.2044,5.2037,5.2024,5.2024,5.4038,5.4012,5.3748,5.3573,5.35,5.3225,5.3092,5.3092,5.3164,5.3196,5.3196,5.3196,5.3196,5.3196,5.3196,5.3196,5.3196,5.3196,5.3196,5.3196,5.3196,5.3196,5.3177,5.2747,5.2546,5.2527,5.2076,5.1867,5.1875,5.1875,5.1875,5.1867,5.1856,5.1463,5.0684,5.0316,5.0133,5.0133,5.0133,5.0372,5.0784,5.082,5.082,5.0802,5.0372,5.0123,5.0133,4.9325,4.8875,4.8875,4.8508,4.8315,4.8296,4.7931,4.7776,0.0,0.0,0.0,0.0,0.0,0.0,0.0,0.0,0.0,0.0,0.0,4.9363,4.9863,5.054,5.0752,5.0272,5.0378,5.0304,4.991,5.0333,5.0901,5.144,5.1909,5.2519,5.346,5.3966,5.4382,5.4795,5.5222,5.5523,5.5504,5.4981,5.4639,5.4689,5.5065,5.5358,5.5351,5.5,5.4719,5.4719,5.4286,5.3912,5.3849,5.383,5.383,5.3849,5.3837,5.3856,5.3925,5.3962,5.3949,5.4011,5.4034,5.4058,5.4052,5.4034,5.3712,5.3006,5.2828,5.2847,5.5603,5.553,5.4851,5.4564,5.4491,5.3812,5.3379,5.3196,5.3196,5.3196,5.3196,5.3196,5.3196,5.3196,5.3196,5.3196,5.3196,5.3196,5.3196,5.3196,5.3196,5.3196,5.3196,5.3196,5.3196,5.3196,5.3196,5.3196,5.3196,5.3196,5.3206,5.3198,5.3217,5.286,5.2212,5.1485,5.1089,5.0949,5.1049,5.1114,5.1114,5.1114,5.1114,5.1114,5.1004,5.0949,5.093,5.0188,4.9729,4.9729,4.9031,4.8637,4.8666,4.8788,4.8882,0.0,4.9758,0.0,0.0,0.0,0.0,0.0,0.0,0.0,0.0,5.048,5.139,5.2281,5.2479,5.2561,5.2548,5.273,5.2816,5.2835,5.293,5.3036,5.3157,5.3182,5.3508,5.4369,5.4484,5.4766,5.5399,5.5527,5.5527,5.5533,5.5508,5.542,5.5508,5.5497,5.551,5.5527,5.5527,5.5412,5.5439,5.5452,5.5389,5.5441,5.5365,5.5523,5.539,5.541,5.546,5.5452,5.5376,5.5439,5.5502,5.547,5.5495,5.5399,5.5433,5.5022,5.382,5.3472,5.333,5.5603,5.5585,5.5438,5.5365,5.5365,5.5199,5.4399,5.3196,5.3196,5.3196,5.3196,5.3196,5.3196,5.3196,5.3196,5.3196,5.3196,5.3196,5.3196,5.3196,5.3196,5.3196,5.3196,5.3196,5.3196,5.3196,5.3196,5.3196,5.3196,5.3196,5.322,5.3295,5.3277,5.3273,5.3199,0.0,0.0,0.0,5.2399,5.2737,5.2737,5.2737,5.2737,5.2719,5.2105,0.0,5.1748,5.1004,5.0582,5.0563,5.0469,0.0,0.0,0.0,0.0,0.0,0.0,0.0,0.0,0.0,0.0,0.0,5.173,5.1556,5.162,5.1972,5.231,5.2595,5.2698,5.278,5.2816,5.2912,5.2958,5.2958,5.3,5.3283,5.401,5.4131,5.4474,5.5325,5.5426,5.5484,5.5613,5.5676,5.5651,5.5646,5.5671,5.5657,5.5651,5.5607,5.5602,5.564,5.5665,5.5629,5.5585,5.5579,5.5562,5.5522,5.5523,5.5504,5.551,5.5504,5.5527,5.5568,5.5579,5.5596,5.564,5.5671,5.5646,5.5671,5.5662,5.5575,5.5193,5.5099,5.5099,5.6778,0.0,5.6345,5.618,0.0,5.5768,5.5144,5.4399,5.4381,5.4381,5.4399,5.4381,5.4179,5.3801,5.3794,5.3592,5.3196,5.3196,5.3196,5.3196,5.3196,5.3196,5.3196,5.3196,5.3196,5.3196,5.3196,5.3196,5.3196,5.3212,5.3256,5.3318,5.3383,5.3474,5.3552,5.3638,5.3356,5.2739,5.3134,5.3345,5.3345,5.3345,5.3345,5.3326,5.2968,0.0,0.0,0.0,0.0,0.0,0.0,0.0,0.0,0.0,0.0,5.178,5.2231,5.2572,5.2748,5.318,5.3527,5.362,5.3778,5.368,5.3171,5.3269,5.3544,5.4019,5.4113,5.4143,5.4173,5.4231,5.4284,5.4284,5.4318,5.4537,5.4949,5.5036,5.522,5.5588,5.5689,5.5689,5.5689,5.5689,5.5689,5.5689,5.5689,5.5689,5.5703,5.5682,5.5676,5.5703,5.5689,5.5698,5.5671,5.564,5.5635,5.5602,5.5596,5.5596,5.5596,5.5615,5.5607,5.5654,5.564,5.5657,5.5678,5.5689,5.5689,5.5689,5.5689,5.5703,5.5665,5.564,5.564,5.7978,5.7923,5.7299,5.7012,5.695,5.6319,5.6025,5.6007,0.0,0.0,0.0,5.5603,5.5236,5.462,5.4601,5.4252,5.3636,5.3628,5.3628,5.3618,5.3618,5.3618,5.3618,5.3618,5.3618,5.3618,5.3618,5.3628,5.365,5.3708,5.3773,5.3844,5.3997,5.4107,5.4155,5.4288,5.426,5.4076,5.3728,5.3541,5.3541,5.3559,5.3541,5.3541,5.3541,5.3541,5.3541,5.2912,5.2591,5.2641,5.2057,5.1815,5.2019,5.2095,5.2254,5.2548,5.3252,5.3773,5.3886,5.4617,5.5094,5.5169,5.5339,5.5127,5.439,5.44,5.4728,5.5452,5.5522,5.5522,5.5533,5.5579,5.5613,5.5613,5.5676,5.5665,5.5689,5.5689,5.5665,5.5689,5.5689,5.5689,5.5689,5.5689,5.5689,5.5689,5.5689,5.5689,5.5689,5.5703,5.5703,5.5689,5.5689,5.5689,5.5684,5.5684,5.5689,5.5678,5.5684,5.5689,5.5689,5.5689,5.5689,5.5703,5.5689,5.5684,5.5689,5.5689,5.5689,5.5689,5.5689,5.5689,5.5689,5.5689,5.5684,5.7978,5.7978,5.7868,5.7831,5.7831,5.7733,5.7666,5.7538,5.6209,5.5603,5.5603,5.5603,5.5548,5.5438,5.542,5.5383,5.5262,5.5262,5.5244,5.5254,5.5254,5.5254,5.5273,5.5273,5.5273,5.5273,5.5262,5.5309,5.5425,5.5446,5.5576,5.5813,5.5902,5.6021,5.6266,5.6395,5.6449,5.6376,5.4652,5.3746,5.3765,5.3746,5.3765,5.3746,5.3783,5.3746,5.3746,5.3653,5.3608,5.3675,5.3692,5.3807,5.4065,5.4107,5.4294,5.4559,5.4767,5.4883,5.4972,5.5199,5.5377,5.5444,5.5527,5.5487,5.5314,5.5314,5.5401,5.5579,5.5585,5.5607,5.5657,5.5687,5.5673,5.5673,5.5698,5.5689,5.5689,5.5689,5.5689,5.5689,5.5689,5.5689,5.5689,5.5689,5.5689,5.5689,5.5785,5.5747,5.5862,5.5689,5.5689,5.5689,5.5689,5.5689,5.5882,5.5708,5.5843,5.5689,5.5824,5.592,5.592,5.592,5.592,5.5761,5.5882,5.5838,5.5824,5.5689,5.5862,5.5901,5.5882,5.5785,5.5785,5.5766,5.5708,5.7978,5.7978,5.7978,5.7978,5.7978,5.7978,5.7978,5.7941,5.7237,5.6888,5.6907,5.6907,5.6668,5.6271,5.6253,5.6025,5.5603,5.5603,5.5603,5.5603,5.5603,5.5603,5.5603,5.5603,5.5603,5.5603,5.5603,5.5669,5.5807,5.5905,5.6082,5.6304,5.6556,5.6814,5.7014,5.7134,5.7175,5.7129,5.6054,5.5482,5.5482,5.5482,5.5482,5.5463,5.5043,5.4772,5.4781,5.4361,5.4162,5.4253,5.4342,5.4484,5.475,5.4841,5.4954,5.5142,5.5229,5.5301,5.5364,5.5456,5.5522,5.5556,5.5613,5.5654,5.5607,5.5626,5.5632,5.5646,5.5646,5.5676,5.5703,5.5689,5.5689,5.5689,5.5689,5.5689,5.5689,5.5689,5.5689,5.5689,5.5689,5.5689,5.5689,5.5689,5.5689,5.5728,5.6035,5.6536,5.6992,5.7069,5.6915,5.6536,5.642,5.6651,5.6973,5.7107,5.7107,5.7107,5.7107,5.7107,5.7126,5.7088,5.7088,5.7107,5.7088,5.7107,5.7069,5.7126,5.7107,5.7069,5.667,5.6459,5.6382,5.6055,5.5708,5.7978,5.7978,5.7978,5.7978,5.7978,5.7978,5.7978,5.7978,5.7978,5.7978,5.7978,5.7978,5.7666,5.7086,5.7079,5.673,5.6209,5.6136,5.6154,5.6136,5.6154,5.6154,5.6136,5.6154,5.6154,5.6136,5.6176,5.6253,5.6384,5.6588,5.6803,5.7012,5.7447,5.775,5.7905,5.7988,5.8034,5.8019,5.7778,5.745,5.7026,5.7007,5.7026,5.6969,5.6377,5.6019,5.5963,5.5409,5.5117,5.5232,5.5263,5.5379,5.5634,5.5706,5.5801,5.5919,5.6007,5.6049,5.612,5.618,5.6208,5.6214,5.6253,5.628,5.6285,5.628,5.6088,5.5785,5.5684,5.5684,5.5689,5.5689,5.5689,5.5689,5.5689,5.5689,5.5689,5.5689,5.5689,5.5689,5.5882,5.6016,5.6035,5.6165,5.6357,5.6497,5.6882,5.7574,5.8159,5.8294,5.803,5.7728,5.742,5.7497,5.8179,5.8236,5.8198,5.8294,5.8236,5.814,5.8159,5.8236,5.8256,5.8159,5.8198,5.814,5.8236,5.8236,5.8179,5.8063,5.7646,5.7305,5.7267,5.6843,5.6132,5.7978,5.7978,5.7978,5.7978,5.7978,5.7978,5.7978,5.7978,5.7978,5.7978,5.7978,5.7978,5.796,5.7886,5.785,5.7788,5.7685,5.7758,5.7721,5.7714,5.7788,5.7776,5.7685,5.7721,5.7776,5.7733,5.7817,5.7862,5.8013,5.8267,5.8663,5.911,5.9473,5.9598,5.9721,5.984,5.9914,5.9933,5.9965,5.912,5.7479,5.736,5.7341,5.736,5.7285,5.7228,5.7228,5.7152,5.7142,5.7226,5.7243,5.7401,5.7559,5.7672,5.7749,5.7792,5.7872,5.7964,5.8002,5.8058,5.7975,5.8038,5.7962,5.7953,5.7986,5.8006,5.7338,5.6203,5.5766,5.5843,5.5708,5.5785,5.5882,5.5934,5.5882,5.5689,5.5824,5.5689,5.5689,5.5708,5.6478,5.6887,5.694,5.7434,5.7909,5.7915,5.803,5.828,5.8525,5.8563,5.8756,5.8973,5.8684,5.8294,5.8448,5.8313,5.8525,5.8448,5.8352,5.8486,5.8583,5.8525,5.8333,5.8775,5.8506,5.8544,5.8486,5.8313,5.8434,5.8621,5.8434,5.8165,5.8165,5.7967,5.7396,5.7978,5.7978,5.7978,5.7978,5.7978,5.7978,5.7978,5.7978,5.7978,5.7978,5.7978,5.7978,5.7978,5.7978,5.7978,5.7978,5.7978,5.7978,5.7978,5.7978,5.7978,5.7978,5.7978,5.7978,5.7978,5.799,5.8141,5.8264,5.8459,5.8809,5.9196,5.9559,5.9842,6.0052,6.0245,6.0335,6.0405,6.0446,6.046,6.0082,5.9387,5.9173,5.9111,5.9054,5.8673,5.8413,5.8356,5.7956,5.7725,5.7794,5.7809,5.7907,5.8017,5.808,5.8129,5.8159,5.8212,5.8271,5.8294,5.8294,5.8294,5.8294,5.8294,5.8294,5.8294,5.8294,5.7967,5.7415,5.7236,5.7242,5.7223,5.7242,5.7242,5.7223,5.7223,5.7223,5.7242,5.7223,5.7242,5.728,5.755,5.778,5.78,5.8069,5.8492,5.8858,5.9011,5.9165,5.9627,5.9781,5.9896,6.0127,5.9973,5.9819,5.9723,5.9762,5.9742,5.9742,5.9781,5.9781,5.9704,5.9762,5.98,5.9742,5.9646,5.9646,5.9858,5.9781,5.9781,5.9646,5.9184,5.889,5.839,5.8294,5.7871,5.7978,5.7978,5.7978,5.7978,5.7978,5.7978,5.7978,5.7978,5.7978,5.7978,5.7978,5.7978,5.7978,5.7978,5.7978,5.7978,5.7978,5.7978,5.7978,5.7978,5.7978,5.7978,5.7978,5.7978,5.7978,5.8013,5.8174,5.8393,5.8633,5.906,5.9456,5.9776,5.996,6.0189,6.0391,6.0512,6.0584,6.0629,6.0629,6.0661,6.0604,6.0507,6.0415,6.0343,5.9827,5.9502,5.9483,5.8935,5.8648,5.8719,5.8726,5.8757,5.8806,5.8861,5.8929,5.8929,5.895,5.8986,5.8973,5.8973,5.8973,5.8992,5.8992,5.8992,5.8992,5.8992,5.8992,5.8992,5.8973,5.8877,5.8333,5.8294,5.8294,5.8294,5.8294,5.8294,5.8256,5.8294,5.8236,5.8313,5.8434,5.8736,5.8929,5.9069,5.9319,5.9762,5.9877,6.0031,6.0608,6.0723,6.0742,6.08,6.0787,6.0742,6.08,6.0666,6.08,6.08,6.0666,6.0646,6.08,6.0787,6.0768,6.0319,6.0666,6.0723,6.0473,6.0627,6.0729,6.0666,6.0242,5.9646,5.9319,5.905,5.9031,5.7978,5.7978,5.7978,5.7978,5.7978,5.7978,5.7978,5.7978,5.7978,5.7978,5.7978,5.7978,5.7978,5.7978,5.7978,5.7978,5.7978,5.7978,5.7978,5.7978,5.7978,5.7978,5.7978,5.7978,5.8008,5.8031,5.8271,5.8633,5.9128,5.9393,5.9669,5.9971,6.0133,6.0275,6.0492,6.061,6.0685,6.0691,6.0734,6.0788,6.0788,6.0763,6.0691,6.0585,6.0533,6.0476,6.0476,6.0476,6.0425,6.047,6.0437,6.0493,6.0544,6.0573,6.0564,6.0583,6.0608,6.0627,6.0569,6.0556,6.055,6.0589,6.0473,6.0608,6.0435,6.0435,6.0435,6.0608,6.0473,5.9935,5.8742,5.8602,5.8525,5.8486,5.839,5.8429,5.839,5.8563,5.8333,5.8506,5.9069,5.9665,6.046,6.0691,6.0531,6.0608,6.0685,6.0729,6.0742,6.08,6.08,6.08,6.08,6.08,6.08,6.08,6.08,6.08,6.08,6.08,6.08,6.0781,6.08,6.08,6.08,6.08,6.08,6.0781,6.0781,6.0762,6.0742,6.0377,6.0089,6.0492,6.0416,5.7978,5.7978,5.7978,5.7978,5.7978,5.7978,5.7978,5.7978,5.7978,5.7978,5.7978,5.7978,5.7978,5.7978,5.7978,5.7978,5.7978,5.7978,5.7978,5.7978,5.7978,5.7978,5.7978,5.7978,5.8061,5.8152,5.8327,5.8675,5.9167,5.9457,5.9719,5.9986,6.0215,6.0405,6.0558,6.0667,6.0735,6.0752,6.0794,6.08,6.08,6.08,6.0777,6.0716,6.0716,6.0735,6.0735,6.071,6.0716,6.0716,6.0759,6.0752,6.0752,6.0794,6.08,6.08,6.08,6.08,6.08,6.08,6.08,6.08,6.08,6.08,6.08,6.08,6.08,6.08,6.08,6.0416,6.0146,5.9896,5.9896,5.9896,5.9896,5.9819,5.9896,5.9896,5.9915,5.9954,6.0185,6.0473,6.0666,6.08,6.08,6.08,6.08,6.08,6.08,6.08,6.08,6.08,6.08,6.08,6.08,6.08,6.08,6.08,6.08,6.08,6.08,6.08,6.08,6.08,6.08,6.08,6.08,6.08,6.08,6.08,6.08,6.08,6.0781,6.08,6.08,5.7978,5.7978,5.7978,5.7978,5.7978,5.7978,5.7978,5.7978,5.7978,5.7978,5.7978,5.7978,5.7978,5.7978,5.7978,5.7978,5.7978,5.7978,5.7978,5.7978,5.7978,5.7978,5.7978,5.7978,5.8065,5.8231,5.8459,5.8799,5.9215,5.9492,5.9751,6.0041,6.0258,6.0427,6.0578,6.0692,6.0771,6.0794,6.08,6.08,6.08,6.08,6.08,6.08,6.08,6.08,6.08,6.08,6.08,6.08,6.08,6.08,6.08,6.08,6.08,6.08,6.08,6.08,6.08,6.08,6.08,6.08,6.08,6.08,6.08,6.08,6.08,6.08,6.08,6.08,6.08,6.0762,6.08,6.08,6.08,6.08,6.08,6.0762,6.0742,6.0704,6.0704,6.0762,6.08,6.08,6.08,6.08,6.08,6.08,6.08,6.08,6.08,6.08,6.08,6.08,6.08,6.08,6.08,6.08,6.08,6.08,6.08,6.08,6.08,6.08,6.08,6.08,6.08,6.08,6.08,6.08,6.08,6.08,6.08,6.08,6.08,5.8015,5.8052,5.8008,5.7978,5.7978,5.7978,5.7978,5.7978,5.7978,5.7978,5.7978,5.7978,5.7978,5.7978,5.7978,5.7978,5.7978,5.7978,5.7978,5.7978,5.7978,5.7978,5.7978,5.8008,5.8077,5.8242,5.8654,5.9021,5.9262,5.9509,5.9776,6.0042,6.0227,6.0427,6.0617,6.0723,6.0794,6.08,6.08,6.08,6.08,6.08,6.08,6.08,6.08,6.08,6.08,6.08,6.08,6.08,6.08,6.08,6.08,6.08,6.08,6.08,6.08,6.08,6.08,6.08,6.08,6.08,6.08,6.08,6.08,6.08,6.08,6.08,6.08,6.08,6.08,6.08,6.08,6.08,6.08,6.08,6.08,6.08,6.08,6.08,6.08,6.08,6.08,6.08,6.08,6.08,6.08,6.08,6.08,6.08,6.08,6.08,6.08,6.08,6.08,6.08,6.08,6.08,6.08,6.08,6.08,6.08,6.08,6.08,6.08,6.08,6.08,6.08,6.08,6.08,6.08,6.08,6.08,6.08,6.08,5.8829,5.8737,5.8235,5.7978,5.7978,5.7978,5.7978,5.7978,5.7978,5.7978,5.7978,5.7978,5.7978,5.7978,5.7978,5.7978,5.7978,5.7978,5.7978,5.7978,5.7978,5.7978,5.799,5.799,5.8111,5.8371,5.8714,5.902,5.9253,5.9526,5.979,6.0033,6.027,6.0446,6.0578,6.0698,6.0759,6.08,6.08,6.08,6.08,6.08,6.08,6.08,6.08,6.08,6.08,6.08,6.08,6.08,6.08,6.08,6.08,6.08,6.08,6.08,6.08,6.08,6.08,6.08,6.08,6.08,6.08,6.08,6.08,6.08,6.08,6.08,6.08,6.08,6.08,6.08,6.08,6.08,6.08,6.08,6.08,6.08,6.08,6.08,6.08,6.08,6.08,6.08,6.08,6.08,6.08,6.08,6.08,6.08,6.08,6.08,6.08,6.08,6.08,6.08,6.08,6.08,6.08,6.08,6.08,6.08,6.08,6.08,6.08,6.08,6.08,6.08,6.08,6.08,6.08,6.08,6.08,6.08,6.08,5.9655,5.9563,5.8774,5.8455,5.8389,5.8143,5.7978,5.7978,5.7978,5.7978,5.7978,5.7978,5.7978,5.7978,5.7978,5.7978,5.7978,5.7978,5.7978,5.7978,5.7978,5.7978,5.8008,5.8054,5.8186,5.8415,5.8693,5.897,5.9196,5.9482,5.9734,5.9982,6.0212,6.0417,6.0558,6.0648,6.0722,6.0775,6.08,6.08,6.08,6.08,6.08,6.08,6.08,6.08,6.08,6.08,6.08,6.08,6.08,6.08,6.08,6.08,6.08,6.08,6.08,6.08,6.08,6.08,6.08,6.08,6.08,6.08,6.08,6.08,6.08,6.08,6.08,6.08,6.08,6.08,6.08,6.08,6.08,6.08,6.08,6.08,6.08,6.08,6.08,6.08,6.08,6.08,6.08,6.08,6.08,6.08,6.08,6.08,6.08,6.08,6.08,6.08,6.08,6.08,6.08,6.08,6.08,6.08,6.08,6.08,6.08,6.08,6.08,6.08,6.08,6.08,6.08,6.08,6.08,6.08,6.08,6.08,6.08,6.0462,6.0352,5.96,5.9214,5.9068,5.8419,5.8088,5.7978,5.7978,5.7978,5.7978,5.7978,5.7978,5.7978,5.7978,5.7978,5.7978,5.7978,5.7978,5.7978,5.7978,5.7978,5.8008,5.8088,5.8219,5.8393,5.859,5.8842,5.9128,5.9365,5.9607,5.9869,6.0087,6.0294,6.0485,6.0617,6.0729,6.0783,6.0794,6.08,6.08,6.08,6.08,6.08,6.08,6.08,6.08,6.08,6.08,6.08,6.08,6.08,6.08,6.08,6.08,6.08,6.08,6.08,6.08,6.08,6.08,6.08,6.08,6.08,6.08,6.08,6.08,6.08,6.08,6.08,6.08,6.08,6.08,6.08,6.08,6.08,6.08,6.08,6.08,6.08,6.08,6.08,6.08,6.08,6.08,6.08,6.08,6.08,6.08,6.08,6.08,6.08,6.08,6.08,6.08,6.08,6.08,6.08,6.08,6.08,6.08,6.08,6.08,6.08,6.08,6.08,6.08,6.08,6.08,6.08,6.08,6.08,6.08,6.08,6.08,6.1282,6.119,6.0407,5.9747,5.9203,5.8958,5.8547,5.8033,5.7997,5.8033,5.7978,5.7978,5.7978,5.7978,5.7978,5.7978,5.7978,5.7978,5.7978,5.7978,5.7978,5.7978,5.8008,5.8031,5.8111,5.8275,5.8465,5.8638,5.8871,5.9187,5.9464,5.9685,5.9947,6.0178,6.0417,6.0546,6.0642,6.0735,6.0783,6.08,6.08,6.08,6.08,6.08,6.08,6.08,6.08,6.08,6.08,6.08,6.08,6.08,6.08,6.08,6.08,6.08,6.08,6.08,6.08,6.08,6.08,6.08,6.08,6.08,6.08,6.08,6.08,6.08,6.08,6.08,6.08,6.08,6.08,6.08,6.08,6.08,6.08,6.08,6.08,6.08,6.08,6.08,6.08,6.08,6.08,6.08,6.08,6.08,6.08,6.08,6.08,6.08,6.08,6.08,6.08,6.08,6.08,6.08,6.08,6.08,6.08,6.08,6.08,6.08,6.08,6.08,6.08,6.08,6.08,6.08,6.08,6.08,6.08,6.08,6.08,6.2108,6.2034,6.1227,6.0639,6.0169,5.9838,5.9251,5.8609,5.851,5.829,5.8052,5.7978,5.7978,5.7978,5.7978,5.7978,5.7978,5.7978,5.7978,5.7978,5.7978,5.7978,5.8008,5.8008,5.8084,5.8208,5.8367,5.8558,5.8758,5.9072,5.9365,5.9589,5.985,6.0103,6.032,6.0519,6.0617,6.0691,6.0771,6.08,6.08,6.08,6.08,6.08,6.08,6.08,6.08,6.08,6.08,6.08,6.08,6.08,6.08,6.08,6.08,6.08,6.08,6.08,6.08,6.08,6.08,6.08,6.08,6.08,6.08,6.08,6.08,6.08,6.08,6.08,6.08,6.08,6.08,6.08,6.08,6.08,6.08,6.08,6.08,6.08,6.08,6.08,6.08,6.08,6.08,6.08,6.08,6.08,6.08,6.08,6.08,6.08,6.08,6.08,6.08,6.08,6.08,6.08,6.08,6.08,6.08,6.08,6.08,6.08,6.08,6.08,6.08,6.08,6.08,6.08,6.08,6.08,6.08,6.08,6.08,6.2811,6.2738,6.2016,6.1698,6.1429,6.0823,6.007,5.9398,5.9178,5.8774,5.8272,5.8052,5.7978,5.7978,5.7978,5.7978,5.7978,5.7978,5.7978,5.7978,5.7978,5.7978,5.7978,5.7978,5.8054,5.8186,5.8327,5.8491,5.8696,5.8992,5.9272,5.9501,5.9809,6.003,6.0217,6.0466,6.0629,6.0692,6.0771,6.08,6.08,6.08,6.08,6.08,6.08,6.08,6.08,6.08,6.08,6.08,6.08,6.08,6.08,6.08,6.08,6.08,6.08,6.08,6.08,6.08,6.08,6.08,6.08,6.08,6.08,6.08,6.08,6.08,6.08,6.08,6.08,6.08,6.08,6.08,6.08,6.08,6.08,6.08,6.08,6.08,6.08,6.08,6.08,6.08,6.08,6.08,6.08,6.08,6.08,6.08,6.08,6.08,6.08,6.08,6.08,6.08,6.08,6.08,6.08,6.08,6.08,6.08,6.08,6.08,6.08,6.08,6.08,6.08,6.08,6.08,6.08,6.08,6.08,6.08,6.08,6.2811,6.2793,6.2627,6.2181,6.1643,6.1392,6.0878,6.0126,5.949,5.9196,5.8811,5.829,5.8033,5.7978,5.7978,5.7978,5.7978,5.7978,5.7978,5.7978,5.7978,5.7978,5.7978,5.7978,5.8001,5.8099,5.8286,5.8415,5.8577,5.8854,5.913,5.9355,5.9725,6.0005,6.0144,6.0427,6.0604,6.0648,6.0747,6.08,6.08,6.08,6.08,6.08,6.08,6.08,6.08,6.08,6.08,6.08,6.08,6.08,6.08,6.08,6.08,6.08,6.08,6.08,6.08,6.08,6.08,6.08,6.08,6.08,6.08,6.08,6.08,6.08,6.08,6.08,6.08,6.08,6.08,6.08,6.08,6.08,6.08,6.08,6.08,6.08,6.08,6.08,6.08,6.08,6.08,6.08,6.08,6.08,6.08,6.08,6.08,6.08,6.08,6.08,6.08,6.08,6.08,6.08,6.08,6.08,6.08,6.0788,6.0788,6.0794,6.08,6.08,6.08,6.08,6.08,6.08,6.08,6.08,6.08,6.08,6.08,6.2811,6.2811,6.2811,6.2554,6.2199,6.2144,6.1704,6.0988,6.0548,5.9893,5.9233,5.8701,5.8364,5.8015,5.7978,5.7978,5.7978,5.7978,5.7978,5.7978,5.7978,5.7978,5.7978,5.7978,5.799,5.8042,5.8282,5.8401,5.8513,5.8782,5.912,5.9309,5.97,5.9974,6.014,6.042,6.0584,6.0629,6.0735,6.08,6.08,6.08,6.08,6.08,6.08,6.08,6.08,6.08,6.08,6.08,6.08,6.08,6.08,6.08,6.08,6.08,6.08,6.08,6.08,6.08,6.08,6.08,6.08,6.08,6.08,6.08,6.08,6.08,6.08,6.08,6.08,6.08,6.08,6.08,6.08,6.08,6.08,6.08,6.08,6.08,6.08,6.08,6.08,6.08,6.08,6.08,6.08,6.08,6.08,6.08,6.08,6.08,6.08,6.08,6.08,6.08,6.08,6.08,6.08,6.08,6.08,6.0783,6.0765,6.0777,6.0788,6.08,6.08,6.08,6.0794,6.08,6.08,6.08,6.08,6.08,6.08,6.2811,6.2811,6.2811,6.2811,6.2811,6.2774,6.2371,6.1832,6.1643,6.0786,5.9692,5.938,5.8756,5.8309,5.8033,5.7997,5.7978,5.7978,5.7978,5.7978,5.7978,5.7978,5.7978,5.7978,5.8001,5.8042,5.8275,5.8393,5.8577,5.8842,5.9149,5.9373,5.9725,5.9979,6.017,6.0432,6.061,6.0642,6.0741,6.08,6.08,6.08,6.08,6.08,6.08,6.08,6.08,6.08,6.08,6.08,6.08,6.08,6.08,6.08,6.08,6.08,6.08,6.08,6.08,6.08,6.08,6.08,6.08,6.08,6.08,6.08,6.08,6.08,6.08,6.08,6.08,6.08,6.08,6.08,6.08,6.08,6.08,6.08,6.08,6.08,6.08,6.08,6.08,6.08,6.08,6.08,6.08,6.08,6.08,6.08,6.08,6.08,6.08,6.08,6.08,6.08,6.08,6.0769,6.0769,6.0757,6.0752,6.0735,6.071,6.0753,6.0771,6.0765,6.0753,6.0735,6.0741,6.0777,6.0769,6.0757,6.0763,6.08,6.08,6.2811,6.2811,6.2811,6.2811,6.2811,6.2811,6.2719,6.2499,6.1906,6.1496,6.1025,5.982,5.9166,5.8811,5.8235,5.8015,5.7978,5.7978,5.7978,5.7978,5.7978,5.7978,5.7978,5.799,5.8054,5.8186,5.8349,5.8473,5.8685,5.8992,5.9253,5.9492,5.9792,6.0041,6.0229,6.0459,6.0636,6.0686,6.0759,6.08,6.08,6.08,6.08,6.08,6.08,6.08,6.08,6.08,6.08,6.08,6.08,6.08,6.08,6.08,6.08,6.08,6.08,6.08,6.08,6.08,6.08,6.08,6.08,6.08,6.08,6.08,6.08,6.08,6.08,6.08,6.08,6.08,6.08,6.08,6.08,6.08,6.08,6.08,6.08,6.08,6.08,6.08,6.08,6.08,6.08,6.08,6.08,6.08,6.08,6.08,6.08,6.08,6.08,6.08,6.08,6.08,6.0794,6.0752,6.074,6.0703,6.0685,6.0635,6.0655,6.0661,6.0673,6.0667,6.0655,6.0655,6.068,6.0691,6.071,6.0722,6.0746,6.0763,6.08,6.2811,6.2811,6.2811,6.2811,6.2811,6.2811,6.2811,6.2756,6.2389,6.1979,6.1337,6.037,5.9563,5.9086,5.8364,5.7997,5.7978,5.7978,5.7978,5.7978,5.7978,5.7978,5.7978,5.7978,5.8122,5.8275,5.8418,5.8529,5.8719,5.909,5.9355,5.9581,5.9869,6.0095,6.0313,6.0486,6.0636,6.071,6.0771,6.08,6.08,6.08,6.08,6.08,6.08,6.08,6.08,6.08,6.08,6.08,6.08,6.08,6.08,6.08,6.08,6.08,6.08,6.08,6.08,6.08,6.08,6.08,6.08,6.08,6.08,6.08,6.08,6.08,6.08,6.08,6.08,6.08,6.08,6.08,6.08,6.08,6.08,6.08,6.08,6.08,6.08,6.08,6.08,6.08,6.08,6.08,6.08,6.08,6.08,6.08,6.08,6.08,6.08,6.0788,6.0777,6.0759,6.0759,6.0722,6.0679,6.0642,6.0597,6.0539,6.0506,6.0519,6.0532,6.0545,6.0597,6.0617,6.0629,6.0623,6.0655,6.0654,6.071,6.074,6.0757,6.2811,6.2811,6.2811,6.2811,6.2811,6.2811,6.2811,6.2811,6.2793,6.2438,6.1777,6.0988,6.0187,5.9361,5.8529,5.7978,5.7978,5.7978,5.7978,5.7978,5.7978,5.7978,5.7978,5.8031,5.8141,5.8371,5.8526,5.8617,5.8872,5.9196,5.9437,5.9683,5.9923,6.0155,6.0391,6.0546,6.0648,6.0723,6.0777,6.08,6.08,6.08,6.08,6.08,6.08,6.08,6.08,6.08,6.08,6.08,6.08,6.08,6.08,6.08,6.08,6.08,6.08,6.08,6.08,6.08,6.08,6.08,6.08,6.08,6.08,6.08,6.08,6.08,6.08,6.08,6.08,6.08,6.08,6.08,6.08,6.08,6.08,6.08,6.08,6.08,6.08,6.08,6.08,6.08,6.08,6.08,6.08,6.08,6.08,6.08,6.08,6.08,6.0794,6.0777,6.0753,6.0704,6.0698,6.068,6.0591,6.0526,6.0473,6.0418,6.0391,6.0349,6.0377,6.0405,6.048,6.0545,6.0539,6.0539,6.0565,6.0604,6.0642,6.0691,6.0722,6.2811,6.2811,6.2811,6.2811,6.2811,6.2811,6.2811,6.2811,6.2811,6.2774,6.2499,6.1759,6.0933,5.993,5.8657,5.807,5.7978,5.7978,5.7978,5.7978,5.7978,5.7978,5.7978,5.7978,5.8163,5.8393,5.8561,5.8852,5.9081,5.9347,5.9598,5.9825,6.0022,6.0268,6.0485,6.0585,6.0729,6.0783,6.08,6.08,6.08,6.08,6.08,6.08,6.08,6.08,6.08,6.08,6.08,6.08,6.08,6.08,6.08,6.08,6.08,6.08,6.08,6.08,6.08,6.08,6.08,6.08,6.08,6.08,6.08,6.08,6.08,6.08,6.08,6.08,6.08,6.08,6.08,6.08,6.08,6.08,6.08,6.08,6.08,6.08,6.08,6.0794,6.0794,6.08,6.08,6.08,6.08,6.08,6.0788,6.0771,6.0746,6.0747,6.0716,6.0703,6.0667,6.0648,6.061,6.0604,6.0486,6.0398,6.0349,6.0292,6.02,6.0178,6.0207,6.0237,6.0299,6.0361,6.0396,6.0438,6.0485,6.0539,6.0578,6.0629,6.0679,6.2811,6.2811,6.2811,6.2811,6.2811,6.2811,6.2811,6.2811,6.2811,6.2811,6.2646,6.1942,6.0933,5.982,5.8884,5.8437,5.8088,5.7997,5.7978,5.7978,5.7978,5.7978,5.7978,5.802,5.8152,5.8353,5.8551,5.8811,5.9139,5.9448,5.9695,5.9893,6.008,6.0268,6.0519,6.0617,6.071,6.0752,6.08,6.08,6.08,6.08,6.08,6.08,6.08,6.08,6.08,6.08,6.08,6.08,6.08,6.08,6.08,6.08,6.08,6.08,6.08,6.08,6.08,6.08,6.08,6.08,6.08,6.08,6.08,6.0794,6.0794,6.08,6.08,6.08,6.0794,6.08,6.08,6.08,6.0783,6.0788,6.0788,6.08,6.08,6.08,6.0794,6.0771,6.0759,6.0771,6.0771,6.0757,6.0771,6.0765,6.0735,6.0692,6.0686,6.0654,6.0642,6.0629,6.0585,6.0558,6.0473,6.0439,6.0309,6.0229,6.0219,6.0159,6.0072,6.0026,6.0052,6.0083,6.0141,6.025,6.0337,6.0387,6.0429,6.0472,6.0513,6.0578,6.0642,6.2811,6.2811,6.2811,6.2811,6.2811,6.2811,6.2811,6.2811,6.2811,6.2811,6.2572,6.1942,6.0896,5.9875,5.9416,5.8829,5.8345,5.8107,5.7997,5.7978,5.7978,5.7978,5.7978,5.802,5.8111,5.8349,5.8465,5.8719,5.9023,5.9355,5.965,5.9918,6.0061,6.0287,6.0493,6.0623,6.0704,6.0769,6.08,6.08,6.08,6.08,6.08,6.08,6.08,6.08,6.08,6.08,6.08,6.08,6.08,6.08,6.08,6.08,6.08,6.08,6.08,6.0788,6.0783,6.0771,6.0783,6.0777,6.0759,6.0735,6.0741,6.0753,6.0753,6.0716,6.0741,6.0741,6.0753,6.0747,6.0735,6.0735,6.0741,6.0753,6.0753,6.0741,6.0729,6.0697,6.071,6.071,6.071,6.0729,6.0741,6.0728,6.0722,6.0729,6.0673,6.0585,6.0565,6.0552,6.0474,6.0454,6.0427,6.0398,6.0349,6.0277,6.0148,6.0095,6.0072,6.0052,5.9998,5.995,5.9918,5.995,6.0032,6.0148,6.0272,6.033,6.0387,6.041,6.0472,6.0526,6.0617,6.2811,6.2811,6.2811,6.2811,6.2811,6.2811,6.2811,6.2811,6.2811,6.2811,6.2701,6.2016,6.1575,6.1025,5.9912,5.9251,5.9049,5.8345,5.807,5.7978,5.7978,5.7978,5.7978,5.8001,5.8077,5.8242,5.84,5.8582,5.8811,5.9168,5.9552,5.9947,6.003,6.0273,6.048,6.0591,6.0704,6.0757,6.0769,6.08,6.08,6.08,6.08,6.08,6.08,6.08,6.08,6.08,6.08,6.08,6.08,6.08,6.08,6.08,6.08,6.08,6.0769,6.0771,6.0747,6.0735,6.0723,6.0685,6.0642,6.0597,6.0597,6.0597,6.0597,6.0597,6.0597,6.0597,6.0597,6.0617,6.0597,6.0636,6.0648,6.0661,6.0655,6.0636,6.0623,6.0617,6.0591,6.0578,6.0552,6.054,6.061,6.0623,6.0546,6.0546,6.0526,6.0473,6.0453,6.0399,6.0282,6.0239,6.0198,6.0166,6.0118,6.0072,5.9994,5.9971,5.9971,5.9942,5.9869,5.9893,5.9888,5.9885,5.9918,6.0045,6.0178,6.0279,6.0363,6.0396,6.0465,6.0539,6.0642,6.2811,6.2811,6.2811,6.2811,6.2811,6.2811,6.2811,6.2811,6.2811,6.2811,6.2774,6.2462,6.2071,6.141,6.0548,5.9636,5.9159,5.8364,5.8088,5.7978,5.7978,5.7978,5.7978,5.8001,5.8065,5.8208,5.8375,5.8548,5.8729,5.8993,5.9262,5.9602,5.9864,6.017,6.0377,6.0546,6.0648,6.0729,6.0734,6.0765,6.08,6.08,6.08,6.08,6.08,6.08,6.08,6.08,6.08,6.08,6.08,6.08,6.08,6.08,6.08,6.0794,6.0757,6.0741,6.0717,6.0679,6.066,6.0578,6.048,6.0414,6.0401,6.0408,6.0414,6.0414,6.0427,6.0394,6.0414,6.0414,6.0428,6.0506,6.0539,6.0539,6.0539,6.0512,6.0492,6.0459,6.042,6.0368,6.036,6.0339,6.0427,6.05,6.0413,6.0358,6.033,6.028,6.0237,6.0193,6.0068,6.0022,5.9999,5.9936,5.9872,5.9839,5.9834,5.9825,5.9817,5.9751,5.9719,5.9761,5.983,5.9839,5.9877,5.9963,6.0057,6.0178,6.0296,6.041,6.0479,6.0532,6.0636,6.2811,6.2811,6.2811,6.2811,6.2811,6.2811,6.2811,6.2811,6.2811,6.2811,6.2811,6.2774,6.2517,6.1832,6.1117,6.0315,5.9581,5.8841,5.8309,5.8088,5.7978,5.7978,5.7978,5.799,5.8042,5.8163,5.8264,5.8429,5.8508,5.8782,5.9014,5.9253,5.9534,5.9874,6.0241,6.0458,6.0578,6.0636,6.068,6.071,6.0765,6.0777,6.0769,6.0775,6.08,6.08,6.08,6.08,6.08,6.08,6.08,6.08,6.08,6.08,6.08,6.0783,6.0753,6.071,6.066,6.061,6.0533,6.0356,6.0261,6.0198,6.0184,6.0177,6.0154,6.0162,6.0188,6.0177,6.0184,6.0181,6.021,6.027,6.0292,6.028,6.0335,6.0328,6.0313,6.028,6.0225,6.014,6.0102,6.0084,6.0129,6.0222,6.0229,6.0155,6.0103,6.0033,5.992,5.9899,5.9834,5.9809,5.9784,5.9759,5.9715,5.9734,5.97,5.9666,5.964,5.9571,5.9598,5.9676,5.9738,5.9763,5.9786,5.9825,5.9939,6.0057,6.0212,6.0354,6.0438,6.0499,6.0597,6.2811,6.2811,6.2811,6.2811,6.2811,6.2811,6.2811,6.2811,6.2811,6.2811,6.2811,6.2811,6.2793,6.2462,6.1741,6.0915,6.0132,5.9398,5.8701,5.8125,5.7978,5.7978,5.7978,5.799,5.8001,5.8031,5.8163,5.8253,5.8264,5.8569,5.8752,5.8915,5.9197,5.9563,6.0013,6.0263,6.0431,6.0499,6.0558,6.0629,6.0686,6.0704,6.0716,6.074,6.0771,6.0765,6.0765,6.0765,6.0765,6.0765,6.0746,6.0765,6.0771,6.0771,6.0777,6.0757,6.0703,6.0648,6.0572,6.0472,6.0304,6.0106,6.0014,5.9963,5.9926,5.9883,5.9864,5.9864,5.9864,5.9902,5.9902,5.991,5.9939,5.9994,6.0018,6.0064,6.0122,6.008,6.0057,6.0018,5.9947,5.9893,5.985,5.9806,5.9839,5.9896,5.9979,5.9947,5.9858,5.9759,5.964,5.9597,5.9553,5.9526,5.9518,5.9562,5.9571,5.9579,5.9553,5.9519,5.9482,5.9455,5.9491,5.9581,5.9581,5.9554,5.9616,5.9657,5.9759,5.9858,6.0133,6.0294,6.0368,6.0432,6.052,6.2811,6.2811,6.2811,6.2811,6.2811,6.2811,6.2811,6.2811,6.2811,6.2811,6.2811,6.2811,6.2811,6.2567,6.1998,6.119,6.0352,5.9563,5.8756,5.807,5.7978,5.7978,5.7978,5.7978,5.7978,5.8031,5.8111,5.8186,5.8219,5.8418,5.859,5.876,5.9022,5.9383,5.9717,5.9986,6.0155,6.0244,6.037,6.048,6.0571,6.0591,6.0629,6.0654,6.0673,6.068,6.068,6.0686,6.0692,6.0686,6.0686,6.0686,6.0686,6.0686,6.068,6.0642,6.0591,6.0446,6.0285,6.0122,6.0064,5.991,5.9786,5.9685,5.9624,5.9535,5.9518,5.9518,5.9535,5.9535,5.9509,5.9509,5.9552,5.97,5.9759,5.9861,5.9893,5.9792,5.9715,5.9691,5.9631,5.9544,5.9472,5.9445,5.9444,5.9453,5.9525,5.956,5.9509,5.9428,5.9318,5.929,5.9262,5.9215,5.9197,5.9318,5.9364,5.9374,5.9346,5.9309,5.93,5.929,5.93,5.9346,5.9346,5.9337,5.9392,5.9455,5.9509,5.9668,5.9869,6.0095,6.0197,6.0299,6.0431,6.2811,6.2811,6.2811,6.2811,6.2811,6.2811,6.2811,6.2811,6.2811,6.2811,6.2811,6.2811,6.2811,6.2627,6.2236,6.13,6.0426,5.9893,5.8866,5.8143,5.7978,5.7978,5.7978,5.7978,5.7978,5.8031,5.8065,5.8122,5.8111,5.8271,5.8437,5.8622,5.8891,5.9071,5.9355,5.9595,5.9899,6.0002,6.0133,6.0285,6.0356,6.0418,6.048,6.0487,6.0533,6.0552,6.0571,6.0578,6.061,6.061,6.0591,6.0591,6.0591,6.0597,6.0597,6.0578,6.0499,6.0306,6.0068,5.9869,5.9795,5.9657,5.951,5.9401,5.9346,5.9244,5.9225,5.9206,5.9187,5.9187,5.9206,5.9196,5.9262,5.9401,5.9464,5.9553,5.9579,5.95,5.9437,5.9383,5.929,5.9196,5.9101,5.9063,5.9053,5.9043,5.9062,5.9101,5.9139,5.9062,5.9032,5.9032,5.9032,5.9003,5.9033,5.912,5.9158,5.9139,5.9157,5.9148,5.9139,5.913,5.911,5.911,5.913,5.9158,5.9187,5.9244,5.9272,5.9364,5.9545,5.9751,5.996,6.0125,6.0263,6.2811,6.2811,6.2811,6.2811,6.2811,6.2811,6.2811,6.2811,6.2811,6.2811,6.2811,6.2811,6.2811,6.2811,6.2756,6.1912,6.0701,6.0407,5.9398,5.8437,5.8088,5.8033,5.7978,5.7978,5.7978,5.7978,5.8001,5.8042,5.8001,5.8174,5.8316,5.8426,5.8622,5.875,5.8954,5.9225,5.9553,5.9698,5.9883,6.0018,6.0084,6.0159,6.0225,6.0275,6.0351,6.0405,6.0425,6.0466,6.0525,6.0545,6.0552,6.0546,6.0552,6.0584,6.0584,6.0539,6.0431,6.0174,5.9934,5.9727,5.9509,5.9373,5.9281,5.9177,5.9072,5.8974,5.8924,5.8924,5.8924,5.8944,5.8964,5.8974,5.8993,5.9072,5.912,5.9187,5.9244,5.9206,5.9139,5.9071,5.8961,5.886,5.8781,5.8729,5.8731,5.87,5.87,5.871,5.8741,5.871,5.8708,5.882,5.8801,5.8821,5.8854,5.8934,5.9012,5.904,5.904,5.9022,5.9003,5.8954,5.8884,5.8874,5.8925,5.8945,5.8914,5.8934,5.9003,5.911,5.9187,5.9483,5.9698,5.9896,6.0038,6.2811,6.2811,6.2811,6.2811,6.2811,6.2811,6.2811,6.2811,6.2811,6.2811,6.2811,6.2811,6.2811,6.2811,6.2793,6.2126,6.1392,6.0603,5.9802,5.8994,5.8235,5.8052,5.7978,5.7978,5.7978,5.7978,5.7978,5.799,5.8031,5.8141,5.8197,5.8275,5.8418,5.8505,5.8635,5.8823,5.9111,5.9373,5.9587,5.9715,5.9815,5.9896,5.9967,6.0041,6.011,6.0159,6.0178,6.0229,6.0266,6.0258,6.0258,6.0232,6.0251,6.0251,6.0244,6.0229,6.0103,5.995,5.9759,5.9535,5.929,5.9092,5.8974,5.8872,5.877,5.8687,5.8633,5.8646,5.8656,5.8687,5.8687,5.8698,5.8729,5.8752,5.8803,5.8852,5.8884,5.8864,5.8803,5.8731,5.8633,5.8598,5.8494,5.8483,5.8476,5.8411,5.8367,5.8378,5.8389,5.8389,5.8451,5.8548,5.8601,5.8614,5.8687,5.877,5.8871,5.894,5.8891,5.886,5.8801,5.8739,5.8656,5.8646,5.8698,5.8646,5.8569,5.8625,5.8739,5.8721,5.8813,5.9139,5.9428,5.9621,5.982,6.2811,6.2811,6.2811,6.2811,6.2811,6.2811,6.2811,6.2811,6.2811,6.2811,6.2811,6.2811,6.2811,6.2811,6.2756,6.2346,6.1533,6.0731,5.9912,5.9123,5.8407,5.8107,5.7978,5.7978,5.7978,5.7978,5.7978,5.799,5.802,5.8054,5.8111,5.8141,5.8271,5.8331,5.8422,5.854,5.871,5.8984,5.9253,5.9419,5.9535,5.9614,5.9666,5.9753,5.982,5.9842,5.9872,5.9952,6.001,6.0018,6.0018,6.0018,6.0026,6.0045,5.9986,5.9963,5.9858,5.9708,5.9544,5.9318,5.911,5.8894,5.8698,5.8572,5.8526,5.8462,5.8459,5.8459,5.8455,5.8433,5.8422,5.8422,5.844,5.8465,5.8486,5.8526,5.8508,5.8497,5.8465,5.8392,5.8345,5.8308,5.8264,5.8253,5.8231,5.819,5.8186,5.8186,5.8179,5.8179,5.8253,5.8353,5.8396,5.8411,5.8497,5.8601,5.8662,5.8704,5.8662,5.8612,5.8569,5.8548,5.8505,5.848,5.8437,5.8415,5.8415,5.8426,5.8502,5.8476,5.8511,5.8793,5.9101,5.9345,5.9568,6.2811,6.2811,6.2811,6.2811,6.2811,6.2811,6.2811,6.2811,6.2811,6.2811,6.2811,6.2811,6.2811,6.2811,6.2774,6.2475,6.1796,6.1062,6.0291,5.9276,5.8646,5.8235,5.8015,5.7978,5.7978,5.7978,5.7978,5.7978,5.7978,5.8001,5.8031,5.8008,5.8111,5.8179,5.8201,5.8331,5.8465,5.8585,5.8874,5.911,5.9187,5.9244,5.9327,5.9466,5.9528,5.9569,5.9656,5.9732,5.9834,5.9844,5.9844,5.9817,5.9828,5.982,5.9751,5.97,5.9616,5.9491,5.9327,5.9101,5.8924,5.8719,5.8505,5.8386,5.832,5.8275,5.8282,5.8282,5.8271,5.8271,5.8271,5.8271,5.8275,5.8279,5.8308,5.832,5.832,5.829,5.8268,5.8223,5.819,5.8152,5.8111,5.8111,5.8122,5.8042,5.8031,5.802,5.8031,5.8042,5.8088,5.8197,5.8253,5.8308,5.8364,5.8429,5.8437,5.8455,5.8437,5.8407,5.8407,5.8386,5.8371,5.8316,5.8271,5.8316,5.8327,5.8316,5.8286,5.832,5.8389,5.8489,5.8752,5.9043,5.9373,6.2811,6.2811,6.2811,6.2811,6.2811,6.2811,6.2811,6.2811,6.2811,6.2811,6.2811,6.2811,6.2811,6.2811,6.2811,6.2591,6.2346,6.152,6.086,6.0059,5.9233,5.851,5.8107,5.8033,5.7997,5.7978,5.7978,5.7978,5.7978,5.7978,5.7978,5.799,5.8035,5.8065,5.8065,5.8179,5.8257,5.8301,5.8476,5.8768,5.8902,5.8971,5.904,5.9157,5.9215,5.9262,5.9337,5.9401,5.9418,5.9427,5.9427,5.9427,5.9446,5.9455,5.9437,5.9373,5.9309,5.9225,5.912,5.8914,5.8739,5.8614,5.8451,5.8279,5.8179,5.8141,5.8118,5.8099,5.8099,5.8129,5.8129,5.8129,5.8129,5.8129,5.8129,5.8129,5.8129,5.8118,5.8106,5.8077,5.8054,5.8031,5.799,5.7978,5.7978,5.799,5.799,5.799,5.8008,5.8001,5.8001,5.8088,5.8174,5.8231,5.8264,5.8275,5.8305,5.8338,5.836,5.8308,5.8253,5.8201,5.8179,5.8111,5.8077,5.8133,5.8174,5.8099,5.8099,5.8156,5.8286,5.8411,5.8561,5.8832,5.9187,6.2811,6.2811,6.2811,6.2811,6.2811,6.2811,6.2811,6.2811,6.2811,6.2811,6.2811,6.2811,6.2811,6.2811,6.2811,6.2811,6.2646,6.1942,6.1392,6.0768,5.9838,5.9068,5.8591,5.8217,5.8015,5.7978,5.7978,5.7978,5.7978,5.7978,5.7978,5.7978,5.7978,5.799,5.8008,5.8065,5.8099,5.8129,5.8208,5.8375,5.8601,5.8654,5.8716,5.8811,5.8854,5.8922,5.8982,5.9032,5.9023,5.9033,5.9033,5.9033,5.9033,5.9042,5.9033,5.9003,5.8944,5.8902,5.8823,5.8719,5.854,5.844,5.8375,5.8208,5.8088,5.8061,5.8042,5.8042,5.8024,5.8042,5.8042,5.8042,5.8042,5.8042,5.8042,5.8042,5.8042,5.8042,5.8042,5.8031,5.8001,5.8001,5.7978,5.7978,5.7978,5.7978,5.7978,5.7978,5.7978,5.7978,5.7978,5.8001,5.8088,5.8099,5.8111,5.8152,5.8163,5.8208,5.8253,5.8186,5.8111,5.8035,5.799,5.799,5.8001,5.8001,5.8001,5.7978,5.7978,5.8047,5.8179,5.8331,5.8494,5.8675,5.9042,6.2811,6.2811,6.2811,6.2811,6.2811,6.2811,6.2811,6.2811,6.2811,6.2811,6.2811,6.2811,6.2811,6.2811,6.2811,6.2811,6.2627,6.2218,6.1851,6.1208,6.0224,5.9728,5.9196,5.8657,5.8309,5.8052,5.7978,5.7978,5.7978,5.7978,5.7978,5.7978,5.7978,5.7978,5.7978,5.799,5.8001,5.8031,5.8065,5.8088,5.8179,5.8297,5.844,5.8476,5.8508,5.8561,5.8643,5.8675,5.8675,5.8685,5.8706,5.8698,5.8698,5.8708,5.8698,5.8677,5.8646,5.8582,5.8529,5.8473,5.8342,5.8242,5.8197,5.8141,5.8031,5.8008,5.799,5.7978,5.7978,5.7978,5.7978,5.7978,5.7978,5.7978,5.7978,5.7978,5.7978,5.7978,5.7978,5.7978,5.7978,5.7978,5.7978,5.7978,5.7978,5.7978,5.7978,5.7978,5.7978,5.7978,5.7978,5.7978,5.8013,5.8031,5.8008,5.8031,5.8077,5.8077,5.8099,5.8024,5.7978,5.7978,5.7978,5.799,5.799,5.7978,5.7978,5.7978,5.7978,5.7978,5.8133,5.8297,5.8469,5.8675,5.8983,6.2811,6.2811,6.2811,6.2811,6.2811,6.2811,6.2811,6.2811,6.2811,6.2811,6.2811,6.2811,6.2811,6.2811,6.2811,6.2811,6.2756,6.2462,6.2053,6.1477,6.1043,6.0639,6.0089,5.9361,5.8646,5.8382,5.8253,5.807,5.8437,5.8272,5.8063,5.8173,5.8137,5.8107,5.807,5.8125,5.8253,5.829,5.8272,5.8325,5.8238,5.8315,5.8316,5.8382,5.8426,5.8437,5.8459,5.8459,5.8459,5.844,5.844,5.8459,5.8459,5.844,5.844,5.844,5.8396,5.8378,5.8353,5.8286,5.8167,5.8174,5.8141,5.8054,5.8008,5.8008,5.7978,5.7978,5.7978,5.7978,5.7978,5.7978,5.7978,5.7978,5.7978,5.7978,5.7978,5.7978,5.7978,5.7978,5.7978,5.7978,5.7978,5.7978,5.7978,5.7978,5.7978,5.7978,5.7978,5.7978,5.7978,5.7978,5.7978,5.7978,5.799,5.799,5.8013,5.799,5.7978,5.7978,5.7978,5.7978,5.7978,5.7978,5.7978,5.7978,5.7978,5.7978,5.7978,5.8001,5.8111,5.8264,5.8429,5.8706,5.9033]}]]